[[{"header":{"parameterUnit":"m.s-1","parameterCategory":1,"la1":30.6,"la2":28.766,"lo1":-90.7593,"lo2":-88.6598,"dy":0.0162,"dx":0.0183,"nx":116,"ny":114,"refTime":"2023-07-23T06:00:00:Z","depth":0,"parameterNumber":2,"parameterNumberName":"U-component_of_WINDS"},"data":[0.0,0.0,0.0,0.0,0.0,0.0,0.0,0.0,0.0,0.0,0.0,0.0,0.0,0.0,0.0,0.0,0.0,0.0,0.0,0.0,0.0,0.0,0.0,0.0,0.0,0.0,0.0,0.0,0.0,0.0,0.0,0.0,0.0,0.0,0.0,0.0,0.0,0.0,0.0,0.0,0.0,0.0,0.0,0.0,0.0,0.0,0.0,0.0,0.0,0.0,0.0,0.0,0.0,0.0,0.0,0.0,0.0,0.0,0.0,0.0,0.0,0.0,0.0,0.0,0.0,0.0,0.0,0.0,0.0,0.0,0.0,0.0,0.0,0.0,0.0,0.0,0.0,0.0,0.0,0.0,0.0,0.0,0.0,0.0,0.0,0.0,0.0,0.0,0.0,0.0,0.0,0.0,0.0,0.0,0.0,0.0,0.0,0.0,0.0,0.0,0.0,0.0,0.0,0.0,0.0,0.0,0.0,0.0,0.0,0.0,0.0,0.0,0.0,0.0,0.0,0.0,0.0,0.0,0.0,0.0,0.0,0.0,0.0,0.0,0.0,0.0,0.0,0.0,0.0,0.0,0.0,0.0,0.0,0.0,0.0,0.0,0.0,0.0,0.0,0.0,0.0,0.0,0.0,0.0,0.0,0.0,0.0,0.0,0.0,0.0,0.0,0.0,0.0,0.0,0.0,0.0,0.0,0.0,0.0,0.0,0.0,0.0,0.0,0.0,0.0,0.0,0.0,0.0,0.0,0.0,0.0,0.0,0.0,0.0,0.0,0.0,0.0,0.0,0.0,0.0,0.0,0.0,0.0,0.0,0.0,0.0,0.0,0.0,0.0,0.0,0.0,0.0,0.0,0.0,0.0,0.0,0.0,0.0,0.0,0.0,0.0,0.0,0.0,0.0,0.0,0.0,0.0,0.0,0.0,0.0,0.0,0.0,0.0,0.0,0.0,0.0,0.0,0.0,0.0,0.0,0.0,0.0,0.0,0.0,0.0,0.0,0.0,0.0,0.0,0.0,0.0,0.0,0.0,0.0,0.0,0.0,0.0,0.0,0.0,0.0,0.0,0.0,0.0,0.0,0.0,0.0,0.0,0.0,0.0,0.0,0.0,0.0,0.0,0.0,0.0,0.0,0.0,0.0,0.0,0.0,0.0,0.0,0.0,0.0,0.0,0.0,0.0,0.0,0.0,0.0,0.0,0.0,0.0,0.0,0.0,0.0,0.0,0.0,0.0,0.0,0.0,0.0,0.0,0.0,0.0,0.0,0.0,0.0,0.0,0.0,0.0,0.0,0.0,0.0,0.0,0.0,0.0,0.0,0.0,0.0,0.0,0.0,0.0,0.0,0.0,0.0,0.0,0.0,0.0,0.0,0.0,0.0,0.0,0.0,0.0,0.0,0.0,0.0,0.0,0.0,0.0,0.0,0.0,0.0,0.0,0.0,0.0,0.0,0.0,0.0,0.0,0.0,0.0,0.0,0.0,0.0,0.0,0.0,0.0,0.0,0.0,0.0,0.0,0.0,0.0,0.0,0.0,0.0,0.0,0.0,0.0,0.0,0.0,0.0,0.0,0.0,0.0,0.0,0.0,0.0,0.0,0.0,0.0,0.0,0.0,0.0,0.0,0.0,0.0,0.0,0.0,0.0,0.0,0.0,0.0,0.0,0.0,0.0,0.0,0.0,0.0,0.0,0.0,0.0,0.0,0.0,0.0,0.0,0.0,0.0,0.0,0.0,0.0,0.0,0.0,0.0,0.0,0.0,0.0,0.0,0.0,0.0,0.0,0.0,0.0,0.0,0.0,0.0,0.0,0.0,0.0,0.0,0.0,0.0,0.0,0.0,0.0,0.0,0.0,0.0,0.0,0.0,0.0,0.0,0.0,0.0,0.0,0.0,0.0,0.0,0.0,0.0,0.0,0.0,0.0,0.0,0.0,0.0,0.0,0.0,0.0,0.0,0.0,0.0,0.0,0.0,0.0,0.0,0.0,0.0,0.0,0.0,0.0,0.0,0.0,0.0,0.0,0.0,0.0,0.0,0.0,0.0,0.0,0.0,0.0,0.0,0.0,0.0,0.0,0.0,0.0,0.0,0.0,0.0,0.0,0.0,0.0,0.0,0.0,0.0,0.0,0.0,0.0,0.0,0.0,0.0,0.0,0.0,0.0,0.0,0.0,0.0,0.0,0.0,0.0,0.0,0.0,0.0,0.0,0.0,0.0,0.0,0.0,0.0,0.0,0.0,0.0,0.0,0.0,0.0,0.0,0.0,0.0,0.0,0.0,0.0,0.0,0.0,0.0,0.0,0.0,0.0,0.0,0.0,0.0,0.0,0.0,0.0,0.0,0.0,0.0,0.0,0.0,0.0,0.0,0.0,0.0,0.0,0.0,0.0,0.0,0.0,0.0,0.0,0.0,0.0,0.0,0.0,0.0,0.0,0.0,0.0,0.0,0.0,0.0,0.0,0.0,0.0,0.0,0.0,0.0,0.0,0.0,0.0,0.0,0.0,0.0,0.0,0.0,0.0,0.0,0.0,0.0,0.0,0.0,0.0,0.0,0.0,0.0,0.0,0.0,0.0,0.0,0.0,0.0,0.0,0.0,0.0,0.0,0.0,0.0,0.0,0.0,0.0,0.0,0.0,0.0,0.0,0.0,0.0,0.0,0.0,0.0,0.0,0.0,0.0,0.0,0.0,0.0,0.0,0.0,0.0,0.0,0.0,0.0,0.0,0.0,0.0,0.0,0.0,0.0,0.0,0.0,0.0,0.0,0.0,0.0,0.0,0.0,0.0,0.0,0.0,0.0,0.0,0.0,0.0,0.0,0.0,0.0,0.0,0.0,0.0,0.0,0.0,0.0,0.0,0.0,0.0,0.0,0.0,0.0,0.0,0.0,0.0,0.0,0.0,0.0,0.0,0.0,0.0,0.0,0.0,0.0,0.0,0.0,0.0,0.0,0.0,0.0,0.0,0.0,0.0,0.0,0.0,0.0,0.0,0.0,0.0,0.0,0.0,0.0,0.0,0.0,0.0,0.0,0.0,0.0,0.0,0.0,0.0,0.0,0.0,0.0,0.0,0.0,0.0,0.0,0.0,0.0,0.0,0.0,0.0,0.0,0.0,0.0,0.0,0.0,0.0,0.0,0.0,0.0,0.0,0.0,0.0,0.0,0.0,0.0,0.0,0.0,0.0,0.0,0.0,0.0,0.0,0.0,0.0,0.0,0.0,0.0,0.0,0.0,0.0,0.0,0.0,0.0,0.0,0.0,0.0,0.0,0.0,0.0,0.0,0.0,0.0,0.0,0.0,0.0,0.0,0.0,0.0,0.0,0.0,0.0,0.0,0.0,0.0,0.0,0.0,0.0,0.0,0.0,0.0,0.0,0.0,0.0,0.0,0.0,0.0,0.0,0.0,0.0,0.0,0.0,0.0,0.0,0.0,0.0,0.0,0.0,0.0,0.0,0.0,0.0,0.0,0.0,0.0,0.0,0.0,0.0,0.0,0.0,0.0,0.0,0.0,0.0,0.0,0.0,0.0,0.0,0.0,0.0,0.0,0.0,0.0,0.0,0.0,0.0,0.0,0.0,0.0,0.0,0.0,0.0,0.0,0.0,0.0,0.0,0.0,0.0,0.0,0.0,0.0,0.0,0.0,0.0,0.0,0.0,0.0,0.0,0.0,0.0,0.0,0.0,0.0,0.0,0.0,0.0,0.0,0.0,0.0,0.0,0.0,0.0,0.0,0.0,0.0,0.0,0.0,0.0,0.0,0.0,0.0,0.0,0.0,0.0,0.0,0.0,0.0,0.0,0.0,0.0,0.0,0.0,0.0,0.0,0.0,0.0,0.0,0.0,0.0,0.0,0.0,0.0,0.0,0.0,0.0,0.0,0.0,0.0,0.0,0.0,0.0,0.0,0.0,0.0,0.0,0.0,0.0,0.0,0.0,0.0,0.0,0.0,0.0,0.0,0.0,0.0,0.0,0.0,0.0,0.0,0.0,0.0,0.0,0.0,0.0,0.0,0.0,0.0,0.0,0.0,0.0,0.0,0.0,0.0,0.0,0.0,0.0,0.0,0.0,0.0,0.0,0.0,0.0,0.0,0.0,0.0,0.0,0.0,0.0,0.0,0.0,0.0,0.0,0.0,0.0,0.0,0.0,0.0,0.0,0.0,0.0,0.0,0.0,0.0,0.0,0.0,0.0,0.0,0.0,0.0,0.0,0.0,0.0,0.0,0.0,0.0,0.0,0.0,0.0,0.0,0.0,0.0,0.0,0.0,0.0,0.0,0.0,0.0,0.0,0.0,0.0,0.0,0.0,0.0,0.0,0.0,0.0,0.0,0.0,0.0,0.0,0.0,0.0,0.0,0.0,0.0,0.0,0.0,0.0,0.0,0.0,0.0,0.0,0.0,0.0,0.0,0.0,0.0,0.0,0.0,0.0,0.0,0.0,0.0,0.0,0.0,0.0,0.0,0.0,0.0,0.0,0.0,0.0,0.0,0.0,0.0,0.0,0.0,0.0,0.0,0.0,0.0,0.0,0.0,0.0,0.0,0.0,0.0,0.0,0.0,0.0,0.0,0.0,0.0,0.0,0.0,0.0,0.0,0.0,0.0,0.0,0.0,0.0,0.0,0.0,0.0,0.0,0.0,0.0,0.0,0.0,0.0,0.0,0.0,0.0,0.0,0.0,0.0,0.0,0.0,0.0,0.0,0.0,0.0,0.0,0.0,0.0,0.0,0.0,0.0,0.0,0.0,0.0,0.0,0.0,0.0,0.0,0.0,0.0,0.0,0.0,0.0,0.0,0.0,0.0,0.0,0.0,0.0,0.0,0.0,0.0,0.0,0.0,0.0,0.0,0.0,0.0,0.0,0.0,0.0,0.0,0.0,0.0,0.0,0.0,0.0,0.0,0.0,0.0,0.0,0.0,0.0,0.0,0.0,0.0,0.0,0.0,0.0,0.0,0.0,0.0,0.0,0.0,0.0,0.0,0.0,0.0,0.0,0.0,0.0,0.0,0.0,0.0,0.0,0.0,0.0,0.0,0.0,0.0,0.0,0.0,0.0,0.0,0.0,0.0,0.0,0.0,0.0,0.0,0.0,0.0,0.0,0.0,0.0,0.0,0.0,0.0,0.0,0.0,0.0,0.0,0.0,0.0,0.0,0.0,0.0,0.0,0.0,0.0,0.0,0.0,0.0,0.0,0.0,0.0,0.0,0.0,0.0,0.0,0.0,0.0,0.0,0.0,0.0,0.0,0.0,0.0,0.0,0.0,0.0,0.0,0.0,0.0,0.0,0.0,0.0,0.0,0.0,0.0,0.0,0.0,0.0,0.0,0.0,0.0,0.0,0.0,0.0,0.0,0.0,0.0,0.0,0.0,0.0,0.0,0.0,0.0,0.0,0.0,0.0,0.0,0.0,0.0,0.0,0.0,0.0,0.0,0.0,0.0,0.0,0.0,0.0,0.0,0.0,0.0,0.0,0.0,0.0,0.0,0.0,0.0,0.0,0.0,0.0,0.0,0.0,0.0,0.0,0.0,0.0,0.0,0.0,0.0,0.0,0.0,0.0,0.0,0.0,0.0,0.0,0.0,0.0,0.0,0.0,0.0,0.0,0.0,0.0,0.0,0.0,0.0,0.0,0.0,0.0,0.0,0.0,0.0,0.0,0.0,0.0,0.0,0.0,0.0,0.0,0.0,0.0,0.0,0.0,0.0,0.0,0.0,0.0,0.0,0.0,0.0,0.0,0.0,0.0,0.0,0.0,0.0,0.0,0.0,0.0,0.0,0.0,0.0,0.0,0.0,0.0,0.0,0.0,0.0,0.0,0.0,0.0,0.0,0.0,0.0,0.0,0.0,0.0,0.0,0.0,0.0,0.0,0.0,0.0,0.0,0.0,0.0,0.0,0.0,0.0,0.0,0.0,0.0,0.0,0.0,0.0,0.0,0.0,0.0,0.0,0.0,0.0,0.0,0.0,0.0,0.0,0.0,0.0,0.0,0.0,0.0,0.0,0.0,0.0,0.0,0.0,0.0,0.0,0.0,0.0,0.0,0.0,0.0,0.0,0.0,0.0,0.0,0.0,0.0,0.0,0.0,0.0,0.0,0.0,0.0,2.5526,0.0,0.0,0.0,0.0,0.0,0.0,0.0,0.0,0.0,0.0,0.0,0.0,0.0,0.0,0.0,0.0,0.0,0.0,0.0,0.0,0.0,0.0,0.0,0.0,0.0,0.0,0.0,0.0,0.0,0.0,0.0,0.0,0.0,0.0,0.0,0.0,0.0,0.0,0.0,0.0,0.0,0.0,0.0,0.0,0.0,0.0,0.0,0.0,0.0,0.0,0.0,0.0,0.0,0.0,0.0,0.0,0.0,0.0,0.0,0.0,0.0,0.0,0.0,0.0,0.0,0.0,0.0,0.0,0.0,0.0,0.0,0.0,0.0,0.0,0.0,0.0,0.0,0.0,0.0,0.0,0.0,0.0,0.0,0.0,0.0,0.0,0.0,0.0,0.0,0.0,0.0,0.0,0.0,0.0,0.0,0.0,0.0,0.0,0.0,0.0,0.0,0.0,0.0,0.0,0.0,0.0,0.0,0.0,0.0,0.0,0.0,0.0,0.0,0.0,0.0,0.0,2.3166,0.0,0.0,0.0,0.0,0.0,0.0,0.0,0.0,0.0,0.0,0.0,0.0,0.0,0.0,0.0,0.0,0.0,0.0,0.0,0.0,0.0,0.0,0.0,0.0,0.0,0.0,0.0,0.0,0.0,0.0,0.0,0.0,0.0,0.0,0.0,0.0,0.0,0.0,0.0,0.0,0.0,0.0,0.0,0.0,0.0,0.0,0.0,0.0,0.0,0.0,0.0,0.0,0.0,0.0,0.0,0.0,0.0,0.0,0.0,0.0,0.0,0.0,0.0,0.0,0.0,0.0,0.0,0.0,0.0,0.0,0.0,0.0,0.0,0.0,0.0,0.0,0.0,0.0,0.0,0.0,0.0,0.0,0.0,0.0,0.0,0.0,0.0,0.0,0.0,0.0,0.0,0.0,0.0,0.0,0.0,0.0,0.0,0.0,0.0,0.0,0.0,0.0,0.0,0.0,0.0,0.0,0.0,0.0,2.6006,2.6187,2.6187,2.6428,2.6882,2.7342,2.4508,2.2598,2.1698,2.4256,0.0,0.0,0.0,0.0,0.0,0.0,0.0,0.0,0.0,0.0,0.0,0.0,0.0,0.0,0.0,0.0,0.0,0.0,0.0,0.0,0.0,0.0,0.0,0.0,0.0,0.0,0.0,0.0,0.0,0.0,0.0,0.0,0.0,0.0,0.0,0.0,0.0,0.0,0.0,0.0,0.0,0.0,0.0,0.0,0.0,0.0,0.0,0.0,0.0,0.0,0.0,0.0,0.0,0.0,0.0,0.0,0.0,0.0,0.0,0.0,0.0,0.0,0.0,0.0,0.0,0.0,0.0,0.0,0.0,0.0,0.0,0.0,0.0,0.0,0.0,0.0,0.0,0.0,0.0,0.0,0.0,0.0,0.0,0.0,0.0,0.0,2.2034,2.4937,0.0,0.0,0.0,0.0,0.0,0.0,0.0,0.0,0.0,0.0,0.0,0.0,0.0,2.2648,2.5618,2.5683,2.557,2.5385,2.8335,2.9725,2.9725,2.9763,3.1554,3.4624,3.4179,0.0,2.5038,2.5219,0.0,0.0,0.0,0.0,0.0,0.0,0.0,0.0,0.0,0.0,0.0,0.0,0.0,0.0,0.0,0.0,0.0,0.0,0.0,0.0,0.0,0.0,0.0,0.0,0.0,0.0,0.0,0.0,0.0,0.0,0.0,0.0,0.0,0.0,0.0,0.0,0.0,0.0,0.0,0.0,0.0,0.0,0.0,0.0,0.0,0.0,0.0,0.0,0.0,0.0,0.0,0.0,0.0,0.0,0.0,0.0,0.0,0.0,0.0,0.0,0.0,0.0,0.0,0.0,0.0,0.0,0.0,0.0,0.0,0.0,0.0,0.0,0.0,0.0,0.0,0.0,0.0,0.0,0.0,0.0,0.0,0.0,0.0,0.0,0.0,1.8362,1.9381,2.4668,2.363,2.3226,0.0,0.0,0.0,0.0,0.0,0.0,0.0,0.0,0.0,2.5644,2.6152,2.7013,2.8333,3.0433,3.1438,3.1324,3.2638,3.3263,3.3269,3.3456,3.444,3.6113,3.8066,3.6088,3.1158,2.7016,2.5303,2.5303,0.0,0.0,0.0,0.0,2.5601,2.5703,0.0,0.0,0.0,0.0,0.0,0.0,0.0,0.0,0.0,0.0,0.0,0.0,0.0,0.0,0.0,1.4344,0.0,0.0,0.0,0.0,0.0,0.0,0.0,0.0,0.0,0.0,0.0,0.0,0.0,0.0,0.0,0.0,0.0,0.0,0.0,0.0,0.0,0.0,0.0,0.0,0.0,0.0,0.0,0.0,0.0,0.0,0.0,0.0,0.0,0.0,0.0,0.0,0.0,0.0,0.0,0.0,0.0,0.0,0.0,0.0,0.0,0.0,0.0,0.0,0.0,0.0,0.0,0.0,0.0,0.0,0.0,0.0,0.0,0.0,0.0,0.0,0.0,1.7785,1.965,2.4688,2.3092,2.2553,0.0,0.0,0.0,0.0,0.0,0.0,2.5683,2.4121,2.4805,2.8223,3.0762,3.1955,3.1718,3.4484,3.6309,3.7141,3.702,3.6968,3.6958,3.7217,3.7324,3.748,4.0078,3.9724,3.6851,3.0507,2.7379,2.6591,2.6591,2.6072,2.5446,2.6598,2.7022,2.714,0.0,0.0,0.0,0.0,0.0,0.0,0.0,0.0,0.0,0.0,0.0,0.0,0.0,0.0,1.5168,1.6873,1.6208,1.5674,0.0,0.0,0.0,0.0,0.0,0.0,0.0,0.0,0.0,0.0,0.0,0.0,0.0,0.0,0.0,0.0,0.0,0.0,0.0,0.0,0.0,0.0,0.0,0.0,0.0,0.0,0.0,0.0,0.0,0.0,0.0,0.0,0.0,0.0,0.0,0.0,0.0,0.0,0.0,0.0,0.0,0.0,0.0,0.0,0.0,0.0,0.0,0.0,0.0,0.0,0.0,0.0,0.0,0.0,0.0,0.0,0.0,0.0,0.0,0.0,0.0,2.5264,2.5149,0.0,0.0,0.0,0.0,2.1069,2.3847,2.5683,2.5703,2.8672,3.1953,3.5371,3.5336,3.5264,3.5238,3.5418,3.712,4.0294,4.071,4.0916,4.0917,4.0937,4.0937,4.0957,4.1113,4.1094,4.064,3.6629,3.3071,3.0129,3.0129,2.8148,2.5725,2.9316,3.0637,3.1072,0.0,0.0,0.0,0.0,0.0,0.0,0.0,0.0,0.0,0.0,0.0,0.0,0.0,1.5836,1.7744,1.9327,1.9062,1.8276,1.707,0.0,0.0,0.0,0.0,0.0,0.0,0.0,0.0,0.0,0.0,0.0,0.0,0.0,0.0,0.0,0.0,0.0,0.0,0.0,0.0,0.0,0.0,0.0,0.0,0.0,0.0,0.0,0.0,0.0,0.0,0.0,0.0,0.0,0.0,0.0,0.0,0.0,0.0,0.0,0.0,0.0,0.0,0.0,0.0,0.0,0.0,0.0,0.0,0.0,0.0,0.0,0.0,0.0,0.0,0.0,0.0,0.0,0.0,0.0,0.0,3.134,2.7975,0.0,2.5303,2.5303,2.5754,2.6839,3.0264,3.2324,3.2324,3.3301,3.4408,3.5648,3.5546,3.6546,3.87,3.8719,3.9315,4.0504,4.0665,4.0742,4.0742,4.0742,4.0742,4.0742,4.0742,4.0916,4.1094,3.9731,3.8458,3.7136,3.4889,3.3251,3.2349,3.3689,3.5593,3.7688,0.0,0.0,0.0,0.0,0.0,0.0,0.0,0.0,0.0,0.0,0.0,1.3201,1.5074,1.7444,1.9613,2.138,2.091,1.9851,1.8276,0.0,0.0,0.0,0.0,0.0,0.0,0.0,0.0,0.0,0.0,0.0,0.0,0.0,0.0,0.0,0.0,0.0,0.0,0.0,0.0,0.0,0.0,0.0,2.0953,0.0,0.0,0.0,0.0,0.0,0.0,0.0,0.0,0.0,0.0,0.0,0.0,0.0,0.0,0.0,0.0,0.0,0.0,0.0,0.0,0.0,0.0,0.0,0.0,0.0,0.0,0.0,0.0,0.0,0.0,0.0,0.0,0.0,0.0,0.0,3.1698,3.5103,3.1494,2.8744,2.8744,2.8744,3.016,3.3545,3.6118,3.7522,3.7522,3.7312,3.7199,3.7199,3.7199,3.8257,4.0469,4.0489,4.0489,4.0489,4.0489,4.0489,4.0489,4.0489,4.0489,4.0489,4.0489,4.0676,4.0964,4.0964,4.0964,4.0613,3.7181,3.6618,3.7754,3.7754,3.9219,4.1191,0.0,0.0,0.0,0.0,0.0,0.0,0.0,0.0,0.0,0.0,1.1504,1.3506,1.5965,1.8332,2.0671,2.2978,2.1465,2.0034,1.9139,1.5878,0.0,0.0,0.0,0.0,0.0,0.0,0.0,0.0,0.0,0.0,0.0,0.0,0.0,0.0,0.0,0.0,0.0,0.0,0.0,0.0,0.0,0.0,2.2832,0.0,0.0,0.0,0.0,0.0,0.0,0.0,0.0,0.0,0.0,0.0,0.0,0.0,0.0,0.0,0.0,0.0,0.0,0.0,0.0,0.0,0.0,0.0,0.0,0.0,0.0,0.0,0.0,0.0,0.0,0.0,0.0,0.0,2.5676,3.4429,3.9277,3.5968,3.5622,3.5622,3.5512,3.5603,3.7007,4.0258,4.0489,4.0489,4.0489,4.0489,4.0489,4.0489,4.0489,4.0489,4.0489,4.0489,4.0489,4.0489,4.0489,4.0489,4.0489,4.0604,4.0662,4.0662,4.0662,4.0662,4.0662,4.0662,4.0585,4.0181,3.693,3.7914,4.1171,4.1191,4.1191,4.1191,0.0,0.0,0.0,0.0,0.0,0.0,0.0,0.0,0.0,0.0,1.2484,1.4979,1.6718,1.9369,2.149,2.2665,2.0047,1.8378,1.8512,0.0,0.0,0.0,0.0,0.0,0.0,0.0,0.0,0.0,0.0,0.0,0.0,0.0,0.0,0.0,0.0,0.0,0.0,0.0,0.0,0.0,0.0,0.0,2.3381,0.0,0.0,0.0,0.0,0.0,0.0,0.0,0.0,0.0,0.0,0.0,0.0,0.0,0.0,0.0,0.0,0.0,0.0,0.0,0.0,0.0,0.0,0.0,0.0,0.0,0.0,0.0,0.0,0.0,0.0,0.0,0.0,3.002,3.5639,3.8767,3.97,3.7565,3.8392,3.8161,3.5738,3.77,3.9508,4.0431,4.0489,4.0489,4.0489,4.0489,4.0489,4.0489,4.0489,4.0489,4.0489,4.0489,4.0489,4.0489,4.0489,4.0489,4.0566,4.3066,4.4201,4.4201,4.4201,4.4201,4.4201,4.4201,4.2739,4.0412,3.9488,3.9772,4.0722,4.1074,4.1191,4.1191,0.0,0.0,0.0,0.0,0.0,0.0,0.0,0.0,0.0,0.0,1.2527,1.4896,1.6287,1.8822,2.0571,2.0966,1.9182,1.7719,1.7046,0.0,0.0,0.0,0.0,0.0,0.0,0.0,0.0,0.0,0.0,0.0,0.0,0.0,0.0,0.0,0.0,0.0,0.0,0.0,0.0,0.0,0.0,0.0,2.5672,2.3419,2.2454,2.2192,2.1571,2.075,2.0011,2.0583,0.0,0.0,0.0,0.0,0.0,0.0,0.0,0.0,0.0,0.0,0.0,0.0,0.0,0.0,0.0,0.0,0.0,0.0,0.0,0.0,0.0,0.0,0.0,0.0,2.8415,3.4878,4.0746,4.1585,4.095,3.9238,3.9912,3.9719,3.7777,3.9354,4.1085,4.2527,4.2624,4.2008,4.0566,4.0489,4.1162,4.2585,4.2624,4.2624,4.2624,4.2624,4.2624,4.2624,4.2624,4.2624,4.2701,4.4682,4.5586,4.5586,4.5586,4.5586,4.5586,4.5586,4.4432,0.0,0.0,0.0,0.0,0.0,4.1191,4.1191,0.0,0.0,0.0,0.0,0.0,0.0,0.0,0.0,0.0,0.0,0.0,1.3784,1.4999,1.7101,1.8464,1.8592,1.8269,1.7205,0.0,0.0,0.0,0.0,0.0,0.0,0.0,0.0,0.0,0.0,0.0,0.0,0.0,0.0,0.0,0.0,0.0,0.0,0.0,0.0,0.0,0.0,0.0,0.0,2.8553,2.5057,2.4282,2.4967,2.4606,2.3138,2.1497,2.2541,0.0,0.0,0.0,0.0,0.0,0.0,0.0,0.0,0.0,0.0,0.0,0.0,0.0,0.0,0.0,0.0,0.0,0.0,0.0,0.0,0.0,0.0,0.0,0.0,3.2006,3.7777,4.2681,4.3374,4.2739,4.0989,4.0604,4.0642,4.1027,4.1066,4.2162,4.4816,4.5009,4.3855,4.1219,0.0,0.0,0.0,0.0,4.5586,4.5586,4.5586,4.5586,4.5586,4.5586,4.5586,4.5586,4.5586,4.5586,4.5586,4.5586,4.5586,4.5586,4.5586,4.5586,4.5297,4.2258,4.1066,4.108,4.11,4.115,4.1191,0.0,0.0,0.0,0.0,0.0,0.0,0.0,0.0,0.0,0.991,1.1307,1.2582,1.3381,1.4642,1.5923,1.7174,1.5377,1.4195,0.0,0.0,0.0,0.0,0.0,0.0,0.0,0.0,0.0,0.0,0.0,0.0,0.0,0.0,0.0,0.0,0.0,0.0,0.0,0.0,0.0,0.0,0.0,0.0,2.8418,2.7366,2.6225,2.5244,2.5953,2.5518,2.4484,2.3638,2.2499,2.1008,1.8572,0.0,0.0,0.0,0.0,0.0,0.0,0.0,0.0,0.0,0.0,0.0,0.0,0.0,0.0,0.0,0.0,0.0,0.0,0.0,0.0,3.3145,3.6941,4.0835,4.4586,4.5105,4.4489,4.2797,4.1354,4.1566,4.4335,4.4605,4.3739,4.1643,4.1489,4.2393,4.4489,4.4605,4.4913,4.5566,4.5586,4.5586,4.5586,4.5586,4.5586,4.5586,0.0,0.0,4.5586,4.5586,4.5586,4.5586,4.5586,4.5586,4.5586,4.5586,4.5586,4.5528,4.4855,4.4605,4.4292,4.1627,4.0863,4.1191,0.0,0.0,0.0,0.0,0.0,0.0,0.0,0.0,0.0,0.0,1.0583,1.1374,1.1987,1.3131,1.4006,1.4414,1.3528,0.0,0.0,0.0,0.0,0.0,0.0,0.0,0.0,0.0,0.0,0.0,0.0,0.0,0.0,0.0,0.0,0.0,0.0,0.0,0.0,0.0,0.0,0.0,0.0,0.0,2.9744,2.9074,2.7635,2.6064,2.68,2.6323,2.523,2.4515,2.4112,2.3613,2.1735,2.1084,2.0989,0.0,0.0,0.0,0.0,0.0,0.0,0.0,0.0,0.0,0.0,0.0,0.0,0.0,0.0,2.5822,0.0,0.0,3.4064,3.745,4.0835,4.3643,4.5355,4.5586,4.5278,4.4451,4.3566,4.372,4.5432,4.4047,4.3047,4.3047,4.3047,4.3797,4.5509,4.5586,4.5586,4.5586,4.5586,4.5586,4.5586,4.5586,4.5586,4.5586,4.5586,4.5586,4.5586,4.5586,4.5586,4.5586,4.5586,4.5586,4.5586,4.5586,4.5586,4.5586,4.5586,4.5586,4.5182,4.1758,4.079,4.1191,0.0,0.0,0.0,0.0,0.0,0.0,0.0,0.0,0.0,0.0,0.0,1.0198,1.0598,1.1573,1.2091,0.0,0.0,0.0,0.0,0.0,0.0,0.0,0.0,0.0,0.0,0.0,0.0,0.0,0.0,0.0,0.0,0.0,0.0,0.0,0.0,0.0,0.0,0.0,0.0,0.0,0.0,0.0,3.1089,3.0125,2.867,2.7131,2.7029,2.6336,2.5469,2.5264,2.5474,2.5752,2.5478,2.5262,2.5016,2.4373,2.4355,0.0,0.0,0.0,0.0,0.0,0.0,0.0,0.0,0.0,2.9783,3.1109,2.9187,2.8321,3.1737,3.5161,3.8354,4.1046,4.3797,4.5586,4.5586,4.5586,4.5586,4.5586,4.5586,4.5586,4.5586,4.3104,4.2624,4.5374,4.5586,4.5586,4.5586,4.5586,4.5586,4.5586,4.5586,4.5586,4.5586,4.5586,4.5586,4.5586,4.5586,4.5586,4.5586,4.5586,4.5586,4.5586,4.5586,4.5586,4.5586,4.5586,4.5586,4.5586,4.5586,4.5586,4.5182,4.1758,4.1226,4.2187,0.0,0.0,0.0,0.0,0.0,0.0,0.0,0.0,0.0,0.0,0.0,0.0,0.0,0.0,0.0,0.0,0.0,0.0,0.0,0.0,0.0,0.0,0.0,0.0,0.0,0.0,0.0,0.0,0.0,0.0,0.0,0.0,0.0,0.0,0.0,0.0,0.0,0.0,0.0,0.0,0.0,0.0,3.1106,3.0362,2.9499,2.8469,2.6249,2.5912,2.6486,2.6021,2.6208,2.6794,2.809,2.8479,2.7893,2.5034,0.0,2.5126,2.285,2.2697,2.3377,2.4176,2.7701,2.9956,0.0,0.0,2.7591,3.3667,3.4628,3.5391,3.8738,4.2162,4.4586,4.497,4.5336,4.5586,4.5586,4.5586,4.5586,4.5586,4.5586,4.5586,4.5586,4.524,4.5182,4.5566,4.5586,4.5586,4.5586,4.5586,4.5586,4.5586,4.5586,4.5586,4.5586,4.5586,4.5586,4.5586,4.5586,4.5586,4.5586,4.5586,4.5586,4.5586,4.5586,4.5586,4.5586,4.5586,4.5586,4.5586,4.5586,4.5586,4.5182,4.1758,4.2713,4.5723,0.0,0.0,0.0,0.0,0.0,0.0,0.0,0.0,0.0,0.0,0.0,0.0,0.0,0.0,0.0,0.0,0.0,0.0,1.7099,0.0,0.0,0.0,0.0,0.0,0.0,0.0,0.0,0.0,0.0,0.0,0.0,0.0,0.0,0.0,0.0,0.0,0.0,0.0,0.0,0.0,0.0,0.0,3.0429,2.9228,2.867,2.8383,2.7334,2.6015,0.0,0.0,2.3942,2.5865,2.6708,2.6594,2.5952,2.4593,2.452,0.0,2.4627,2.5084,2.5557,0.0,2.9282,3.4026,3.6546,3.5565,3.5526,4.0373,4.1373,4.1816,4.3201,4.4624,4.5586,0.0,4.5586,4.5586,4.5586,4.5586,4.5586,4.5586,4.5586,4.5586,4.5586,4.5586,4.5586,4.5586,4.5586,4.5586,4.5586,4.5586,4.5586,4.5586,4.5586,4.5586,4.5586,4.5586,4.5586,4.5586,4.5586,4.5586,4.5586,4.5586,4.5586,4.5586,4.5586,4.5586,4.5586,4.5586,4.5586,4.5586,4.5586,4.5586,4.5432,4.3989,4.4667,4.6308,0.0,0.0,0.0,0.0,0.0,0.0,0.0,0.0,0.0,0.0,0.0,0.0,0.0,0.0,0.0,0.0,0.0,0.0,0.0,1.6813,1.8031,0.0,0.0,0.0,0.0,0.0,0.0,0.0,0.0,0.0,0.0,0.0,0.0,0.0,0.0,0.0,0.0,0.0,0.0,0.0,0.0,0.0,2.9617,2.7875,2.7063,2.6894,2.6962,2.5304,0.0,0.0,2.2248,2.4779,2.4724,2.4657,2.463,2.4538,2.452,2.4819,2.6202,2.6572,0.0,2.668,3.1129,3.7276,4.4047,4.2239,4.0354,4.4701,4.5586,4.5586,4.5586,4.5586,4.5586,4.5586,4.5586,4.5586,4.5586,4.5586,4.524,4.4297,4.3374,4.3181,4.4085,4.4182,4.4566,4.5528,4.5586,4.5586,4.5586,4.5586,4.5586,4.5586,4.5586,4.5586,4.5586,4.5586,4.5586,4.5586,4.5586,4.5586,4.5586,4.5586,4.5586,4.5586,4.5586,4.5586,4.5586,4.5586,4.5586,4.5605,4.5738,4.5796,4.5774,4.5794,4.6013,4.6308,0.0,0.0,0.0,0.0,0.0,0.0,0.0,0.0,0.0,0.0,0.0,0.0,0.0,0.0,0.0,0.0,0.0,0.0,0.0,1.5781,1.7101,1.7314,1.8981,0.0,0.0,0.0,0.0,0.0,0.0,0.0,0.0,0.0,0.0,0.0,0.0,0.0,0.0,0.0,0.0,0.0,0.0,0.0,2.8808,2.6539,2.478,2.3579,2.3833,0.0,0.0,0.0,2.2311,2.4042,2.3015,2.4097,0.0,2.5458,2.5366,2.5737,2.7546,0.0,2.5593,2.9315,3.2878,3.7276,4.4047,4.0431,3.7546,4.422,4.5586,4.5586,4.5586,4.5586,4.5586,4.5586,4.5586,4.5586,4.5586,4.5586,4.4355,4.1046,3.7796,3.7084,0.0,4.0642,4.2027,4.5336,4.5586,4.5586,4.5586,4.5586,4.5586,4.5586,4.5586,4.5586,4.5586,4.5586,4.5586,4.5586,4.5586,4.5586,4.5586,4.5586,4.5586,4.5586,4.5586,4.5586,4.5586,4.5586,4.5586,4.5643,4.6103,4.6294,4.6278,4.6279,4.6289,4.6308,0.0,0.0,0.0,0.0,0.0,0.0,0.0,0.0,0.0,0.0,0.0,0.0,0.0,0.0,0.0,0.0,0.0,0.0,0.0,1.4372,1.5371,1.6296,1.7554,1.8372,1.8656,1.8925,1.9241,1.969,0.0,0.0,0.0,0.0,0.0,0.0,0.0,0.0,0.0,0.0,0.0,0.0,2.9381,2.8586,2.7994,2.6082,2.3816,2.1769,0.0,0.0,0.0,0.0,2.0382,2.1714,2.1989,0.0,2.3474,2.5162,2.4649,2.4174,2.7121,2.8493,2.8776,2.7363,3.3302,4.0559,4.4666,4.3835,4.2854,4.5124,4.5586,4.4913,4.2624,4.222,4.222,4.222,4.4105,4.5586,4.5586,4.3643,4.095,3.7584,3.6199,0.0,0.0,0.0,0.0,4.2124,4.4316,4.5586,4.5586,4.5586,4.5586,4.5586,4.5586,4.5586,4.5586,4.5586,4.5586,4.5586,4.5586,4.5586,4.562,4.591,4.6053,4.6053,4.6053,4.6053,4.6053,4.6053,4.6053,4.6072,4.6228,4.6306,4.6304,4.6303,4.6308,4.6308,0.0,0.0,0.0,0.0,0.0,0.0,0.0,0.0,0.0,0.0,0.0,0.0,0.0,0.0,0.0,0.0,0.0,0.0,0.0,0.0,1.3569,1.4224,1.5446,1.6431,1.7097,1.6955,1.7211,1.7949,1.853,1.9556,2.1073,2.2315,2.3845,2.5551,2.6183,2.7009,2.7897,2.7874,2.7638,2.7266,2.6708,2.6234,2.5661,2.4205,2.2344,0.0,0.0,0.0,0.0,0.0,1.9255,1.9901,2.0657,2.1711,2.2997,2.4722,2.4795,2.5019,2.8209,2.8975,2.9027,2.9888,3.6193,4.2686,4.4445,4.4858,4.4858,4.4858,4.3931,4.1409,3.5717,3.4685,3.5413,3.7738,4.13,4.4201,4.5432,4.2662,3.97,3.7546,3.6238,3.5968,0.0,0.0,0.0,4.0489,4.3662,4.5586,4.5586,4.5586,4.5586,4.5586,4.5586,4.5586,4.5586,4.5586,4.5586,4.5586,4.5586,4.5692,4.5859,4.6163,4.6308,4.6308,4.6308,4.6308,4.6308,4.6308,4.6308,4.6308,4.6308,4.6308,4.6308,4.6308,4.6308,4.6308,0.0,0.0,0.0,0.0,0.0,0.0,0.0,0.0,0.0,0.0,0.0,0.0,0.0,0.0,0.0,0.0,0.0,0.0,0.0,0.0,0.0,1.1223,1.2756,1.3925,1.4588,1.3849,1.3865,1.4729,1.5094,1.6234,1.8038,1.9592,2.1006,2.2296,2.3225,2.4398,2.5605,2.4639,2.3477,2.2361,2.2885,0.0,2.2276,2.1262,0.0,0.0,0.0,0.0,0.0,0.0,0.0,1.8823,1.9946,2.2079,2.4263,2.4593,2.5897,2.7842,3.054,2.8301,2.7402,3.6633,4.124,4.3497,4.3497,4.3497,4.3442,4.3277,4.0561,3.533,0.0,0.0,2.6211,3.2378,3.6937,4.0912,4.4335,4.247,4.07,0.0,0.0,0.0,0.0,0.0,0.0,4.0758,0.0,4.5413,4.5586,4.5586,4.5586,4.5586,4.5586,4.5586,4.5586,4.5586,4.5586,4.5586,4.5618,4.5869,4.6308,4.6308,4.6308,4.6308,4.6308,4.6308,4.6308,4.6308,4.6308,4.6308,4.6308,4.6308,4.6308,4.6308,4.6308,4.6308,0.0,0.0,0.0,0.0,0.0,0.0,0.0,0.0,0.0,0.0,0.0,0.0,0.0,0.0,0.0,0.0,0.0,0.0,0.0,0.0,0.0,0.0,0.0,0.0,0.0,0.0,0.0,0.0,0.0,1.446,1.5472,1.6323,1.7468,0.0,1.8985,1.993,2.1275,2.0817,2.1262,2.2124,0.0,2.0906,2.3308,0.0,0.0,0.0,0.0,0.0,0.0,0.0,0.0,0.0,3.0662,2.9365,2.5144,2.9953,2.8338,2.5695,2.8778,3.4009,3.9166,4.1644,4.2892,4.3497,4.3497,4.3497,4.2818,4.0414,3.5422,2.9989,0.0,0.0,0.0,2.71,2.8434,0.0,3.3795,4.0065,0.0,4.0796,0.0,4.3355,4.422,4.4297,0.0,0.0,4.2739,4.2912,4.5451,4.5586,4.5586,4.5586,4.5586,4.5586,4.5586,4.5586,4.5586,4.5603,4.5946,4.6173,4.6308,4.6308,4.6308,4.6308,4.6308,4.6308,4.6308,4.6308,4.6308,4.6308,4.6308,4.6308,4.6308,4.6308,4.6308,4.6308,0.0,0.0,0.0,0.0,0.0,0.0,0.0,0.0,0.0,0.0,0.0,0.0,0.0,0.0,0.0,0.0,0.0,0.0,0.0,0.0,0.0,0.0,0.0,0.0,0.0,0.0,0.0,0.0,0.0,0.0,0.0,1.3015,1.4015,1.5152,1.5493,1.6259,1.7304,0.0,0.0,0.0,0.0,0.0,0.0,0.0,0.0,0.0,0.0,0.0,0.0,0.0,0.0,2.6529,3.4714,3.392,3.074,3.476,0.0,2.764,3.3715,3.935,4.3497,4.3497,4.3497,4.3497,4.3497,4.2396,3.9662,3.3587,2.9439,0.0,2.452,2.419,0.0,0.0,0.0,0.0,3.4564,4.1046,4.4874,0.0,4.4432,0.0,4.5586,4.5586,4.5586,0.0,4.3816,4.3566,4.549,4.5586,4.5586,4.5586,4.5586,4.5586,4.5586,4.5586,4.5586,4.5603,4.6084,4.6308,4.6308,4.6308,4.6308,4.6308,0.0,4.6308,4.6308,4.6308,4.6308,4.6308,4.6308,4.6308,4.6308,4.6308,4.6308,4.6308,0.0,0.0,0.0,0.0,0.0,0.0,0.0,0.0,0.0,0.0,0.0,0.0,0.0,0.0,0.0,0.0,0.0,0.0,0.0,0.0,0.0,0.0,0.0,0.0,0.0,0.0,0.0,0.0,0.0,0.0,0.0,0.0,0.0,0.0,0.0,0.0,0.0,0.0,0.0,0.0,0.0,0.0,0.0,0.0,0.0,0.0,0.0,0.0,0.0,0.0,3.2732,3.3271,3.5377,3.6994,3.8202,3.8596,3.5018,3.2871,4.1717,4.3828,4.3497,4.3497,4.3497,4.3387,4.2947,3.9698,3.4376,2.5933,0.0,2.419,2.419,2.419,2.6524,3.3662,0.0,3.9988,4.0431,4.3047,4.5086,4.5547,4.5586,4.5586,4.5586,4.5586,4.5586,4.5586,4.5586,4.5586,4.5586,4.5586,4.5586,4.5586,4.5586,4.5586,4.5586,4.5586,4.5586,4.5603,4.6084,4.6308,4.6308,4.6308,4.6308,4.6308,4.6308,4.6308,4.6308,4.6308,4.6308,4.6308,4.6308,4.6308,4.6308,4.6308,4.6308,4.6308,0.0,0.0,0.0,0.0,0.0,0.0,0.0,0.0,0.0,0.0,0.0,0.0,0.0,0.0,0.0,0.0,0.0,0.0,0.0,0.0,0.0,0.0,0.0,0.0,0.0,0.0,0.0,0.0,0.0,0.0,0.0,0.0,0.0,0.0,0.0,0.0,0.0,0.0,0.0,0.0,0.0,0.0,0.0,0.0,0.0,0.0,0.0,0.0,0.0,0.0,3.2692,3.545,3.8059,4.0517,4.1912,3.9417,3.9772,4.1919,4.6287,4.5535,4.3497,4.3497,4.3497,4.28,4.0139,3.2889,0.0,0.0,2.419,2.419,2.419,2.419,2.576,3.0503,3.4141,3.7334,4.0104,4.1008,4.2431,0.0,4.5586,4.5586,4.5586,4.5586,0.0,0.0,4.5586,4.5586,4.5586,4.5586,4.5586,4.5586,4.5586,4.5586,4.5586,4.5586,4.5586,4.5603,4.6084,4.6308,4.6308,4.6308,4.6308,4.6308,4.6308,0.0,4.6308,4.6308,4.6308,4.6308,4.6308,4.6308,4.6308,4.6308,4.6308,4.6308,0.0,0.0,0.0,0.0,0.0,0.0,0.0,0.0,0.0,0.0,0.0,0.0,0.0,0.0,0.0,0.0,0.0,0.0,0.0,0.0,0.0,0.0,0.0,0.0,0.0,0.0,0.0,0.0,0.0,0.0,0.0,0.0,0.0,0.0,0.0,0.0,0.0,0.0,0.0,0.0,0.0,0.0,0.0,0.0,0.0,0.0,0.0,0.0,0.0,0.0,2.9011,3.4005,4.0635,4.3589,4.4291,4.2753,4.2874,4.3996,4.6289,4.5776,4.4409,4.3679,4.3497,4.2194,3.7276,0.0,0.0,0.0,2.419,2.419,2.419,2.419,0.0,2.6852,3.1862,3.6065,3.7661,3.9392,0.0,4.5182,4.5586,4.5586,0.0,4.5586,4.5586,4.5586,4.5586,4.5586,4.5586,4.5586,4.5586,4.5586,4.5586,4.5586,4.5586,4.5586,4.5586,4.5603,4.5832,4.6053,4.6308,4.6308,4.6308,4.6308,4.6308,4.6308,4.6308,4.6308,4.6308,4.6308,4.6308,4.6308,4.6308,4.6308,4.6308,4.6308,0.0,0.0,0.0,0.0,0.0,0.0,0.0,0.0,0.9891,0.9894,0.985,0.9654,0.9251,0.8988,0.0,0.0,0.0,0.0,0.0,0.0,0.0,0.0,0.0,0.0,0.0,0.0,0.0,0.0,0.0,0.0,0.0,0.0,0.0,0.0,0.0,0.0,0.0,0.0,0.0,0.0,0.0,0.0,0.0,0.0,0.0,0.0,0.0,0.0,0.0,0.0,2.4268,2.9652,3.9082,4.3673,4.5586,4.5586,4.4594,4.3804,4.5223,4.5586,4.5323,4.4233,4.3943,4.1987,3.4475,2.8338,0.0,2.419,2.3976,2.3873,2.4151,0.0,2.419,0.0,2.92,3.314,3.3288,3.745,4.1758,0.0,4.5586,0.0,4.5586,4.5586,0.0,4.5586,4.5586,4.5586,4.5586,4.5586,4.5586,4.5586,4.6297,4.6336,4.5605,4.5586,4.5586,4.5586,4.5586,4.5856,4.6308,4.6308,4.6308,4.6308,4.6308,4.6308,4.6308,4.6308,4.6308,4.6308,4.6308,4.6308,4.6308,4.6308,4.6308,4.6308,0.0,0.0,0.0,0.0,0.0,0.0,0.0,0.0,0.9953,1.0149,0.9993,0.9796,0.9587,0.9216,0.0,0.0,0.0,0.0,0.0,0.0,0.0,0.0,0.0,0.0,0.0,0.0,0.0,0.0,0.0,0.0,0.0,0.0,0.0,0.0,0.0,0.0,0.0,0.0,0.0,0.0,0.0,0.0,0.0,0.0,0.0,0.0,0.0,0.0,0.0,0.0,0.0,2.1525,2.8371,3.7468,4.5586,4.5586,0.0,0.0,4.5223,4.5586,4.5568,4.5438,4.54,4.2603,3.189,0.0,2.419,2.419,2.3283,2.2833,2.3994,2.419,0.0,0.0,0.0,2.5473,2.6143,3.4468,4.1758,4.5182,0.0,0.0,4.5586,4.5586,4.5586,4.5586,4.5586,4.5586,4.5586,4.5586,4.5586,4.5586,4.8606,4.874,4.5624,4.5586,4.5586,4.5586,4.5586,4.5856,4.6308,4.6308,4.6308,4.6308,4.6308,4.6308,0.0,4.6308,4.6308,4.6308,4.6308,4.6308,4.6308,4.6308,4.6308,4.6308,0.0,0.0,0.0,0.0,0.0,0.0,0.0,1.0084,1.0108,1.0188,1.012,0.9981,0.9748,0.951,0.0,0.0,0.0,0.0,0.0,0.0,0.0,0.0,0.0,0.0,0.0,0.0,0.0,0.0,0.0,0.0,0.0,0.0,0.0,0.0,0.0,0.0,0.0,0.0,0.0,0.0,0.0,0.0,0.0,0.0,0.0,0.0,0.0,0.0,0.0,0.0,0.0,0.0,2.2354,2.6204,0.0,0.0,4.302,4.4881,4.5457,4.5586,4.5586,4.5586,4.5586,4.2679,3.1545,0.0,2.419,2.419,2.3792,2.3602,2.4112,2.419,2.419,0.0,0.0,0.0,2.5192,3.2352,3.9508,4.4951,4.5586,0.0,0.0,0.0,4.5586,4.5586,4.5586,4.5586,4.5586,4.5586,4.6528,4.8586,4.999,4.9048,4.5624,4.5586,4.5586,4.5603,4.589,4.6123,4.6367,4.8437,4.8242,4.6308,4.6308,4.6308,0.0,4.6308,4.6308,4.6308,4.6308,4.6308,4.6308,4.6308,4.6308,4.6308,0.0,0.0,0.0,0.0,0.0,0.0,1.0146,1.0169,1.0192,1.0172,1.0142,1.0059,0.9824,0.9651,0.9375,0.8974,0.0,0.0,0.0,0.0,0.0,0.0,0.0,0.0,0.0,0.0,0.0,0.0,0.0,0.0,0.0,0.0,0.9113,0.894,0.0,0.0,0.0,0.0,0.0,0.0,0.0,0.0,0.0,0.0,0.0,0.0,0.0,0.0,0.0,0.0,0.0,0.0,0.0,0.0,0.0,0.0,3.9176,4.4297,4.5316,4.5586,4.5586,4.5586,4.4836,4.1203,0.0,0.0,2.3914,2.2942,2.274,2.3052,2.4025,2.419,2.419,0.0,0.0,2.4459,2.5192,3.0321,3.5757,0.0,0.0,4.5586,0.0,4.5586,4.5586,4.5586,4.5586,4.6028,4.7048,4.7105,4.8202,5.0606,4.9721,4.8509,4.7105,4.7105,4.6586,4.5603,4.6084,4.6308,4.6387,4.8789,4.8574,4.6308,4.6308,4.6308,0.0,4.6308,4.6308,4.6308,4.6308,4.6308,4.6308,4.6308,4.6308,4.6308,0.0,0.0,0.0,0.0,0.0,0.0,0.0,1.0208,1.0182,1.0103,1.0037,0.995,0.9817,0.9567,0.9376,0.9294,0.0,0.0,0.0,0.0,0.0,0.0,0.0,0.0,0.0,0.0,0.0,0.0,0.0,0.0,0.0,0.0,0.0,0.0,0.0,0.0,0.0,0.0,0.0,0.0,0.0,0.0,0.0,0.0,0.0,0.0,0.0,0.0,0.0,0.0,0.0,0.0,0.0,0.0,0.0,0.0,3.2609,4.1277,4.4682,4.5586,4.5586,4.5586,4.3047,3.7696,0.0,2.4226,2.3272,2.0005,1.9344,2.0335,2.3602,2.419,2.419,2.419,0.0,0.0,2.5192,2.8264,3.0475,0.0,0.0,4.5586,4.5586,4.5586,4.5586,4.5586,4.5586,0.0,5.0471,5.0644,5.0644,5.0702,4.7413,4.7259,5.0606,5.0644,4.8952,4.5603,4.6084,4.6308,4.6308,4.6348,4.6328,4.6308,4.6308,4.6308,0.0,4.6308,4.6308,4.6308,4.6308,4.6308,4.6308,4.6308,4.6308,4.6308,0.0,0.0,0.0,0.0,0.0,0.0,0.0,0.0,1.0101,0.9983,0.9817,0.967,0.9538,0.9241,0.9081,0.9149,0.0,0.0,0.0,0.0,0.0,0.0,0.0,0.0,0.0,0.0,0.0,0.0,0.0,0.0,0.0,0.0,0.0,0.0,0.0,0.0,0.0,0.0,0.0,0.0,0.0,0.0,0.0,0.0,0.0,0.0,0.0,0.0,0.0,0.0,0.0,0.0,0.0,0.0,0.0,0.0,0.0,0.0,3.9296,4.3816,4.5028,4.2701,3.9585,3.4351,2.3914,2.1181,2.0556,1.951,2.1088,2.296,2.4006,2.419,2.419,2.419,2.419,0.0,0.0,0.0,0.0,3.011,3.5315,4.0527,0.0,0.0,4.5586,4.5586,4.5586,4.7086,5.051,5.0702,5.0702,5.0702,4.7375,4.6105,4.7201,4.7201,4.6663,4.5603,4.6084,4.6308,4.6308,4.6308,4.6308,4.6308,4.6308,4.6308,4.6308,4.6308,4.6308,4.6308,4.6308,4.6308,4.6308,4.6308,4.6308,4.6308,0.0,0.0,0.0,0.0,0.0,0.0,0.0,0.0,0.9912,0.9796,0.9588,0.9444,0.9438,0.9201,0.9099,0.9228,0.0,0.0,0.0,0.0,0.0,0.0,0.0,0.0,0.0,0.0,0.0,0.0,0.0,0.0,0.0,0.0,0.0,0.0,0.0,0.0,0.0,0.0,0.0,0.0,0.0,0.0,1.2267,0.0,0.0,0.0,0.0,0.0,0.0,0.0,0.0,0.0,0.0,0.0,0.0,0.0,2.0098,2.2139,0.0,3.443,3.5545,3.341,3.1314,0.0,2.1754,1.9778,1.9305,1.9305,2.1914,2.419,2.419,2.419,2.419,2.419,2.419,0.0,0.0,0.0,0.0,3.543,0.0,0.0,0.0,4.5703,4.5586,4.5586,4.5764,4.672,4.8663,4.8779,4.8779,4.8779,4.7952,4.6894,4.5605,4.5586,4.5586,4.5603,4.6084,4.6308,4.6308,4.6308,4.6308,4.6308,4.6308,4.6308,0.0,4.6308,4.6308,4.6308,4.6308,4.6308,4.6308,4.6308,4.6308,4.6308,0.0,0.0,0.0,0.0,0.0,0.0,0.0,0.0,0.0,0.0,0.0,0.9263,0.943,0.9358,0.0,0.0,0.0,0.0,0.0,0.0,0.0,0.0,0.0,0.0,0.0,0.0,0.0,0.9367,0.9607,0.9784,0.991,0.0,0.0,0.0,0.0,0.0,0.0,0.0,0.0,0.0,0.0,0.0,0.0,0.0,0.0,0.0,0.0,0.0,0.0,0.0,0.0,0.0,0.0,0.0,0.0,0.0,0.0,0.0,0.0,2.0269,2.0312,2.0312,0.0,0.0,2.0233,1.9743,0.0,1.9305,2.1914,2.419,2.419,2.419,2.419,2.419,2.419,2.5256,0.0,3.0319,0.0,0.0,4.6034,0.0,4.6308,4.5911,4.5648,4.5648,4.6047,4.6099,4.5677,4.564,4.5624,4.5586,4.8682,4.8798,4.5624,4.5586,4.5586,4.5603,4.604,4.6246,4.6246,4.6289,4.6308,0.0,4.6308,4.6308,4.6308,4.6308,4.6308,4.6308,4.6308,4.6308,4.6308,4.6308,4.6308,4.6308,0.0,0.0,0.0,0.0,0.0,0.0,0.0,0.0,0.0,0.0,0.0,0.9106,0.9054,0.9099,0.0,0.0,0.0,0.0,0.0,0.0,0.0,0.0,0.0,0.0,0.0,0.0,0.0,0.9022,0.9679,1.003,1.0052,0.9875,0.0,0.0,0.0,0.0,0.0,0.0,0.0,0.0,0.0,0.0,0.0,0.0,0.0,0.0,1.5189,1.5189,0.0,0.0,0.0,0.0,0.0,0.0,0.0,0.0,1.8133,2.0199,1.967,0.0,2.0312,2.0312,2.0312,2.0162,0.0,1.9405,1.9305,0.0,0.0,2.419,2.419,2.419,2.419,2.419,2.419,2.4651,2.5994,0.0,0.0,4.5802,4.6223,4.6308,4.6308,4.6198,4.6132,4.6132,4.6245,4.6247,4.6136,4.6145,4.5969,4.5605,4.6374,4.6394,4.5605,4.5586,4.5586,4.5603,4.5718,4.5764,4.5777,4.6132,4.6308,4.6308,4.6308,4.6308,4.6308,4.6308,4.6308,4.6308,4.6308,4.6308,4.6308,4.6308,4.6308,4.6308,0.0,0.0,0.0,0.0,0.0,0.0,0.0,0.0,0.0,0.0,0.0,0.0,0.0,0.0,0.0,0.0,0.0,0.0,0.0,0.0,0.0,0.0,0.0,0.0,0.0,0.0,0.0,0.0,0.0,1.0094,0.0,0.0,0.0,0.0,0.0,0.0,0.0,0.0,0.0,0.0,1.0094,0.0,0.0,0.0,0.0,0.0,1.5189,1.5189,0.0,1.4957,1.4708,1.4488,0.0,0.0,0.0,0.0,1.8386,1.9832,1.9767,2.0021,2.0312,2.0312,2.0312,2.0208,1.9843,0.0,0.0,0.0,0.0,2.1951,2.1951,2.318,2.419,2.419,2.419,0.0,0.0,0.0,4.3945,4.5763,4.324,4.2641,0.0,4.6308,4.6308,4.6308,4.6308,4.6308,4.6308,4.6306,4.6181,4.5928,4.593,4.5815,4.5586,4.5586,4.5586,4.5586,4.5586,4.5586,4.562,4.6089,4.6308,4.6308,4.6308,4.6308,4.6308,4.6308,4.6308,4.6308,4.6308,4.6308,4.6308,4.6308,4.6308,4.6308,0.0,0.0,0.0,0.0,0.0,0.0,0.0,0.0,0.0,0.0,0.0,0.0,0.0,0.0,0.0,0.0,0.0,0.0,0.0,0.0,0.0,0.0,0.0,0.0,0.0,0.0,0.0,0.0,0.0,0.0,0.0,0.0,0.9412,0.0,0.0,0.0,0.0,0.0,0.0,0.0,1.0094,0.0,0.0,0.0,0.0,0.0,0.0,0.0,0.0,1.4627,1.4488,1.4488,1.4488,0.0,0.0,0.0,0.0,0.0,1.9982,2.0312,2.0427,2.0946,2.1062,2.0927,0.0,0.0,0.0,0.0,0.0,0.0,0.0,2.2318,0.0,0.0,0.0,0.0,3.3824,3.7623,4.0796,4.3701,3.9912,0.0,4.5597,4.6267,4.6308,4.6308,4.6308,4.6308,4.6308,4.6308,4.6299,4.6308,4.6298,4.6101,4.5719,4.5624,4.5586,4.5586,4.5586,4.5586,4.562,4.6013,4.6223,4.6308,0.0,0.0,4.6308,4.6308,4.6308,4.6308,4.6308,4.6308,4.6308,4.6308,4.6308,4.6308,0.0,0.0,0.0,0.0,0.0,0.0,0.0,0.0,0.0,0.0,0.0,0.0,0.0,0.0,0.0,0.0,0.0,0.0,0.0,0.0,0.0,0.0,0.0,0.0,0.0,0.0,0.0,0.0,0.0,0.0,1.3758,1.0991,0.9412,0.0,0.0,0.0,0.9698,0.9698,0.985,1.0094,1.0094,0.0,0.0,0.0,0.0,0.0,0.0,0.0,0.0,1.4522,1.4488,1.4488,1.4488,0.0,0.0,0.0,0.0,0.0,1.9388,2.0312,2.0977,2.3822,2.4534,2.3784,0.0,0.0,0.0,0.0,0.0,0.0,0.0,0.0,2.4409,0.0,0.0,2.9851,0.0,0.0,3.6469,3.6988,0.0,4.4498,4.5607,4.6078,4.6308,4.6308,4.6308,4.6308,4.6308,4.6308,4.6307,4.6293,4.6293,4.6259,4.6198,4.5796,4.5586,4.5586,4.5586,4.5586,4.5603,4.5677,4.591,4.6308,0.0,4.6308,4.6308,4.6308,4.6308,4.6308,4.6308,4.6308,4.6308,4.6308,4.6308,4.6308,0.0,0.0,0.0,0.0,0.0,0.0,0.0,0.0,0.0,0.0,0.0,0.0,0.0,0.0,0.0,0.0,0.0,0.0,0.0,0.0,0.0,0.0,0.0,0.0,0.0,0.0,0.0,0.0,0.0,1.2058,1.1875,1.0094,0.9129,0.8925,0.0,0.0,0.9713,0.985,0.9977,1.0264,0.0,0.0,0.0,0.0,0.0,0.0,0.0,0.0,0.0,0.0,1.4488,1.4488,1.4488,0.0,0.0,0.0,0.0,0.0,1.9269,2.0021,2.1092,2.4457,2.3938,2.2188,2.0658,0.0,0.0,0.0,0.0,0.0,0.0,0.0,2.5525,2.7712,0.0,3.5853,3.5853,3.8796,4.095,0.0,0.0,4.5586,4.5586,4.6027,4.6308,4.6308,4.6308,4.6308,4.6308,4.6308,4.6308,4.6308,4.6308,4.6176,4.5911,4.5719,4.5586,4.5586,4.5586,4.5586,4.5586,4.5586,4.5859,4.6308,0.0,4.6308,4.6308,4.6308,4.6308,4.6308,4.6308,4.6308,4.6308,4.6308,4.6308,4.6308,0.0,0.0,0.0,0.0,0.0,0.0,0.0,0.0,0.0,0.0,0.0,0.0,0.0,0.0,0.0,0.0,0.0,0.0,0.0,0.0,0.0,0.0,0.0,0.0,0.0,0.0,1.2357,1.0094,1.0044,0.9831,0.9508,0.9088,0.8891,0.0,0.0,0.0,0.9728,0.9977,1.0556,1.1466,0.0,0.0,0.0,0.0,0.0,0.0,0.0,0.0,0.0,0.0,0.0,0.0,0.0,0.0,0.0,1.5398,1.7362,1.9305,1.9305,1.9201,1.99,2.3284,0.0,2.1457,2.1457,0.0,0.0,0.0,0.0,0.0,0.0,2.661,0.0,3.2218,3.7123,4.0777,4.1566,4.3951,4.5586,4.5586,4.5586,4.5586,4.5586,4.593,4.6132,4.6132,4.6245,4.6308,4.6308,4.6308,4.6308,4.6308,4.6308,4.6137,4.5757,4.5643,4.5586,4.5586,4.5586,4.5586,4.5586,4.5586,4.5796,4.6136,4.6247,4.6308,4.6308,4.6308,4.6308,4.6308,4.6308,4.6308,4.6308,4.6308,4.6308,4.6308,0.0,0.0,0.0,0.0,0.0,0.0,0.0,0.0,0.0,0.0,0.0,0.0,0.0,0.0,0.0,0.0,0.0,0.0,0.0,0.0,0.0,0.0,0.0,0.0,0.0,1.0171,1.0304,1.0094,0.985,0.9473,0.8957,0.8913,0.8891,0.8902,0.0,0.0,0.9728,0.9977,1.1921,1.4596,1.1794,0.0,0.0,0.0,0.0,0.0,0.0,0.0,0.0,0.0,0.0,0.0,0.0,0.0,1.5086,1.8078,1.9106,1.9305,1.9305,1.7463,1.6381,1.9812,0.0,0.0,2.4937,0.0,0.0,0.0,0.0,0.0,0.0,3.0494,3.5872,3.9219,4.0181,4.1604,4.4778,0.0,4.5586,4.5586,4.5586,4.5586,4.5586,4.5635,4.5648,4.5648,4.6047,4.6308,4.6308,4.6308,4.6308,4.6308,4.6308,4.6279,4.6256,4.5815,4.5586,4.5586,4.5586,4.5586,4.5586,4.5586,4.562,4.5677,4.6104,4.6308,4.6308,4.6308,4.6308,4.6308,4.6308,4.6308,4.6308,4.6308,4.6308,4.6308,0.0,0.0,0.0,0.0,0.0,0.0,0.0,0.0,0.0,0.0,0.0,0.0,0.0,0.0,0.0,0.0,0.0,0.0,0.0,0.0,0.0,0.0,0.0,1.0057,0.9941,1.0052,1.0094,1.0094,0.9825,0.9421,0.8891,0.8891,0.0,0.0,0.0,0.0,0.9728,0.9977,1.2075,1.5102,1.3946,1.3477,0.0,0.0,0.0,0.0,0.0,0.0,0.0,0.0,1.4488,1.5068,0.0,0.0,1.5141,1.8353,1.9305,1.9305,1.9305,1.8851,1.8677,1.9985,0.0,0.0,0.0,0.0,0.0,0.0,0.0,0.0,0.0,0.0,3.0968,3.6488,3.9142,4.095,4.2239,4.4259,4.5586,4.5586,4.5586,4.4759,4.2624,4.2431,4.3297,4.5432,4.3782,4.2818,4.3105,4.3125,4.3125,4.3125,4.3125,4.415,4.6287,4.4012,4.2846,4.2885,4.4722,4.5586,4.5586,4.5586,4.5586,4.5618,4.6094,4.6308,4.6308,4.6308,4.6308,4.6308,4.6308,4.6308,4.6308,4.6308,4.6308,4.6308,0.0,0.0,0.0,0.0,0.0,0.0,0.0,0.0,0.0,0.0,0.0,0.0,0.0,0.0,0.0,0.0,0.0,0.0,0.0,0.0,0.0,0.0,0.0,1.0094,1.0094,1.0094,1.0094,1.0094,0.9825,0.9517,0.9139,0.0,0.0,0.0,0.0,0.0,0.0,1.113,1.2457,1.3756,1.4933,1.5391,0.0,0.0,0.0,0.0,0.0,0.0,0.0,0.0,0.0,0.0,0.0,0.0,0.0,0.0,1.9305,1.935,1.9553,1.9941,2.0562,0.0,0.0,0.0,0.0,0.0,0.0,0.0,0.0,0.0,0.0,0.0,0.0,0.0,3.743,3.9277,4.0335,4.2508,4.3989,4.3989,4.3989,4.3066,4.0719,4.0489,4.147,4.3797,4.1816,4.071,4.1171,4.1191,4.1191,4.1191,4.1191,4.2324,4.4668,4.2366,4.1195,4.1214,4.3245,4.4781,4.582,4.582,4.582,4.5836,4.6163,4.6308,4.6308,4.6308,4.6308,4.6308,4.6308,4.6308,4.6308,4.6308,4.6308,4.6308,0.0,0.0,0.0,0.0,0.0,0.0,0.0,0.0,0.0,0.0,0.0,0.0,0.0,0.0,0.0,0.0,0.0,0.0,0.0,0.0,0.0,0.0,0.0,1.0113,1.0152,1.0113,1.009,1.009,0.9819,0.9698,0.9691,0.9149,0.0,0.0,0.0,0.0,0.0,0.0,1.3314,1.0645,1.4043,1.5391,1.5391,0.0,0.0,0.0,0.0,0.0,0.0,0.0,1.4524,0.0,0.0,0.0,0.0,0.0,1.9305,1.9448,2.0126,2.0312,2.11,0.0,0.0,0.0,0.0,0.0,0.0,0.0,0.0,0.0,0.0,0.0,0.0,3.4936,3.5545,3.6719,4.0027,4.0489,4.0489,4.0489,4.0489,4.0489,4.0489,4.0489,4.0489,4.045,4.0469,4.071,4.1171,4.1191,4.1191,4.1191,4.1191,4.1191,4.1191,4.1191,4.1191,4.1191,4.1191,4.2969,4.625,4.625,4.625,4.625,4.625,4.625,4.625,4.6289,4.6308,4.6308,4.6308,4.6308,4.6308,4.6308,4.6308,4.6308,0.0,0.0,0.0,0.0,0.0,0.0,0.0,0.0,0.0,0.0,0.0,0.0,0.0,0.0,0.0,0.0,0.0,0.0,0.0,0.0,0.0,0.0,0.0,0.0,0.0,0.0,0.9825,0.9825,0.9739,0.9698,0.0,0.0,0.0,1.3086,0.0,0.0,0.0,0.0,1.4694,1.3984,1.498,1.5391,1.5391,0.0,0.0,0.0,0.0,0.0,0.0,0.0,0.0,0.0,0.0,0.0,0.0,1.9014,1.9305,1.9448,2.0126,2.0312,0.0,0.0,0.0,0.0,0.0,0.0,0.0,0.0,0.0,0.0,0.0,0.0,0.0,3.5353,3.7488,3.9354,4.0354,4.0489,4.0489,4.0489,4.0489,4.0489,4.0489,4.0489,3.9508,3.7161,3.9161,4.071,4.1171,4.1191,4.1191,4.1191,4.1191,4.1191,4.1191,4.1191,4.1191,4.1191,4.1191,4.1738,4.2715,4.2715,4.2715,4.2715,4.2715,4.2715,4.2891,4.5312,4.6308,4.6308,4.6308,4.6308,4.6308,4.6308,4.6308,4.6308,0.0,0.0,0.0,0.0,0.0,0.0,0.0,0.0,0.0,0.0,0.0,0.0,0.0,0.0,0.0,0.0,0.0,0.0,0.0,0.0,0.0,0.0,0.0,0.0,0.0,1.3017,1.1885,0.0,0.0,0.0,0.0,0.0,0.0,1.4499,0.0,1.4942,0.0,0.0,1.5283,1.5391,1.5391,1.5391,1.5391,0.0,0.0,0.0,0.0,0.0,0.0,0.0,0.0,0.0,0.0,0.0,0.0,1.9305,1.9305,1.9448,2.0126,0.0,0.0,0.0,0.0,0.0,0.0,0.0,0.0,0.0,0.0,0.0,3.011,3.2705,0.0,3.5493,3.7199,3.8969,4.0296,4.0489,4.0489,4.0489,3.9315,3.8507,3.8507,3.8507,3.768,3.5661,3.7373,3.8703,3.9101,3.9121,3.9766,4.1152,3.9863,3.9121,3.9121,3.9121,3.9121,3.9121,3.9121,3.9121,3.918,4.0566,4.1191,4.1191,4.1191,4.1191,4.1367,4.3418,4.5078,4.6308,4.6308,4.6308,4.6308,4.6308,4.6308,4.6308,0.0,0.0,0.0,0.0,0.0,0.0,0.0,0.0,0.0,0.0,0.0,0.0,0.0,0.0,0.0,0.0,0.0,0.0,0.0,0.0,0.0,0.0,0.0,0.0,0.0,0.0,0.0,0.0,0.0,0.0,0.0,0.0,1.4522,1.4581,0.0,1.5189,0.0,1.5189,1.5283,1.5391,1.5391,1.5391,1.5391,1.5391,0.0,0.0,0.0,0.0,0.0,0.0,0.0,0.0,0.0,0.0,1.9305,1.9305,1.935,1.9513,2.0125,0.0,0.0,0.0,0.0,0.0,0.0,0.0,0.0,0.0,0.0,3.5493,3.5493,3.5493,3.5493,3.5493,3.5493,3.6565,3.9623,4.0068,4.0082,4.0042,3.7353,3.5493,3.5493,3.5493,3.5515,3.5528,3.556,3.5687,3.5976,3.5996,3.7441,4.0625,3.7656,3.5996,3.5996,3.5996,3.5996,3.5996,3.5996,3.5996,3.6113,3.9609,4.1191,4.1191,4.1191,4.1191,4.1191,4.1191,4.3027,4.584,4.584,4.584,4.5879,4.6191,4.6308,4.6308,0.0,0.0,0.0,0.0,0.0,0.0,0.0,0.0,0.0,0.0,0.0,0.0,0.0,0.0,0.0,0.0,0.0,0.0,0.0,0.0,0.0,0.0,0.0,0.0,0.0,0.0,0.0,0.0,0.0,0.0,0.0,0.0,0.0,1.5047,0.0,1.5189,1.5189,1.5189,1.5283,1.5391,1.5391,1.5391,1.5391,1.5391,1.5309,0.0,0.0,0.0,0.0,0.0,0.0,0.0,1.9305,1.9305,1.9305,1.9305,1.967,2.0126,0.0,2.2207,0.0,0.0,0.0,0.0,0.0,0.0,0.0,0.0,3.5493,3.5493,3.5493,3.5493,3.5493,3.5493,3.5493,3.5757,3.6469,3.6795,3.6871,3.6614,3.5949,3.5493,3.5493,3.5493,3.5618,3.5864,3.5893,3.5925,3.5996,3.5996,3.6348,3.709,3.6387,3.5996,3.5996,3.5996,3.5996,3.5996,3.5996,3.5996,3.6113,3.9609,4.1191,4.1191,4.1191,4.1191,4.1191,4.1191,4.1621,4.2305,4.2305,4.2305,4.2617,4.5312,4.6308,4.6308,0.0,0.0,0.0,0.0,0.0,0.0,0.0,0.0,0.0,0.0,0.0,0.0,0.0,0.0,0.0,0.0,0.0,0.0,0.0,0.0,0.0,0.0,0.0,0.0,0.0,0.0,0.0,0.0,0.0,0.0,0.0,0.0,0.0,1.5189,0.0,1.5189,1.5189,1.5189,1.5283,1.5391,1.5391,1.5391,1.5391,1.5391,1.6336,1.7631,1.7631,0.0,0.0,0.0,0.0,0.0,0.0,0.0,1.9346,1.9682,2.0021,2.0312,0.0,0.0,0.0,0.0,0.0,0.0,0.0,0.0,0.0,0.0,3.4359,3.4993,3.3359,3.3051,3.3051,3.3051,3.4416,3.5493,3.5493,3.4392,3.3425,3.3099,3.3051,3.3686,3.5339,3.566,3.5081,3.3432,3.3463,3.4277,3.5918,3.5996,3.5996,3.5996,3.5996,3.5996,3.5996,3.5996,3.5996,3.5996,3.5996,3.5996,3.6113,3.9609,4.1191,4.1191,4.1191,4.1191,4.1191,4.1191,4.1191,4.1191,4.1191,4.1191,4.1426,4.3203,4.3867,4.3867,0.0,0.0,0.0,0.0,0.0,0.0,0.0,0.0,0.0,0.0,0.0,0.0,0.0,0.0,0.0,0.0,0.0,0.0,0.0,0.0,0.0,0.0,0.0,0.0,0.0,0.0,0.0,0.0,0.0,0.0,0.0,0.0,0.0,1.5189,0.0,0.0,1.5189,1.5189,1.5261,1.5364,1.5364,1.5714,1.6257,1.6257,1.7933,2.0312,2.0312,1.9877,1.932,1.9434,0.0,0.0,0.0,0.0,1.958,2.0144,2.0312,2.0312,0.0,0.0,0.0,0.0,0.0,0.0,0.0,0.0,0.0,2.9583,3.2244,3.3763,3.0917,3.0398,3.0398,3.0398,3.2763,3.4609,3.4609,3.2428,3.0728,3.0519,3.0492,3.1593,3.4442,3.4959,3.3824,3.0723,3.0735,3.2129,3.4961,3.5117,3.5117,3.5117,3.5117,3.5117,3.5117,3.5703,3.5996,3.5996,3.5996,3.5996,3.6094,3.8984,4.0293,4.0293,4.0293,4.0644,4.1191,4.1191,4.1191,4.1191,4.1191,4.1191,4.1191,4.1191,4.1191,4.1191,0.0,0.0,0.0,0.0,0.0,0.0,0.0,0.0,0.0,0.0,0.0,0.0,0.0,0.0,0.0,0.0,0.0,0.0,1.027,0.0,0.0,1.5254,1.2129,0.0,0.0,0.0,0.0,0.0,0.0,0.0,0.0,0.0,0.0,1.5189,0.0,0.0,0.0,1.5189,1.5218,1.5231,1.5231,1.7001,1.9657,1.9657,1.9918,2.0312,2.0312,1.9877,1.939,1.9981,2.0162,0.0,0.0,0.0,2.0171,2.0269,2.0312,2.0312,0.0,0.0,0.0,0.0,0.0,0.0,0.0,0.0,2.6041,0.0,2.8687,3.0936,3.0475,3.0398,3.0398,3.0398,3.0782,3.1071,3.1071,3.0728,3.056,3.0804,3.0831,3.1007,3.1474,3.1541,3.1366,3.0871,3.0878,3.1094,3.1562,3.1582,3.1582,3.1582,3.1582,3.1582,3.1582,3.4512,3.5996,3.5996,3.5996,3.5996,3.6016,3.6484,3.6699,3.6699,3.6699,3.8418,4.1191,4.1191,4.1191,4.1191,4.1191,4.1191,4.1191,4.1191,4.1191,4.1191,0.0,0.0,0.0,0.0,0.0,0.0,0.0,0.0,0.0,0.0,0.0,0.0,0.0,0.0,0.0,1.2988,1.1406,1.0293,1.0293,1.209,1.3828,1.5332,1.3965,1.3867,0.0,0.0,0.0,0.0,0.0,0.0,0.0,1.7684,1.6631,0.0,0.0,0.0,0.0,0.0,1.8061,1.8061,1.8061,1.8965,2.0312,2.0312,2.0312,2.0312,2.0312,2.1311,2.2714,2.2997,2.1842,2.0312,2.0312,0.0,0.0,0.0,2.0312,0.0,0.0,0.0,0.0,0.0,0.0,0.0,0.0,0.0,2.5303,2.5303,2.6495,2.7533,2.7533,2.7533,2.8168,3.009,2.8783,2.7533,2.7533,2.7533,2.7644,2.7947,2.9707,3.0898,3.0898,3.0898,3.0898,3.0898,3.0898,3.0898,3.0898,3.0898,3.0898,3.0898,3.0898,3.0898,3.0898,3.2383,3.3144,3.3144,3.3144,3.3144,3.3144,3.3144,3.4199,3.5996,3.5996,3.6875,3.8281,3.8281,3.8281,3.8261,3.8077,3.8127,3.8281,3.8281,3.8281,3.8574,0.0,0.0,0.0,0.0,0.0,0.0,0.0,0.0,0.0,0.0,0.0,0.0,0.0,0.0,0.0,0.0,1.3066,1.1602,1.1602,1.3984,1.5391,1.5391,1.5391,1.5391,1.5391,0.0,0.0,0.0,0.0,0.0,2.0545,1.7838,1.6547,0.0,1.6497,0.0,0.0,0.0,0.0,0.0,2.0312,2.0312,2.0312,2.0312,2.0831,2.1457,2.0619,2.2438,2.5303,2.5303,2.3072,2.0312,2.0312,2.0312,0.0,0.0,0.0,0.0,0.0,0.0,0.0,0.0,0.0,0.0,0.0,0.0,2.5395,0.0,2.5341,2.5303,2.5303,2.5303,2.613,2.8687,2.6956,2.5303,2.5303,2.5303,2.5398,2.5662,2.8008,2.9922,3.0801,3.0898,3.0898,3.0898,3.0898,3.0898,3.0898,3.0898,3.0898,3.0898,3.0898,3.0898,3.0898,3.0898,3.0898,3.0898,3.0898,3.0856,3.0771,3.0771,3.2157,3.4583,3.4666,3.4707,3.4765,3.5547,3.5864,3.5849,3.5596,3.5702,3.5996,3.5996,3.5996,3.6367,0.0,0.0,0.0,0.0,0.0,0.0,0.0,0.0,0.0,0.0,0.0,0.0,0.0,1.5137,1.5215,1.5371,1.5234,1.5137,1.5137,1.5293,1.5391,1.5391,1.5391,0.0,1.5391,0.0,0.0,0.0,0.0,0.0,2.0605,2.0402,2.0225,2.0042,2.0042,2.0139,2.0312,0.0,0.0,0.0,0.0,0.0,0.0,0.0,2.2265,0.0,0.0,2.2438,2.5303,2.5303,2.3072,2.0312,2.0312,2.0312,2.0927,0.0,0.0,0.0,0.0,0.0,0.0,0.0,0.0,0.0,0.0,0.0,0.0,2.5683,2.5486,2.5303,2.5303,2.5303,2.536,2.5534,2.5418,2.5303,2.5303,2.5303,2.5398,2.5662,2.5859,2.7266,3.0586,3.0898,3.0898,3.0898,3.0898,3.0898,3.0898,3.0898,3.0898,3.0898,3.0898,3.0898,3.0898,3.0898,3.0898,3.0898,3.0898,3.0728,3.0436,3.0436,3.0513,3.07,3.1038,3.1172,3.1385,3.4323,3.5541,3.5509,3.552,3.5702,3.5996,3.5996,3.5996,3.6035,0.0,0.0,0.0,0.0,0.0,0.0,0.0,0.0,0.0,0.0,0.0,0.0,0.0,1.5391,1.5391,1.5391,1.5391,1.5391,1.5391,1.5391,1.5391,1.5391,1.5391,1.5362,1.5276,0.0,0.0,0.0,0.0,1.9335,1.7305,1.9558,2.0558,2.0485,2.0369,2.0312,2.0312,2.0312,0.0,0.0,0.0,0.0,0.0,0.0,0.0,0.0,0.0,0.0,2.5303,2.5303,2.4495,2.3515,2.3515,2.3515,2.3322,2.2361,0.0,0.0,0.0,0.0,0.0,0.0,0.0,0.0,0.0,2.5703,2.5702,2.5704,2.5628,2.5563,2.5563,2.5428,2.5303,2.5303,2.5303,2.5303,2.5303,2.5447,2.5595,2.5683,2.5703,2.6191,2.7441,2.959,3.0898,3.0898,2.8828,2.7559,2.7559,2.7559,2.7559,2.7559,2.7559,2.7559,2.7559,2.7559,2.8589,3.0583,3.0583,3.0519,3.0398,3.0398,3.0398,3.041,3.0537,3.0583,3.0653,3.1761,3.3513,3.5282,3.3071,3.3774,3.5996,3.5996,3.5996,3.5996,0.0,0.0,0.0,0.0,0.0,0.0,0.0,0.0,0.0,0.0,0.0,0.0,0.0,0.0,1.5391,1.5391,1.5391,1.5391,1.5391,1.5391,1.5391,1.5391,1.5391,1.5908,1.6996,0.0,0.0,0.0,0.0,0.0,0.0,1.9512,2.0607,2.0584,2.0468,2.0366,0.0,0.0,0.0,2.0312,0.0,0.0,2.2366,0.0,0.0,0.0,0.0,0.0,0.0,2.5303,2.5303,2.5303,2.5303,2.5303,2.463,0.0,0.0,0.0,2.1977,0.0,0.0,0.0,0.0,0.0,2.5703,0.0,2.4316,2.5469,2.5694,2.5706,2.5706,2.5551,2.5428,2.5428,2.5428,2.5428,2.5428,2.5593,2.5703,2.5703,2.5703,2.5703,2.5703,2.7793,2.9141,2.9141,2.7012,0.0,2.5703,2.5703,2.5703,2.5703,2.5703,2.5703,2.5703,2.5703,2.7285,3.0398,3.0398,3.0398,3.0398,3.0398,3.0398,3.0398,3.0398,3.0398,3.0398,3.0398,3.1744,3.3667,3.2551,3.3644,3.5836,3.5836,3.5836,3.5836,0.0,0.0,0.0,0.0,0.0,0.0,0.0,0.0,0.0,0.0,0.0,0.0,0.0,0.0,0.0,1.541,1.5488,1.5508,1.541,1.5508,1.5547,1.5547,1.5547,1.7148,2.0527,2.0586,0.0,0.0,0.0,0.0,0.0,0.0,2.0605,0.0,2.0605,2.0486,2.0308,0.0,2.0312,2.0312,0.0,2.2459,2.5703,0.0,0.0,0.0,2.5413,2.5313,0.0,2.5313,0.0,0.0,0.0,0.0,0.0,0.0,0.0,0.0,0.0,0.0,0.0,0.0,0.0,0.0,2.5703,0.0,2.1699,2.5019,2.5703,2.5703,2.5703,2.5703,2.5703,2.5703,2.5703,2.5703,2.5703,2.5703,2.5703,2.5703,2.5703,2.5703,2.5703,2.5703,2.5703,2.5703,2.5703,2.5703,2.5703,2.5703,2.5703,2.5703,2.5703,2.5703,2.5703,2.5703,2.7227,3.0244,3.0244,3.0244,3.0244,3.0244,3.0244,3.0244,3.0244,3.0302,3.0398,3.0398,3.0398,3.0725,3.4051,3.5339,3.5359,3.5455,3.5435,3.5359,0.0,0.0,0.0,0.0,0.0,0.0,0.0,0.0,0.0,0.0,0.0,0.0,0.0,0.0,0.0,1.5625,1.7715,1.8086,1.5566,1.7754,1.916,1.916,1.916,1.9609,2.0586,2.0457,0.0,0.0,0.0,0.0,0.0,0.0,0.0,0.0,2.0533,2.0563,2.0516,2.0366,0.0,0.0,2.0457,2.2609,0.0,0.0,0.0,0.0,0.0,2.5595,2.5595,0.0,2.5595,2.5554,0.0,0.0,0.0,0.0,0.0,0.0,2.5303,0.0,0.0,0.0,0.0,0.0,0.0,0.0,2.4551,2.5508,2.5703,2.5703,2.5703,2.5703,2.5703,2.5703,2.5703,2.5703,2.5703,2.5703,2.5703,2.5703,2.5703,2.5703,2.5703,2.5703,2.5703,0.0,2.5703,2.5703,2.5703,2.5703,2.5703,2.5703,2.5703,2.5703,2.5703,2.5703,2.6045,2.6706,2.6706,2.6706,2.6706,2.6706,2.6706,2.6706,2.6706,2.811,3.0398,3.0398,3.0398,3.0494,3.1436,3.1802,3.2109,3.4589,3.3916,3.2148,0.0,0.0,0.0,0.0,0.0,0.0,0.0,0.0,0.0,0.0,0.0,0.0,0.0,0.0,0.0,1.7754,1.9434,1.9746,1.7695,1.9473,2.0605,2.0605,2.0605,2.0605,2.0605,2.039,2.0312,0.0,0.0,0.0,0.0,0.0,0.0,0.0,0.0,0.0,0.0,0.0,0.0,0.0,2.2102,0.0,0.0,2.5703,2.5703,0.0,0.0,0.0,2.5703,2.5703,2.5703,0.0,0.0,0.0,0.0,0.0,0.0,0.0,0.0,0.0,0.0,0.0,0.0,0.0,2.5503,2.5629,2.5703,0.0,2.5703,2.5703,2.5703,2.5703,2.5703,2.5703,2.5703,2.5703,2.5703,2.5703,2.5703,2.5703,2.5703,2.5703,2.5703,2.5703,2.5703,2.5703,2.5703,2.5703,2.5703,2.5703,2.5703,2.5703,2.5703,2.5703,2.5703,2.5595,2.5453,2.5303,2.5303,2.5303,2.5303,2.5303,2.5303,2.5303,2.5303,2.6418,2.8379,2.9802,3.0398,3.0398,3.0398,3.0398,3.0629,3.2628,3.2109,3.0879,0.0,0.0,0.0,0.0,0.0,0.0,0.0,0.0,0.0,0.0,0.0,0.0,0.0,0.0,0.0,0.0,2.0605,2.0605,2.0605,2.0605,2.0605,2.0605,2.0605,2.0605,2.0605,2.039,2.0312,2.0312,0.0,0.0,0.0,0.0,0.0,0.0,0.0,0.0,0.0,0.0,0.0,2.1426,2.4473,2.5703,0.0,0.0,2.5703,2.5703,2.5703,2.5703,2.5703,2.5703,2.5703,0.0,0.0,0.0,0.0,0.0,2.5312,0.0,0.0,0.0,0.0,0.0,0.0,0.0,2.5329,2.5535,2.5703,2.5703,2.5703,2.5703,2.5703,2.5703,2.5703,2.5703,2.5703,2.5703,2.5703,2.5703,2.5703,2.5703,2.5703,2.5703,2.5703,2.5703,2.5703,2.5703,2.5703,2.5703,2.5703,2.5703,2.5703,2.5703,2.5703,2.5703,2.5703,2.5428,2.5303,2.5303,2.5303,2.5303,2.5303,2.5303,2.5303,2.5303,2.5303,2.5303,2.5534,2.8571,3.0052,3.0398,3.0398,3.0398,3.0398,3.0398,3.0398,3.0821,1.4694,0.0,0.0,0.0,0.0,0.0,0.0,0.0,0.0,0.0,0.0,0.0,0.0,0.0,0.0,0.0,2.0605,2.0605,2.0605,2.0605,2.0605,2.0605,2.0605,2.0605,2.0605,2.039,2.0312,2.0312,0.0,0.0,0.0,0.0,0.0,0.0,0.0,0.0,0.0,0.0,0.0,2.4766,2.543,0.0,2.5703,2.5703,2.5703,2.5703,2.5703,2.5703,2.5703,2.5703,2.5703,2.5683,0.0,0.0,0.0,2.5629,0.0,0.0,0.0,0.0,0.0,0.0,0.0,0.0,2.5629,2.566,2.5703,2.5703,2.5703,2.5703,2.5703,2.5703,2.5703,2.5703,2.5703,2.5703,2.5703,2.5703,2.5703,2.5703,2.5703,2.5703,2.5703,2.5703,2.5703,2.5703,2.5703,2.5703,2.5703,2.5703,2.5703,2.5703,2.5703,2.5703,2.5703,2.5428,2.5303,2.5303,2.5303,2.5303,2.5303,2.5303,2.5303,2.5303,2.5303,2.5303,2.5341,2.6014,2.7918,3.0398,3.0398,3.0398,3.0398,3.0398,3.0398,3.0494,1.4885,0.0,0.0,0.0,0.0,0.0,0.0,0.0,0.0,0.0,0.0,0.0,0.0,0.0,0.0,0.0,0.0,0.0,0.0,0.0,2.0605,2.0605,2.0605,2.0558,2.0449,2.0347,2.0312,2.0312,0.0,0.0,0.0,0.0,0.0,0.0,0.0,0.0,0.0,0.0,2.4135,2.5703,2.5703,0.0,2.5703,2.5703,2.5703,2.5703,2.5703,2.5703,2.5683,2.5547,2.5595,0.0,2.5703,2.5703,2.5703,0.0,2.5603,2.5508,0.0,0.0,0.0,2.5703,0.0,0.0,0.0,2.5703,2.5703,2.5703,2.5703,2.5703,2.5703,2.5703,2.5703,2.5703,2.5703,2.5703,2.5703,2.5703,2.5703,2.5703,2.5703,2.5703,2.5703,2.5703,2.5703,2.5703,2.5703,2.5703,2.5703,2.5703,2.5703,2.5703,2.5564,2.5508,2.5508,2.5371,2.5303,2.5303,2.5303,2.5303,2.5303,2.5303,2.5303,2.5303,2.5303,2.5303,2.5303,2.5303,2.6303,2.786,2.786,2.8898,3.0398,3.0398,3.0398,3.0398,1.5246,0.0,0.0,0.0,0.0,0.0,0.0,0.0,0.0,0.0,0.0,0.0,0.0,0.0,0.0,0.0,0.0,0.0,0.0,0.0,0.0,2.1582,2.0957,2.0839,2.1333,2.1282,2.1265,2.1265,0.0,0.0,0.0,0.0,0.0,0.0,0.0,0.0,0.0,0.0,0.0,2.5703,0.0,2.5703,2.5703,2.5703,2.5703,2.5703,2.5703,2.5661,2.5595,2.5379,2.5441,2.5633,2.5683,2.5703,0.0,0.0,0.0,0.0,0.0,0.0,0.0,0.0,0.0,2.5703,0.0,0.0,0.0,2.5703,0.0,0.0,0.0,0.0,0.0,0.0,0.0,0.0,0.0,2.5703,0.0,2.5703,2.5703,2.5703,2.5703,2.5703,2.5703,2.5703,2.5703,2.5682,2.5689,2.5689,2.5673,2.568,2.5441,2.5303,2.5303,2.5303,2.5303,2.5303,2.5303,2.5303,2.5303,2.5303,2.5303,2.5303,2.5303,2.5303,2.5303,2.5303,2.5303,2.5303,2.5303,2.6995,2.9417,2.9417,2.9417,2.9514,1.5377,1.5388,0.0,0.0,0.0,0.0,0.0,0.0,0.0,0.0,0.0,0.0,0.0,0.0,0.0,0.0,0.0,0.0,2.5703,0.0,0.0,2.5117,2.2227,2.2011,2.5017,2.4852,2.4726,2.4726,0.0,0.0,0.0,0.0,0.0,0.0,2.5293,0.0,0.0,0.0,2.5703,0.0,2.5703,2.5703,0.0,2.5703,2.5703,2.5703,2.5703,2.5547,2.5348,0.0,2.5322,2.5383,0.0,2.5703,2.5703,2.5703,0.0,0.0,0.0,0.0,0.0,0.0,2.5703,0.0,0.0,0.0,2.5703,2.5703,0.0,0.0,0.0,0.0,0.0,0.0,0.0,0.0,2.5703,2.5703,2.5703,2.5703,2.5703,2.5703,2.5703,2.5703,2.5703,2.5703,2.5703,2.5676,2.5614,2.5608,2.5599,2.5604,2.5406,2.5303,2.5303,2.5303,2.5303,2.5303,2.5303,2.5303,2.5303,2.5303,2.5303,2.5303,2.5303,2.5303,2.5303,2.5303,2.5303,2.5303,2.5303,2.5534,2.588,2.588,2.588,2.6303,1.541,1.5391,0.0,0.0,0.0,0.0,0.0,0.0,0.0,0.0,0.0,0.0,0.0,0.0,0.0,0.0,0.0,2.5539,0.0,0.0,0.0,0.0,2.4336,2.4238,2.5664,2.5434,2.5303,2.5303,2.5303,0.0,0.0,0.0,0.0,0.0,2.5703,0.0,1.1281,0.0,2.5703,0.0,0.0,0.0,0.0,2.5703,2.5703,2.5683,2.5526,2.5398,2.5303,0.0,2.5303,0.0,0.0,0.0,0.0,2.5659,0.0,0.0,0.0,0.0,0.0,0.0,0.0,0.0,2.5703,0.0,2.5703,0.0,0.0,0.0,0.0,0.0,0.0,0.0,2.5703,0.0,0.0,0.0,2.5703,0.0,0.0,0.0,2.5703,2.5703,2.5703,2.5703,2.5652,2.5628,2.5592,2.5563,2.5533,2.5538,2.5465,2.539,2.5303,2.5303,2.5303,2.5303,2.5303,2.5303,2.5303,2.5303,2.5303,2.5303,2.5303,2.5303,2.5303,2.5303,2.5303,2.5303,2.5303,2.5303,2.5303,2.5303,2.6553,2.8456,1.6641,0.0,0.0,0.0,0.0,0.0,0.0,0.0,0.0,0.0,0.0,0.0,2.5303,2.5303,0.0,0.0,2.5303,2.5376,0.0,0.0,2.5703,2.5703,2.5703,2.5703,2.5703,2.5517,2.536,2.5303,0.0,0.0,0.0,0.0,0.0,0.0,0.0,1.875,0.7871,0.0,2.5703,2.5703,2.5707,2.5654,2.5595,2.5595,2.5634,2.5661,2.5398,2.5303,2.5303,2.5303,2.5303,0.0,2.8225,2.7302,2.5346,0.0,0.0,0.0,2.5703,0.0,0.0,0.0,0.0,0.0,0.0,0.0,0.0,0.0,0.0,0.0,0.0,0.0,0.0,0.0,0.0,2.5703,0.0,2.5673,0.0,0.0,0.0,0.0,0.0,2.5703,2.5703,2.5703,2.5647,2.5582,2.5563,2.5505,2.5466,2.5447,2.5447,2.5409,2.5303,2.5303,2.5303,2.5303,2.5303,2.5303,2.5303,2.5341,2.5322,2.5332,2.5878,2.5846,2.5413,2.5413,2.5959,2.6834,2.6834,2.6775,2.6687,2.6687,2.8264,3.0398,1.9766,1.7715,0.0,0.0,0.0,0.0,0.0,0.0,0.0,0.0,0.0,0.0,0.0,0.0,0.0,0.0,0.0,2.5293,2.5313,0.0,2.5703,2.5703,2.5703,2.5703,0.0,2.5683,2.5558,2.5303,0.0,0.0,0.0,0.0,0.0,0.0,0.0,2.5391,2.4902,2.5469,2.5703,2.5702,2.5705,2.5553,2.5313,0.0,2.5477,2.5661,2.5398,0.0,0.0,2.5303,2.5303,0.0,0.0,0.0,0.0,0.0,0.0,0.0,0.0,0.0,0.0,2.5703,0.0,0.0,0.0,0.0,2.5703,0.0,0.0,0.0,0.0,0.0,0.0,0.0,0.0,0.0,0.0,0.0,0.0,0.0,0.0,0.0,0.0,2.5703,2.5703,2.5703,2.5647,2.5563,2.5505,2.5447,2.537,2.5303,2.5303,2.5303,2.5303,2.5303,2.5303,2.5303,2.5303,2.5303,2.5303,2.5428,2.5428,2.5418,2.7365,2.7246,2.5683,2.5683,2.7671,3.0723,3.0723,3.0518,3.0244,3.0244,3.0302,3.0398,0.0,0.0,0.0,0.0,0.0,0.0,0.0,2.4572,0.0,0.0,2.5303,0.0,0.0,2.5303,2.5303,0.0,0.0,2.5303,2.5303,2.5376,0.0,2.5683,2.5703,2.5703,0.0,0.0,0.0,0.0,0.0,0.0,0.0,0.0,0.0,0.0,0.0,2.5703,0.0,0.0,0.0,0.0,0.0,2.539,2.5303,0.0,2.5354,2.5415,2.533,2.5303,0.0,2.5303,2.5303,2.5303,2.5303,2.5303,2.5524,2.6671,2.628,2.5454,0.0,0.0,2.5482,2.5659,0.0,0.0,0.0,0.0,0.0,0.0,0.0,0.0,0.0,0.0,0.0,0.0,0.0,0.0,0.0,0.0,0.0,0.0,0.0,0.0,0.0,0.0,2.5654,2.5703,2.555,2.5486,2.5505,2.539,2.5322,2.5303,2.5303,2.5303,2.5303,2.5303,2.5303,2.5303,2.5303,2.5341,2.5428,2.539,2.5437,2.574,2.8727,2.9687,2.9141,2.9141,2.9838,3.0898,3.0898,3.084,3.0698,3.0487,3.0398,3.0355,2.0605,0.0,0.0,0.0,0.0,0.0,0.0,0.0,0.0,0.0,2.5072,0.0,2.6494,0.0,2.6757,0.0,2.5995,2.5303,2.5303,2.5303,0.0,2.5683,2.5605,2.5601,0.0,0.0,0.0,0.0,0.0,2.5434,0.0,0.0,0.0,0.0,0.0,2.5703,2.5703,2.5703,2.5703,0.0,0.0,2.5303,0.0,0.0,2.5303,2.5303,0.0,2.5303,2.5303,2.5303,2.5303,2.5303,2.5303,2.5303,2.5514,2.6655,2.6186,2.5322,2.5466,2.5409,0.0,2.5503,2.5633,0.0,2.5703,0.0,2.5703,0.0,0.0,0.0,0.0,0.0,0.0,0.0,0.0,0.0,0.0,2.5582,0.0,0.0,0.0,0.0,0.0,2.5622,2.5615,2.5668,2.5476,2.5369,0.0,2.5248,2.5184,2.5184,2.5184,2.5224,2.5303,2.5303,2.5303,2.5341,2.5341,2.539,2.5505,2.5447,2.5449,2.5717,2.8453,3.0137,3.0898,3.0898,3.0898,3.0898,3.0898,3.0896,3.0864,3.0525,3.0398,3.0343,2.0819,0.0,0.0,0.0,2.3169,0.0,0.0,0.0,2.5293,0.0,2.4636,2.5364,2.8425,2.8755,2.9114,3.0024,2.7157,2.5303,2.5303,2.5303,0.0,0.0,2.5434,2.5427,2.5662,0.0,0.0,0.0,0.0,0.0,0.0,0.0,0.0,0.0,2.5703,0.0,2.5703,2.5703,2.5683,2.566,2.5406,2.5303,2.5303,2.5303,2.5303,2.5303,2.5303,2.5303,2.5303,2.5303,2.5303,2.5303,2.5303,2.5303,2.5303,2.5303,2.5303,2.5322,2.5466,2.5409,2.5322,2.5322,2.5508,0.0,0.0,0.0,2.5918,0.0,0.0,0.0,0.0,0.0,0.0,0.0,0.0,0.0,0.0,0.0,2.5678,0.0,2.5531,2.5531,2.5592,2.5601,2.5596,2.5601,2.5409,2.5236,0.0,2.5019,2.4979,2.4998,2.4998,2.5088,2.5274,2.5303,2.5322,2.5409,2.5418,2.5438,2.5505,2.5563,2.5515,2.5474,2.6944,2.8809,3.084,3.0879,3.0898,3.0898,3.0898,3.0896,3.0864,3.0525,3.0398,3.0355,2.3855,2.4239,2.4082,0.0,2.4726,2.5303,0.0,0.0,0.0,0.0,2.4321,2.4502,2.5346,2.5438,2.552,2.5778,2.5495,0.0,0.0,0.0,0.0,2.5398,2.5339,2.533,2.5406,2.5406,2.5371,2.5303,0.0,0.0,2.5413,0.0,0.0,0.0,0.0,0.0,2.5703,2.5703,2.5573,2.5398,2.534,2.5303,2.5303,0.0,2.5303,2.5303,2.5303,2.5303,2.5303,2.5303,2.5303,2.5303,2.5303,2.5303,2.5303,2.5303,2.5303,2.5303,2.5341,2.5466,2.5598,2.5598,2.5508,2.5449,0.0,0.0,0.0,0.0,0.0,0.0,0.0,0.0,0.0,0.0,0.0,0.0,0.0,0.0,0.0,2.5611,2.5589,2.557,2.5534,2.5562,2.558,2.5534,2.539,0.0,0.0,0.0,2.4746,2.4855,2.4949,2.5022,2.5088,2.5224,2.5322,2.5409,2.5503,2.5561,2.5563,2.5543,2.5904,2.6696,2.9002,2.998,2.998,3.0625,3.0898,3.0898,3.0898,3.0896,3.0864,3.0525,3.0398,3.0355,2.3353,0.0,0.0,2.5303,0.0,0.0,2.5303,2.5303,0.0,2.6202,2.63,0.0,2.63,2.63,2.5731,2.4318,2.4572,0.0,2.5274,0.0,0.0,2.5303,2.5303,2.5303,2.5303,2.5303,0.0,2.5303,0.0,0.0,2.5322,0.0,0.0,0.0,0.0,2.5703,2.5683,2.5567,2.5434,2.5303,2.5303,2.5303,0.0,2.5303,2.5303,2.5303,2.5303,2.5303,2.5303,2.5303,2.5303,2.5303,2.5303,2.5303,2.5312,2.5441,2.5418,2.5399,2.5463,2.5508,2.555,2.5667,2.6614,2.7561,2.7716,2.9399,3.0332,0.0,2.8359,2.8301,0.0,0.0,0.0,0.0,0.0,0.0,0.0,0.0,0.0,0.0,2.563,2.5594,2.5584,2.5532,2.5486,2.5428,2.5341,0.0,0.0,0.0,2.4674,2.4804,2.478,2.4818,2.4917,2.5077,2.5194,2.5274,2.5454,2.56,2.5657,2.6129,2.6789,2.7695,2.9922,3.0625,3.0215,3.0703,3.0898,3.0898,3.0732,3.0684,3.0675,3.0626,3.0537,3.0355,2.1845,0.0,0.0,0.0,0.0,0.0,0.0,2.5788,0.0,2.8154,0.0,2.8517,2.8938,2.8994,2.7857,2.5071,0.0,2.4476,2.5107,2.516,2.5192,2.5303,2.5303,2.5303,2.5303,2.5303,2.5303,0.0,0.0,0.0,0.0,0.0,0.0,0.0,0.0,0.0,0.0,2.5453,2.533,2.5303,2.5303,2.5303,2.5303,2.5303,2.5243,2.5171,2.5264,2.5303,2.5303,2.5303,2.5303,2.5303,2.5303,2.5303,2.5357,2.559,2.5584,2.5547,2.562,2.5482,2.5457,2.614,2.8371,3.0398,3.0398,3.0639,3.0853,3.0898,3.0019,2.9121,0.0,0.0,0.0,0.0,0.0,0.0,0.0,0.0,0.0,0.0,0.0,0.0,2.5671,2.5514,2.539,2.5303,2.5303,0.0,0.0,0.0,2.4643,2.476,2.4559,2.4543,2.476,2.4898,2.5011,2.5091,2.5382,2.5576,2.5742,2.6953,2.7793,2.8398,3.0137,3.0898,3.0898,3.0898,3.0897,3.0804,3.0036,3.0013,3.0447,3.0724,3.0645,3.0355,2.4912,0.0,0.0,0.0,0.0,2.5996,2.8031,2.8336,2.7555,2.5329,2.5034,2.6062,2.87,2.8994,2.8755,2.8227,2.5731,0.0,0.0,0.0,0.0,2.5264,2.5303,2.5303,2.5303,2.5303,2.5303,0.0,0.0,0.0,0.0,0.0,0.0,0.0,0.0,0.0,2.5703,2.5658,0.0,2.5303,2.5303,2.5303,2.5303,2.5303,2.4917,2.4476,2.5084,2.5303,2.5303,2.5303,2.5303,2.5303,2.5303,2.5303,2.5303,2.5354,2.5511,2.5619,2.5428,2.5339,2.5995,2.8871,2.9975,3.0398,3.0398,3.0449,3.0568,3.0834,3.0137,2.9648,3.0312,0.0,0.0,0.0,0.0,0.0,0.0,0.0,0.0,0.0,0.0,2.5525,2.553,2.5495,2.5428,2.5303,0.0,0.0,0.0,0.0,2.4584,0.0,2.4246,0.0,0.0,0.0,2.4977,2.5091,2.5371,2.5565,2.5762,2.7402,2.8203,2.8398,3.0137,3.0898,3.0898,3.0898,3.0829,3.0434,2.7392,2.7918,3.0421,3.0462,3.046,3.0343,0.0,0.0,0.0,0.0,0.0,0.0,0.0,2.8994,2.8425,2.6906,2.6704,2.7291,2.8828,2.8994,2.8315,2.6667,2.5089,2.419,2.419,2.419,2.4357,2.4708,2.5096,2.5303,2.5303,2.5303,2.5303,2.5303,0.0,0.0,0.0,0.0,0.0,0.0,0.0,2.5703,0.0,0.0,0.0,2.5303,2.5303,2.5303,2.5303,2.5303,2.5072,2.4766,2.4737,2.4723,2.4723,2.4723,2.4723,2.4795,2.5182,2.6514,2.7937,2.7937,2.8045,2.8106,2.7991,2.6655,2.6124,2.954,3.0398,3.0398,3.0398,3.0448,3.0527,3.062,3.042,3.0176,3.0039,2.8848,0.0,0.0,0.0,0.0,0.0,0.0,2.6788,0.0,0.0,0.0,2.539,2.5409,0.0,0.0,0.0,0.0,0.0,0.0,2.4485,0.0,0.0,0.0,2.3826,0.0,2.4624,2.4992,2.5196,2.54,2.5644,2.7148,2.8164,2.8848,3.0273,3.0898,3.0898,3.0898,3.0804,3.0371,2.7698,2.8198,3.0398,3.0398,3.0398,3.0367,0.0,2.5303,0.0,0.0,2.5621,2.6752,2.8706,2.8994,2.8994,2.8994,2.8994,2.8994,2.8994,2.8388,2.6961,2.441,2.419,2.419,2.419,2.419,2.419,2.419,2.4752,2.5072,2.5072,2.5233,2.5303,0.0,0.0,0.0,0.0,0.0,0.0,0.0,0.0,0.0,0.0,0.0,2.5303,2.5303,2.5303,2.5222,2.5084,2.5243,2.5192,2.5076,2.5171,2.5217,2.5126,2.4428,2.419,2.4468,2.5913,2.8225,3.0398,3.0398,3.0398,3.0398,3.0398,2.8437,2.7029,2.9733,3.0398,3.0398,3.0398,3.0487,3.0535,3.0416,3.0623,3.0485,2.9355,2.8963,0.0,0.0,0.0,0.0,0.0,0.0,2.747,0.0,0.0,0.0,2.537,0.0,0.0,0.0,0.0,0.0,2.5,0.0,0.0,0.0,0.0,2.3351,2.3076,0.0,2.4118,2.4757,2.5029,2.5212,2.5449,2.7305,2.8535,2.9258,3.041,3.0898,3.0898,3.0898,3.0794,3.0482,2.9002,2.9236,3.0359,3.0129,3.0349,3.0694,0.0,0.0,0.0,0.0,0.0,2.8721,2.8962,2.8994,2.8994,2.8994,2.8994,2.8994,2.8994,2.641,2.452,2.4226,2.419,2.419,2.419,2.419,2.419,2.419,2.4266,2.4284,2.4284,2.4956,2.5303,0.0,0.0,2.5456,0.0,0.0,0.0,0.0,0.0,0.0,0.0,2.5303,2.5303,2.5303,2.5303,2.4891,2.4393,2.5049,2.4877,2.469,2.7533,2.8535,2.8117,2.5181,2.419,2.4875,2.8708,3.0129,3.0398,3.0398,3.0398,3.0398,3.0398,3.0167,3.0002,3.0321,3.0398,3.0398,3.0398,3.0398,3.042,3.0393,3.0521,3.031,2.9217,2.9773,2.9371,0.0,0.0,0.0,0.0,0.0,2.7624,2.8537,0.0,0.0,2.5572,2.5408,0.0,0.0,2.5486,0.0,0.0,0.0,0.0,2.4273,2.3312,2.2762,2.2667,2.2952,2.3484,2.4284,2.4955,2.5181,2.5078,2.8867,3.0078,2.9258,3.041,3.0898,3.0898,3.0898,3.082,3.0653,3.0296,3.0263,3.0263,2.9244,3.0176,3.1676,0.0,0.0,0.0,0.0,0.0,0.0,0.0,2.8994,2.8297,2.6374,2.7805,2.8264,2.6337,2.4979,2.419,2.419,2.419,2.419,2.419,2.419,2.419,2.419,2.419,2.419,2.419,2.4493,2.485,0.0,0.0,0.0,0.0,0.0,0.0,0.0,0.0,2.7326,2.5303,2.5303,2.5303,2.5303,2.5303,2.4864,2.4228,2.4543,2.4459,2.4612,2.7838,2.8994,2.8792,2.7512,2.709,2.7483,2.9693,3.0398,3.0398,3.0398,3.0398,3.0398,3.0398,3.0398,3.0273,2.9696,2.9992,3.0398,3.0398,3.0564,3.0713,3.0701,3.0565,3.0414,3.0188,2.9868,2.9273,2.8211,0.0,0.0,0.0,0.0,0.0,2.6967,0.0,2.5565,2.5426,2.5345,0.0,0.0,0.0,0.0,0.0,0.0,0.0,2.3839,0.0,2.2686,2.1995,2.2319,2.2683,2.3145,2.4154,2.5361,2.6754,2.8203,2.9362,3.0254,3.0703,3.0898,3.0898,3.0898,3.082,3.0624,2.981,2.9883,3.041,2.9898,3.0586,3.1655,2.6393,0.0,2.8994,0.0,2.8994,2.8994,2.8994,2.8187,2.6778,2.4502,2.619,2.6722,2.4447,2.419,2.419,2.419,2.419,2.419,2.419,2.419,2.419,2.419,2.419,0.0,2.419,2.419,2.4556,2.5303,2.5387,0.0,0.0,0.0,0.0,0.0,3.0501,2.9052,2.6726,2.5726,2.5303,2.537,2.6104,2.5515,2.419,2.419,2.4795,2.5915,2.8191,2.8994,2.8994,2.8994,2.8994,2.9115,2.9782,3.0188,3.0494,3.0987,3.0794,3.0367,3.0286,3.0128,2.9832,2.9181,2.9713,3.0402,3.0408,3.0592,3.055,2.9817,3.0064,3.0437,3.0527,2.9512,2.8783,2.9099,0.0,0.0,0.0,2.8482,0.0,2.718,2.6232,2.5544,2.5324,2.5297,0.0,0.0,0.0,0.0,0.0,0.0,0.0,0.0,0.0,0.0,2.143,2.1786,2.2001,2.2139,2.3601,2.5338,2.7298,2.7924,2.9191,3.0898,3.0858,3.0837,3.0843,3.0875,3.084,3.0663,2.9756,2.9857,3.0544,3.0717,3.1155,3.1728,2.8962,2.898,2.8994,2.8994,2.8994,2.8994,2.8994,2.63,2.4245,2.4208,2.4226,2.4245,2.419,2.419,2.419,2.419,2.419,2.419,2.419,2.419,2.419,0.0,0.0,2.419,2.419,2.419,2.4556,2.5303,0.0,0.0,3.0898,0.0,3.0685,3.041,3.041,3.0379,3.011,2.6726,2.5303,2.5521,2.7977,2.7053,2.419,2.419,2.6172,2.8938,2.8975,2.8994,2.8994,2.8994,2.8994,2.9017,2.8998,2.9661,3.0737,3.2372,3.1698,3.0343,3.0003,2.9457,2.8998,2.9017,2.9713,3.0397,3.0405,3.0387,2.9715,2.7276,2.8693,3.0259,2.9803,2.873,2.788,2.7836,0.0,0.0,0.0,2.8636,0.0,3.066,2.7673,2.5447,2.5313,2.5293,0.0,0.0,0.0,0.0,0.0,0.0,0.0,2.3804,2.3088,0.0,2.1023,2.1399,2.1579,2.1526,2.3547,2.4962,2.5921,2.8622,3.0253,3.0898,3.0765,3.0691,3.0717,3.0843,3.0898,3.0878,3.0657,3.0582,3.0698,3.1429,3.1874,3.2146,2.8994,2.8994,2.8994,2.8994,2.8994,2.8264,2.6062,2.485,2.419,2.419,2.419,2.419,2.419,2.419,2.419,0.0,2.419,2.419,0.0,2.419,2.419,2.419,2.419,2.419,2.419,2.419,2.4556,2.5303,0.0,0.0,0.0,3.0675,3.062,3.0732,3.0732,3.0607,3.0321,2.9244,2.8783,2.8783,2.8947,2.8388,2.7475,2.7475,2.6759,2.5884,2.7017,2.7422,2.7422,2.7422,2.8801,3.0142,2.8084,2.8787,3.0605,3.1704,3.2894,3.3333,3.0891,3.0107,2.9964,2.9964,3.0358,3.0909,3.1603,3.1352,3.0233,2.7823,2.648,2.6473,2.8803,2.8902,2.8588,2.839,2.9064,0.0,2.957,0.0,2.9267,3.053,2.8662,2.7063,2.6514,2.6467,0.0,0.0,0.0,0.0,0.0,0.0,0.0,0.0,2.3617,0.0,2.1753,2.2165,2.232,2.2335,2.3984,2.5649,2.7289,2.9317,3.0374,3.0552,3.0507,3.0544,3.0633,3.0674,3.0698,3.0676,3.0563,3.0565,3.0717,3.1641,3.2256,3.2768,2.7438,2.72,2.72,2.72,2.72,2.6521,2.4502,2.419,2.419,2.419,2.419,2.419,2.419,2.419,0.0,2.419,2.419,2.419,2.419,2.419,2.419,2.419,2.419,2.419,2.419,2.419,0.0,2.4891,2.8933,3.0898,3.0898,3.0697,3.0706,3.0898,3.0768,3.0605,3.0398,3.0398,3.0398,3.033,2.9377,2.8994,2.8994,2.8994,2.7769,2.6056,2.6532,2.6691,2.6573,2.5803,2.6769,2.8257,2.7844,2.89,3.049,3.1449,3.354,3.4887,3.2068,3.1054,3.0659,3.0245,3.0338,3.0852,3.2142,3.1787,3.0503,2.8099,2.7009,2.7178,2.9321,2.9818,2.9834,2.9625,2.957,2.9644,2.9921,0.0,2.9745,0.0,0.0,0.0,0.0,2.7458,2.6939,0.0,0.0,0.0,0.0,0.0,2.5096,2.4979,2.4431,2.3756,2.2977,2.3231,2.3283,2.3191,2.4821,2.6559,2.8368,2.9577,3.0228,3.0398,3.0398,3.0448,3.0525,3.0544,3.0558,3.0563,3.0535,3.0564,3.0756,3.1968,3.2622,3.3056,2.4795,2.419,2.419,0.0,2.419,2.419,2.419,2.419,2.419,2.419,2.419,2.417,2.4074,2.4074,2.4094,2.419,0.0,0.0,2.419,2.419,2.419,2.419,2.419,2.419,2.419,2.419,2.4229,2.4301,2.8487,3.0547,3.0547,3.0547,3.0664,3.0898,3.0576,3.0428,3.0428,3.0402,3.0398,3.033,2.9377,2.8994,2.8994,2.8994,2.8994,2.8791,2.7238,2.6607,2.6193,2.4251,2.3595,2.4262,2.8068,2.9599,3.0264,3.1536,3.3571,3.5008,3.3366,3.2087,3.1012,3.0056,2.9934,3.0488,3.209,3.1868,3.0681,2.8459,3.0073,3.1737,3.1322,3.1484,3.1596,3.1381,3.0283,2.955,2.972,3.0224,3.0538,0.0,0.0,0.0,2.8835,2.8285,2.7651,0.0,0.0,0.0,0.0,0.0,2.5497,2.5764,2.5485,2.5026,2.4484,2.4522,2.4411,2.4214,2.6017,2.7633,2.9067,2.9514,2.9958,3.0398,3.0398,3.0398,3.0398,3.0467,3.0487,3.0506,3.0564,3.066,3.0929,3.2237,3.2872,3.321,0.0,0.0,2.419,2.419,2.419,2.419,2.419,2.419,2.419,2.419,2.419,2.3813,2.2859,2.2756,2.314,2.4132,2.419,2.419,2.419,2.419,2.419,2.419,2.419,2.419,2.419,2.419,2.4582,2.5342,2.6417,2.6934,2.6934,2.6934,2.8359,3.0898,3.0827,3.0774,3.0765,3.051,3.0398,3.033,2.9377,2.8994,2.8994,2.8994,2.8994,2.8791,2.7238,2.5693,2.4266,2.3752,2.3595,2.4103,2.7094,2.8528,2.9387,3.0718,3.2547,3.4191,3.4055,3.1825,2.9804,3.081,3.1331,3.1662,3.2043,3.2355,3.2477,3.2038,3.4461,3.6288,3.5018,3.4602,3.4064,3.2916,3.1867,3.0975,3.0331,3.0361,3.0445,0.0,3.0398,3.0037,2.9094,2.8901,2.8478,0.0,0.0,2.8039,2.7932,2.7602,2.7422,2.744,2.6782,2.6051,2.5243,2.5594,2.616,2.6958,2.7412,2.8311,2.9533,2.9763,3.0047,3.0398,3.0398,3.0398,3.0398,3.0417,3.0417,3.0417,3.0448,3.1237,3.2237,3.1333,3.2641,3.4861,2.419,2.419,2.419,2.419,2.419,2.419,2.419,2.419,2.419,2.419,2.419,2.371,2.2432,2.231,2.2561,2.3265,2.3855,2.419,2.419,2.419,2.419,2.419,2.419,2.419,2.419,2.419,2.462,2.5522,2.5636,2.5634,2.5541,2.7128,2.886,3.0661,3.0661,3.0762,3.0898,3.0711,3.0535,3.033,2.9377,2.8583,2.8029,2.8725,2.8994,2.8905,2.8057,2.6572,2.4879,2.3906,2.3595,2.3822,2.5113,2.6321,2.7501,2.8835,3.1131,3.3352,3.3954,3.2156,3.03,3.1065,3.1453,3.1658,3.1803,3.2401,3.3201,3.4063,3.553,3.6764,3.7133,3.6305,3.5137,3.38,3.2686,3.1789,3.1248,3.0771,3.0477,3.0406,3.0398,3.0217,2.9737,2.9698,2.9352,2.8506,2.8912,0.0,2.8715,2.9016,2.8913,2.8299,2.7804,2.7218,2.6587,2.6679,2.7098,2.7897,2.8047,2.8664,2.9607,2.9813,3.0075,3.0398,3.0398,3.0641,3.0987,3.0987,3.1218,3.1525,3.1263,3.2064,3.3256,3.2872,3.3897,3.5417,2.419,2.419,2.419,2.419,2.419,2.419,2.419,2.419,2.419,2.419,2.419,2.371,2.2432,2.231,2.231,2.231,2.3468,2.419,2.419,2.419,2.419,2.419,2.419,2.419,2.419,2.419,2.4556,2.5303,2.6091,2.6337,2.613,2.9033,3.0398,3.0398,3.0398,3.0591,3.0898,3.0853,3.0696,3.0381,2.9399,2.821,2.7192,2.8489,2.8994,2.9017,2.9163,2.8121,2.6385,2.4292,2.3595,2.3465,2.2828,2.3708,2.5303,2.6644,2.9275,3.1984,3.2931,3.22,3.1097,3.0792,3.0902,3.1194,3.1636,3.2385,3.3441,3.5036,3.5163,3.5635,3.7773,3.6977,3.5554,3.4156,3.2916,3.2079,3.1866,0.0,3.0528,3.0417,3.0398,3.0398,3.0398,3.0398,3.0102,2.9352,3.0044,3.024,2.9615,3.0176,3.0001,2.8893,2.8695,2.8433,2.8057,2.7735,2.7805,2.8251,2.8541,2.9119,2.9926,3.0141,3.0428,3.0794,3.0794,3.1198,3.1891,3.1891,3.2275,3.2852,3.2506,3.2936,3.3936,3.507,3.5493,3.5383,2.419,2.419,2.419,2.419,2.419,2.419,2.419,2.419,2.419,2.419,2.419,2.371,2.2432,2.231,2.231,2.231,2.3468,2.419,2.419,2.419,2.419,2.419,2.419,2.419,2.419,2.419,2.4556,2.5303,2.8515,2.9924,2.961,3.0148,3.0398,3.0398,3.0398,3.0591,3.0878,3.0605,3.0603,3.0729,2.9489,2.8858,2.8676,2.8905,2.8994,2.9093,2.9896,2.8684,2.6385,2.4292,2.3595,2.3201,2.0989,2.1741,2.3702,2.5029,2.6803,2.8654,3.0049,3.0307,3.0065,2.9539,3.0222,3.1244,3.2145,3.2899,3.3743,3.4961,3.581,3.6266,3.617,3.6614,3.6234,3.3953,3.2608,3.1577,3.0772,0.0,3.0414,3.0405,3.0398,3.0398,3.0398,3.0398,3.034,3.0217,3.039,3.0471,3.0419,3.0524,3.0423,3.0049,2.9687,2.9286,2.8835,2.8766,2.9127,2.9844,2.9905,3.0574,3.1789,3.1826,3.2086,3.2506,3.2506,3.2583,3.2718,3.2718,3.2795,3.2949,3.3372,3.3628,3.3936,3.507,3.5493,3.5383,2.419,2.419,2.419,2.419,2.419,2.419,2.419,2.419,2.419,2.419,2.419,2.3994,2.3399,2.2703,2.2561,2.3242,2.3236,2.3468,2.4151,2.419,2.419,2.419,2.419,2.419,2.419,2.419,2.4556,2.5303,2.7031,2.8757,3.0359,2.8514,2.8629,3.0398,3.0398,3.0492,3.0626,3.065,3.0642,3.0574,2.9985,2.9456,2.8994,2.8994,2.9295,2.9815,3.0241,2.9326,2.7484,2.4602,2.3595,2.3172,2.0607,2.0514,2.1581,2.2746,2.4718,2.6765,2.7827,2.8131,2.8263,2.8843,2.973,3.0687,3.1554,3.277,3.4025,3.513,3.5415,3.5541,3.5779,3.5249,3.4263,3.2678,3.1834,3.1046,3.0146,3.0769,3.1032,3.027,3.1111,3.1395,3.0487,3.0398,3.059,3.1064,3.0698,3.0698,3.128,3.0831,3.0523,3.0458,2.9828,2.9526,2.9667,2.9399,2.9573,3.0198,3.0428,3.1104,3.2185,3.2185,3.2469,3.2891,3.2891,3.316,3.3603,3.3603,3.3872,3.4334,3.4622,3.4705,3.4782,3.5301,3.5493,3.5432,2.4151,2.3955,2.375,2.375,2.375,2.375,2.375,2.4014,2.4465,2.5217,2.4667,2.4074,2.3792,2.3164,2.3017,2.3707,2.2841,2.2703,2.3689,2.375,2.375,2.375,2.4034,2.419,2.419,2.419,2.4595,2.5391,2.5321,2.6629,2.9148,2.6533,2.6687,2.9244,3.0052,3.0398,3.0425,3.0762,3.0711,3.0398,3.0398,2.9832,2.9021,2.923,2.9782,3.0398,3.0398,2.9799,2.8442,2.4821,2.3595,2.3172,2.0607,1.9798,1.9977,2.0862,2.2958,2.5201,2.6018,2.6347,2.6862,2.8242,2.9383,3.0275,3.0817,3.2311,3.3835,3.4696,3.4511,3.4407,3.5133,3.3853,3.2406,3.1537,0.0,3.0659,3.0,3.0978,3.1497,3.0762,3.1651,3.1965,3.1076,3.0968,3.1256,3.1929,3.1198,3.1056,3.1869,3.102,3.0683,3.1011,3.0124,2.9986,3.0698,3.0161,3.0247,3.1013,3.113,3.1696,3.2653,3.275,3.3006,3.3402,3.348,3.3872,3.4507,3.4507,3.4911,3.5493,3.5493,3.5493,3.5493,3.5493,3.5493,3.546,2.3955,2.3259,2.2432,2.2432,2.2432,2.2432,2.2432,2.3445,2.5273,2.8264,2.6062,2.375,2.2579,2.3422,2.3624,2.2535,2.2349,2.2338,2.2415,2.2432,2.2432,2.2432,2.3558,2.419,2.419,2.419,2.4682,2.5662,2.5421,2.5418,2.5668,2.5418,2.5418,2.5803,2.8994,3.0398,3.0425,3.0762,3.0711,3.0398,3.0398,2.9832,2.9093,2.9977,3.0343,3.0398,3.0398,2.9799,2.8442,2.4821,2.3595,2.3172,2.0607,1.9798,1.9811,1.99,2.1496,2.3537,2.4544,2.5664,2.67,2.7518,2.9156,3.0535,3.0476,3.1623,3.276,3.2966,3.3109,3.3238,3.3365,3.302,3.2336,3.1219,0.0,0.0,3.053,3.0646,3.1211,3.2521,3.1443,3.1153,3.2569,3.2716,3.2743,3.2814,3.2064,3.1691,3.1888,3.108,3.1104,3.2237,3.1242,3.1181,3.2223,3.1448,3.1829,3.3351,3.2694,3.2954,3.4078,3.4363,3.468,3.4947,3.5192,3.5353,3.5411,3.5411,3.5449,3.5493,3.5493,3.5493,3.5493,3.5493,3.5493,3.546,2.2935,2.2642,2.231,2.231,2.231,2.231,2.231,2.2703,2.3463,2.4673,2.3786,2.2833,2.2349,2.273,2.2833,2.2338,2.231,2.231,2.231,2.231,2.231,2.231,2.3513,2.419,2.419,2.4651,2.5157,2.5703,2.5428,2.5303,2.5303,2.5303,2.5303,2.536,2.6649,2.8534,3.0708,3.0611,3.0519,3.0398,3.0398,3.0188,2.9915,3.0273,3.0398,3.0398,3.0398,2.9799,2.8639,2.632,2.4681,2.3172,2.0607,1.8531,1.7296,1.8369,1.9295,2.0876,2.5292,2.6093,2.5914,2.6842,2.7618,2.8685,3.0583,3.0998,3.1062,3.1365,3.1592,3.1858,3.226,3.1501,3.0615,2.9926,0.0,3.0254,3.0009,3.1189,3.2014,3.1808,3.1593,3.1699,3.2335,3.2397,3.2769,3.3641,3.3,3.2839,3.3467,3.268,3.2718,3.3786,3.3096,3.2858,3.314,3.2626,3.2392,3.2476,3.2473,3.2481,3.2464,3.378,3.4252,3.4092,3.4909,3.5239,3.5254,3.5432,3.5493,3.5493,3.5493,3.5383,3.5273,3.5432,3.5383,3.5331,2.231,2.231,2.2123,2.1584,2.1493,2.1691,2.2225,2.231,2.231,2.231,2.231,2.231,2.231,2.231,2.231,2.231,2.231,2.231,2.231,2.231,2.231,2.231,2.314,2.3792,2.419,2.4917,2.5428,2.5703,2.5428,2.5348,2.5441,2.5441,2.5441,2.5441,2.5441,2.741,3.0724,3.0492,3.0398,3.0367,3.0085,3.0128,3.0398,3.0398,3.0398,3.0355,3.0071,2.9551,2.8913,2.8297,2.652,2.4164,2.1749,1.7957,1.4632,1.5841,1.7079,1.917,2.4718,2.6075,2.6075,2.6551,2.7397,2.8425,2.9654,3.0007,3.0092,3.0054,3.0447,3.0915,3.1241,3.0441,2.9638,2.9345,2.9798,3.0192,3.0166,3.1801,3.2789,3.2205,3.2241,3.2527,3.3104,3.3171,3.3577,3.4564,3.3923,3.3782,3.4462,3.4426,3.4601,3.5109,3.5221,3.4934,3.4209,3.3457,3.2873,3.237,3.2209,3.2104,3.2121,3.33,3.3754,3.3708,3.4586,3.4981,3.4999,3.5254,3.532,3.5273,3.5354,3.5207,3.5037,3.5576,3.5484,3.5253,2.2282,2.2282,2.1721,2.0015,1.969,2.0277,2.202,2.2282,2.231,2.231,2.231,2.231,2.231,2.231,2.231,2.231,2.231,2.231,2.231,2.231,2.231,2.231,2.231,2.291,2.417,2.4917,2.5447,2.5742,2.5467,2.5473,2.5742,2.5742,2.5742,2.5742,2.5742,2.7463,3.0398,3.0398,3.0398,3.0299,2.9377,2.9551,3.0398,3.0398,3.0398,3.0273,2.9373,2.9035,2.9216,3.0732,2.9214,2.6333,2.4122,1.8247,1.2144,1.2224,1.4934,1.871,2.2175,2.5301,2.7468,2.6853,2.8958,3.0395,2.7385,2.856,3.0012,2.908,2.9795,3.052,3.0248,2.9984,2.9785,2.9731,2.9983,3.0485,3.1317,3.2325,3.3362,3.4299,3.3459,3.3532,3.5316,3.5489,3.5515,3.5584,3.4808,3.4387,3.4525,3.6115,3.6705,3.6043,3.7497,3.7403,3.5515,3.3917,3.328,3.3546,3.2042,3.2194,3.3752,3.3239,3.3436,3.42,3.4551,3.4694,3.4714,3.4981,3.4944,3.4714,3.4981,3.4944,3.4848,3.5893,3.5791,3.5272,2.0481,2.0481,2.0311,1.9782,1.969,1.9889,2.0413,2.1524,2.231,2.231,2.231,2.231,2.231,2.231,2.231,2.231,2.231,2.231,2.231,2.231,2.231,2.231,2.231,2.291,2.417,2.4917,2.6625,2.9355,2.9264,2.9264,2.9355,2.9355,2.9355,2.9336,2.9096,2.9516,3.0355,2.9696,2.9416,2.9397,2.9115,2.9551,3.0398,3.0398,3.0398,3.0681,3.2806,3.1599,2.9423,3.2112,3.0923,2.5826,1.1516,0.346,-0.0153,0.2777,0.8538,1.5362,2.1448,2.5301,2.7468,2.6853,2.818,2.9141,2.7159,2.7345,2.7964,2.8225,2.8835,2.9414,2.9658,2.9842,3.0042,3.0345,3.1073,3.1813,3.2367,3.3468,3.4334,3.4718,3.4025,3.4033,3.5358,3.4999,3.4924,3.5545,3.5981,3.6484,3.713,3.7549,3.7729,3.7638,3.806,3.7403,3.558,3.5101,3.4189,3.282,3.2684,3.2342,3.1819,3.2999,3.3375,3.3142,3.4064,3.4505,3.4505,3.4591,3.4695,3.4851,3.4832,3.4634,3.4473,3.562,3.5873,3.5913,1.969,1.969,1.969,1.969,1.969,1.969,1.969,2.0599,2.126,2.126,2.1886,2.231,2.231,2.231,2.231,2.231,2.231,2.231,2.231,2.3393,2.4052,2.4052,2.4052,2.3846,2.3463,2.4653,2.7136,3.0898,3.0898,3.0898,3.0898,3.0898,3.0898,3.0898,3.0552,3.0202,2.9815,2.923,2.8994,2.8994,2.8994,2.9336,2.988,3.026,3.0398,3.0667,3.2744,3.1787,2.9878,3.1949,2.5931,1.4635,-0.1931,-0.7868,-0.7516,-0.1719,0.4722,1.1592,1.9034,2.4266,2.7468,2.6853,2.8281,2.9319,2.73,2.6924,2.7163,2.7681,2.8507,2.9176,2.9377,3.0038,3.0656,3.1011,3.2011,3.2861,3.3178,3.422,3.498,3.5058,3.4746,3.481,3.5507,3.5139,3.523,3.609,3.734,3.8268,3.8711,3.8854,3.888,3.8826,3.8686,3.7891,3.6388,3.603,3.4816,3.2777,3.2739,3.2477,3.2065,3.2938,3.3238,3.3109,3.3833,3.416,3.4184,3.442,3.4508,3.447,3.4551,3.4353,3.4185,3.5315,3.5525,3.5534,1.969,1.969,1.969,1.969,1.969,1.969,1.969,1.969,1.969,1.969,2.1071,2.2077,2.2077,2.2077,2.2135,2.2282,2.231,2.231,2.231,2.5067,2.6691,2.6691,2.6691,2.5321,2.2378,2.4495,2.735,3.0856,3.0856,3.0856,3.0856,3.0856,3.0856,3.0834,3.0546,2.988,2.8994,2.8994,2.8929,2.8815,2.8929,2.8994,2.9093,2.9962,3.033,3.0402,3.0434,3.0363,3.0217,2.9853,1.7214,-0.0303,-1.1308,-1.3126,-0.9675,-0.1726,0.3636,0.8755,1.6605,2.3081,2.7529,2.7184,2.8921,3.004,2.7676,2.7235,2.7331,2.7517,2.8594,2.9477,2.9363,3.0473,3.1476,3.1697,3.2813,3.3696,3.3853,3.4713,3.5324,3.5324,3.5541,3.5682,3.5689,3.5779,3.6237,3.7166,3.8743,3.9627,3.9531,3.9948,3.9951,3.9444,3.9126,3.8377,3.7228,3.6501,3.5239,3.3388,3.2575,3.2746,3.377,3.3054,3.3109,3.3807,3.3807,3.3807,3.3842,3.4486,3.442,3.3921,3.4232,3.4111,3.3952,3.5119,3.5038,3.4629,1.969,1.969,1.969,1.969,1.969,1.969,1.969,1.969,1.969,1.969,2.0015,2.0277,2.0277,2.0277,2.0797,2.218,2.231,2.231,2.231,2.5067,2.6691,2.6691,2.6691,2.5321,2.2378,2.6172,2.8955,3.051,3.051,3.051,3.051,3.051,3.051,3.0501,3.0428,2.988,2.8994,2.8994,2.829,2.7299,2.8515,2.8994,2.9021,2.9228,2.9765,3.0424,3.0703,3.0152,2.8439,2.2711,1.78,1.3622,1.1007,0.4295,-0.1574,0.3902,0.878,1.4216,2.2424,2.6088,2.8021,2.9802,2.8351,2.6779,2.7908,2.813,2.803,2.7964,2.8424,2.8998,2.9513,3.0635,3.1764,3.2635,3.3556,3.4382,3.5088,3.5338,3.5451,3.5451,3.5509,3.5541,3.5548,3.6399,3.7539,3.8928,3.9301,3.9742,4.0373,4.0213,3.9496,3.8165,3.7839,3.6853,3.5072,3.4997,3.4994,3.4979,3.3918,3.3542,3.3788,3.3623,3.3642,3.3807,3.3807,3.3807,3.3895,3.4888,3.4999,3.4483,3.4087,3.3868,3.3972,3.5551,3.5747,3.546,1.9732,1.8893,1.8496,1.953,1.969,1.969,1.969,1.969,1.969,1.969,1.969,1.969,1.969,1.969,2.0085,2.0959,2.1071,2.1415,2.2254,2.5067,2.6691,2.6691,2.5766,2.4284,2.235,2.5985,2.8705,3.0398,3.0398,3.0398,3.0398,3.0398,3.0398,3.0367,2.9927,2.9475,2.8994,2.8994,2.8112,2.6774,2.7572,2.8342,2.8994,2.8994,2.9588,3.0414,3.0595,2.9668,2.7535,2.2201,2.1401,2.2999,2.5542,1.93,1.1377,1.3078,1.5841,1.9582,2.5027,2.7042,2.8158,3.0601,2.9197,2.74,2.8227,2.7897,2.747,2.7639,2.7942,2.8513,2.9584,3.1024,3.2402,3.3586,3.4413,3.5087,3.558,3.5613,3.5593,3.5593,3.5593,3.5755,3.6187,3.7383,3.8465,3.921,3.9103,3.9185,3.9585,3.889,3.7986,3.6968,3.6652,3.609,3.5267,3.4824,3.5439,3.7,3.4835,3.3807,3.3788,3.3935,3.4087,3.4232,3.4232,3.4357,3.4656,3.5254,3.532,3.4999,3.4136,3.4137,3.4688,3.5422,3.5853,3.6123,1.9246,1.7777,1.7076,1.8855,1.9169,1.9169,1.9169,1.9169,1.9281,1.9639,1.969,1.969,1.969,1.969,1.969,1.969,1.969,2.0311,2.1751,2.4547,2.6193,2.6193,2.4536,2.3257,2.2545,2.4929,2.7497,3.0155,3.033,3.0398,3.0398,3.0398,3.0311,3.0128,2.9355,2.8994,2.8994,2.8725,2.7862,2.6691,2.6691,2.7613,2.8994,2.8994,2.9618,3.047,3.0248,2.9323,2.7819,2.5342,2.6165,2.907,3.3966,3.0434,2.4118,2.2147,2.2888,2.4555,2.6081,2.7329,2.8717,3.0699,3.0293,2.9201,2.8522,2.7583,2.6969,2.7465,2.7703,2.8254,2.9726,3.1412,3.2929,3.4015,3.4969,3.5641,3.579,3.5729,3.5729,3.5925,3.5882,3.6151,3.6945,3.8303,3.9109,3.9039,3.8855,3.8729,3.8622,3.7573,3.6721,3.6182,3.577,3.5605,3.5771,3.4581,3.5465,3.8267,3.5807,3.4549,3.4386,3.4481,3.4655,3.4851,3.4851,3.5088,3.5493,3.5493,3.5493,3.5383,3.426,3.4504,3.5459,3.5128,3.5688,3.6515,1.6961,1.6722,1.6595,1.6879,1.6909,1.6909,1.6909,1.6909,1.7585,1.9442,1.969,1.969,1.969,1.969,1.969,1.969,1.969,1.9782,2.005,2.2552,2.4017,2.4017,2.3752,2.3543,2.3431,2.3808,2.5721,2.9185,3.0007,3.0398,3.0398,3.0398,2.9977,2.9185,2.9067,2.8994,2.8905,2.7572,2.6889,2.6691,2.6691,2.7613,2.8994,2.8994,2.9763,3.0678,2.9574,2.9846,3.0642,3.0236,3.0352,3.1264,3.449,3.3029,2.9526,2.6582,2.7262,2.8562,2.6914,2.8539,3.0781,3.1112,3.0293,2.9284,2.8808,2.8467,2.842,2.8984,2.8615,2.8648,3.008,3.147,3.255,3.2891,3.4441,3.5784,3.6233,3.5863,3.5879,3.6799,3.6595,3.6578,3.7046,3.8428,3.9352,3.949,3.9486,3.9463,3.9429,3.8618,3.7644,3.6504,3.572,3.4885,3.3983,3.2417,3.3319,3.6633,3.7588,3.759,3.6704,3.6118,3.5663,3.5383,3.5383,3.5432,3.5493,3.5493,3.5493,3.5383,3.426,3.4504,3.5459,3.5128,3.5579,3.6168,1.625,1.6522,1.6064,1.4698,1.4479,1.4479,1.4479,1.4479,1.5285,1.7599,1.7907,1.7907,1.7907,1.8968,1.9207,1.8027,1.7907,1.7907,1.7907,1.8975,1.9637,1.9637,2.0841,2.1459,2.1459,2.2891,2.4387,2.5965,2.8419,2.988,3.0398,2.9864,2.9397,2.8994,2.8994,2.8994,2.8905,2.7361,2.6691,2.6791,2.766,2.8386,2.9067,2.9588,3.0245,3.0973,3.1501,3.2089,3.2663,3.2663,3.387,3.5792,3.8001,3.7167,3.4874,3.2272,3.069,2.9302,2.7067,2.8783,3.1428,3.24,3.1517,3.0107,2.9027,2.8638,2.8529,2.8761,2.8429,2.8704,3.0802,3.1845,3.2702,3.3653,3.4539,3.5171,3.5418,3.5628,3.6084,3.6993,3.7338,3.7567,3.775,3.8621,3.8947,3.8372,3.7738,3.7237,3.693,3.5792,3.5155,3.5171,3.4414,3.4001,3.3928,3.3055,3.411,3.7084,3.8398,3.8377,3.7136,3.6808,3.6589,3.646,3.6784,3.743,3.8093,3.559,3.4553,3.451,3.3986,3.4504,3.555,3.6009,3.5936,3.5515]},{"header":{"parameterUnit":"m.s-1","parameterCategory":1,"la1":30.6,"la2":28.766,"lo1":-90.7593,"lo2":-88.6598,"dy":0.0162,"dx":0.0183,"nx":116,"ny":114,"refTime":"2023-07-23T06:00:00:Z","depth":0,"parameterNumber":3,"parameterNumberName":"V-component_of_WINDS"},"data":[0.0,0.0,0.0,0.0,0.0,0.0,0.0,0.0,0.0,0.0,0.0,0.0,0.0,0.0,0.0,0.0,0.0,0.0,0.0,0.0,0.0,0.0,0.0,0.0,0.0,0.0,0.0,0.0,0.0,0.0,0.0,0.0,0.0,0.0,0.0,0.0,0.0,0.0,0.0,0.0,0.0,0.0,0.0,0.0,0.0,0.0,0.0,0.0,0.0,0.0,0.0,0.0,0.0,0.0,0.0,0.0,0.0,0.0,0.0,0.0,0.0,0.0,0.0,0.0,0.0,0.0,0.0,0.0,0.0,0.0,0.0,0.0,0.0,0.0,0.0,0.0,0.0,0.0,0.0,0.0,0.0,0.0,0.0,0.0,0.0,0.0,0.0,0.0,0.0,0.0,0.0,0.0,0.0,0.0,0.0,0.0,0.0,0.0,0.0,0.0,0.0,0.0,0.0,0.0,0.0,0.0,0.0,0.0,0.0,0.0,0.0,0.0,0.0,0.0,0.0,0.0,0.0,0.0,0.0,0.0,0.0,0.0,0.0,0.0,0.0,0.0,0.0,0.0,0.0,0.0,0.0,0.0,0.0,0.0,0.0,0.0,0.0,0.0,0.0,0.0,0.0,0.0,0.0,0.0,0.0,0.0,0.0,0.0,0.0,0.0,0.0,0.0,0.0,0.0,0.0,0.0,0.0,0.0,0.0,0.0,0.0,0.0,0.0,0.0,0.0,0.0,0.0,0.0,0.0,0.0,0.0,0.0,0.0,0.0,0.0,0.0,0.0,0.0,0.0,0.0,0.0,0.0,0.0,0.0,0.0,0.0,0.0,0.0,0.0,0.0,0.0,0.0,0.0,0.0,0.0,0.0,0.0,0.0,0.0,0.0,0.0,0.0,0.0,0.0,0.0,0.0,0.0,0.0,0.0,0.0,0.0,0.0,0.0,0.0,0.0,0.0,0.0,0.0,0.0,0.0,0.0,0.0,0.0,0.0,0.0,0.0,0.0,0.0,0.0,0.0,0.0,0.0,0.0,0.0,0.0,0.0,0.0,0.0,0.0,0.0,0.0,0.0,0.0,0.0,0.0,0.0,0.0,0.0,0.0,0.0,0.0,0.0,0.0,0.0,0.0,0.0,0.0,0.0,0.0,0.0,0.0,0.0,0.0,0.0,0.0,0.0,0.0,0.0,0.0,0.0,0.0,0.0,0.0,0.0,0.0,0.0,0.0,0.0,0.0,0.0,0.0,0.0,0.0,0.0,0.0,0.0,0.0,0.0,0.0,0.0,0.0,0.0,0.0,0.0,0.0,0.0,0.0,0.0,0.0,0.0,0.0,0.0,0.0,0.0,0.0,0.0,0.0,0.0,0.0,0.0,0.0,0.0,0.0,0.0,0.0,0.0,0.0,0.0,0.0,0.0,0.0,0.0,0.0,0.0,0.0,0.0,0.0,0.0,0.0,0.0,0.0,0.0,0.0,0.0,0.0,0.0,0.0,0.0,0.0,0.0,0.0,0.0,0.0,0.0,0.0,0.0,0.0,0.0,0.0,0.0,0.0,0.0,0.0,0.0,0.0,0.0,0.0,0.0,0.0,0.0,0.0,0.0,0.0,0.0,0.0,0.0,0.0,0.0,0.0,0.0,0.0,0.0,0.0,0.0,0.0,0.0,0.0,0.0,0.0,0.0,0.0,0.0,0.0,0.0,0.0,0.0,0.0,0.0,0.0,0.0,0.0,0.0,0.0,0.0,0.0,0.0,0.0,0.0,0.0,0.0,0.0,0.0,0.0,0.0,0.0,0.0,0.0,0.0,0.0,0.0,0.0,0.0,0.0,0.0,0.0,0.0,0.0,0.0,0.0,0.0,0.0,0.0,0.0,0.0,0.0,0.0,0.0,0.0,0.0,0.0,0.0,0.0,0.0,0.0,0.0,0.0,0.0,0.0,0.0,0.0,0.0,0.0,0.0,0.0,0.0,0.0,0.0,0.0,0.0,0.0,0.0,0.0,0.0,0.0,0.0,0.0,0.0,0.0,0.0,0.0,0.0,0.0,0.0,0.0,0.0,0.0,0.0,0.0,0.0,0.0,0.0,0.0,0.0,0.0,0.0,0.0,0.0,0.0,0.0,0.0,0.0,0.0,0.0,0.0,0.0,0.0,0.0,0.0,0.0,0.0,0.0,0.0,0.0,0.0,0.0,0.0,0.0,0.0,0.0,0.0,0.0,0.0,0.0,0.0,0.0,0.0,0.0,0.0,0.0,0.0,0.0,0.0,0.0,0.0,0.0,0.0,0.0,0.0,0.0,0.0,0.0,0.0,0.0,0.0,0.0,0.0,0.0,0.0,0.0,0.0,0.0,0.0,0.0,0.0,0.0,0.0,0.0,0.0,0.0,0.0,0.0,0.0,0.0,0.0,0.0,0.0,0.0,0.0,0.0,0.0,0.0,0.0,0.0,0.0,0.0,0.0,0.0,0.0,0.0,0.0,0.0,0.0,0.0,0.0,0.0,0.0,0.0,0.0,0.0,0.0,0.0,0.0,0.0,0.0,0.0,0.0,0.0,0.0,0.0,0.0,0.0,0.0,0.0,0.0,0.0,0.0,0.0,0.0,0.0,0.0,0.0,0.0,0.0,0.0,0.0,0.0,0.0,0.0,0.0,0.0,0.0,0.0,0.0,0.0,0.0,0.0,0.0,0.0,0.0,0.0,0.0,0.0,0.0,0.0,0.0,0.0,0.0,0.0,0.0,0.0,0.0,0.0,0.0,0.0,0.0,0.0,0.0,0.0,0.0,0.0,0.0,0.0,0.0,0.0,0.0,0.0,0.0,0.0,0.0,0.0,0.0,0.0,0.0,0.0,0.0,0.0,0.0,0.0,0.0,0.0,0.0,0.0,0.0,0.0,0.0,0.0,0.0,0.0,0.0,0.0,0.0,0.0,0.0,0.0,0.0,0.0,0.0,0.0,0.0,0.0,0.0,0.0,0.0,0.0,0.0,0.0,0.0,0.0,0.0,0.0,0.0,0.0,0.0,0.0,0.0,0.0,0.0,0.0,0.0,0.0,0.0,0.0,0.0,0.0,0.0,0.0,0.0,0.0,0.0,0.0,0.0,0.0,0.0,0.0,0.0,0.0,0.0,0.0,0.0,0.0,0.0,0.0,0.0,0.0,0.0,0.0,0.0,0.0,0.0,0.0,0.0,0.0,0.0,0.0,0.0,0.0,0.0,0.0,0.0,0.0,0.0,0.0,0.0,0.0,0.0,0.0,0.0,0.0,0.0,0.0,0.0,0.0,0.0,0.0,0.0,0.0,0.0,0.0,0.0,0.0,0.0,0.0,0.0,0.0,0.0,0.0,0.0,0.0,0.0,0.0,0.0,0.0,0.0,0.0,0.0,0.0,0.0,0.0,0.0,0.0,0.0,0.0,0.0,0.0,0.0,0.0,0.0,0.0,0.0,0.0,0.0,0.0,0.0,0.0,0.0,0.0,0.0,0.0,0.0,0.0,0.0,0.0,0.0,0.0,0.0,0.0,0.0,0.0,0.0,0.0,0.0,0.0,0.0,0.0,0.0,0.0,0.0,0.0,0.0,0.0,0.0,0.0,0.0,0.0,0.0,0.0,0.0,0.0,0.0,0.0,0.0,0.0,0.0,0.0,0.0,0.0,0.0,0.0,0.0,0.0,0.0,0.0,0.0,0.0,0.0,0.0,0.0,0.0,0.0,0.0,0.0,0.0,0.0,0.0,0.0,0.0,0.0,0.0,0.0,0.0,0.0,0.0,0.0,0.0,0.0,0.0,0.0,0.0,0.0,0.0,0.0,0.0,0.0,0.0,0.0,0.0,0.0,0.0,0.0,0.0,0.0,0.0,0.0,0.0,0.0,0.0,0.0,0.0,0.0,0.0,0.0,0.0,0.0,0.0,0.0,0.0,0.0,0.0,0.0,0.0,0.0,0.0,0.0,0.0,0.0,0.0,0.0,0.0,0.0,0.0,0.0,0.0,0.0,0.0,0.0,0.0,0.0,0.0,0.0,0.0,0.0,0.0,0.0,0.0,0.0,0.0,0.0,0.0,0.0,0.0,0.0,0.0,0.0,0.0,0.0,0.0,0.0,0.0,0.0,0.0,0.0,0.0,0.0,0.0,0.0,0.0,0.0,0.0,0.0,0.0,0.0,0.0,0.0,0.0,0.0,0.0,0.0,0.0,0.0,0.0,0.0,0.0,0.0,0.0,0.0,0.0,0.0,0.0,0.0,0.0,0.0,0.0,0.0,0.0,0.0,0.0,0.0,0.0,0.0,0.0,0.0,0.0,0.0,0.0,0.0,0.0,0.0,0.0,0.0,0.0,0.0,0.0,0.0,0.0,0.0,0.0,0.0,0.0,0.0,0.0,0.0,0.0,0.0,0.0,0.0,0.0,0.0,0.0,0.0,0.0,0.0,0.0,0.0,0.0,0.0,0.0,0.0,0.0,0.0,0.0,0.0,0.0,0.0,0.0,0.0,0.0,0.0,0.0,0.0,0.0,0.0,0.0,0.0,0.0,0.0,0.0,0.0,0.0,0.0,0.0,0.0,0.0,0.0,0.0,0.0,0.0,0.0,0.0,0.0,0.0,0.0,0.0,0.0,0.0,0.0,0.0,0.0,0.0,0.0,0.0,0.0,0.0,0.0,0.0,0.0,0.0,0.0,0.0,0.0,0.0,0.0,0.0,0.0,0.0,0.0,0.0,0.0,0.0,0.0,0.0,0.0,0.0,0.0,0.0,0.0,0.0,0.0,0.0,0.0,0.0,0.0,0.0,0.0,0.0,0.0,0.0,0.0,0.0,0.0,0.0,0.0,0.0,0.0,0.0,0.0,0.0,0.0,0.0,0.0,0.0,0.0,0.0,0.0,0.0,0.0,0.0,0.0,0.0,0.0,0.0,0.0,0.0,0.0,0.0,0.0,0.0,0.0,0.0,0.0,0.0,0.0,0.0,0.0,0.0,0.0,0.0,0.0,0.0,0.0,0.0,0.0,0.0,0.0,0.0,0.0,0.0,0.0,0.0,0.0,0.0,0.0,0.0,0.0,0.0,0.0,0.0,0.0,0.0,0.0,0.0,0.0,0.0,0.0,0.0,0.0,0.0,0.0,0.0,0.0,0.0,0.0,0.0,0.0,0.0,0.0,0.0,0.0,0.0,0.0,0.0,0.0,0.0,0.0,0.0,0.0,0.0,0.0,0.0,0.0,0.0,0.0,0.0,0.0,0.0,0.0,0.0,0.0,0.0,0.0,0.0,0.0,0.0,0.0,0.0,0.0,0.0,0.0,0.0,0.0,0.0,0.0,0.0,0.0,0.0,0.0,0.0,0.0,0.0,0.0,0.0,0.0,0.0,0.0,0.0,0.0,0.0,0.0,0.0,0.0,0.0,0.0,0.0,0.0,0.0,0.0,0.0,0.0,0.0,0.0,0.0,0.0,0.0,0.0,0.0,0.0,0.0,0.0,0.0,0.0,0.0,0.0,0.0,0.0,0.0,0.0,0.0,0.0,0.0,0.0,0.0,0.0,0.0,0.0,0.0,0.0,0.0,0.0,0.0,0.0,0.0,0.0,0.0,0.0,0.0,0.0,0.0,0.0,0.0,0.0,0.0,0.0,0.0,0.0,0.0,0.0,0.0,0.0,0.0,0.0,0.0,0.0,0.0,0.0,0.0,0.0,0.0,0.0,0.0,0.0,0.0,0.0,0.0,0.0,0.0,0.0,0.0,0.0,0.0,0.0,0.0,0.0,0.0,0.0,0.0,0.0,0.0,0.0,0.0,0.0,0.0,0.0,0.0,0.0,0.0,0.0,0.0,0.0,0.0,0.0,0.0,0.0,0.0,0.0,0.0,0.0,0.0,0.0,0.0,0.0,0.0,0.0,0.0,0.0,0.0,0.0,0.0,0.0,0.0,0.0,0.0,0.0,0.0,0.0,0.0,0.0,0.0,0.0,0.0,0.0,0.0,0.0,0.0,0.0,0.0,0.0,0.0,0.0,0.0,0.0,0.0,0.0,0.0,0.0,0.0,0.0,0.0,0.0,0.0,0.0,0.0,0.0,0.0,0.0,0.0,0.0,0.0,0.0,0.0,0.0,0.0,0.2009,0.0,0.0,0.0,0.0,0.0,0.0,0.0,0.0,0.0,0.0,0.0,0.0,0.0,0.0,0.0,0.0,0.0,0.0,0.0,0.0,0.0,0.0,0.0,0.0,0.0,0.0,0.0,0.0,0.0,0.0,0.0,0.0,0.0,0.0,0.0,0.0,0.0,0.0,0.0,0.0,0.0,0.0,0.0,0.0,0.0,0.0,0.0,0.0,0.0,0.0,0.0,0.0,0.0,0.0,0.0,0.0,0.0,0.0,0.0,0.0,0.0,0.0,0.0,0.0,0.0,0.0,0.0,0.0,0.0,0.0,0.0,0.0,0.0,0.0,0.0,0.0,0.0,0.0,0.0,0.0,0.0,0.0,0.0,0.0,0.0,0.0,0.0,0.0,0.0,0.0,0.0,0.0,0.0,0.0,0.0,0.0,0.0,0.0,0.0,0.0,0.0,0.0,0.0,0.0,0.0,0.0,0.0,0.0,0.0,0.0,0.0,0.0,0.0,0.0,0.0,0.0,0.091,0.0,0.0,0.0,0.0,0.0,0.0,0.0,0.0,0.0,0.0,0.0,0.0,0.0,0.0,0.0,0.0,0.0,0.0,0.0,0.0,0.0,0.0,0.0,0.0,0.0,0.0,0.0,0.0,0.0,0.0,0.0,0.0,0.0,0.0,0.0,0.0,0.0,0.0,0.0,0.0,0.0,0.0,0.0,0.0,0.0,0.0,0.0,0.0,0.0,0.0,0.0,0.0,0.0,0.0,0.0,0.0,0.0,0.0,0.0,0.0,0.0,0.0,0.0,0.0,0.0,0.0,0.0,0.0,0.0,0.0,0.0,0.0,0.0,0.0,0.0,0.0,0.0,0.0,0.0,0.0,0.0,0.0,0.0,0.0,0.0,0.0,0.0,0.0,0.0,0.0,0.0,0.0,0.0,0.0,0.0,0.0,0.0,0.0,0.0,0.0,0.0,0.0,0.0,0.0,0.0,0.0,0.0,0.0,0.3424,0.4676,0.4676,0.466,0.4318,0.36,0.107,0.0,0.0237,0.3247,0.0,0.0,0.0,0.0,0.0,0.0,0.0,0.0,0.0,0.0,0.0,0.0,0.0,0.0,0.0,0.0,0.0,0.0,0.0,0.0,0.0,0.0,0.0,0.0,0.0,0.0,0.0,0.0,0.0,0.0,0.0,0.0,0.0,0.0,0.0,0.0,0.0,0.0,0.0,0.0,0.0,0.0,0.0,0.0,0.0,0.0,0.0,0.0,0.0,0.0,0.0,0.0,0.0,0.0,0.0,0.0,0.0,0.0,0.0,0.0,0.0,0.0,0.0,0.0,0.0,0.0,0.0,0.0,0.0,0.0,0.0,0.0,0.0,0.0,0.0,0.0,0.0,0.0,0.0,0.0,0.0,0.0,0.0,0.0,0.0,0.0,0.3935,0.4453,0.0,0.0,0.0,0.0,0.0,0.0,0.0,0.0,0.0,0.0,0.0,0.0,0.0,0.0593,0.0615,0.0224,0.134,0.3907,0.4869,0.5308,0.5308,0.5315,0.3595,0.0604,0.0149,0.0,0.0219,0.3264,0.0,0.0,0.0,0.0,0.0,0.0,0.0,0.0,0.0,0.0,0.0,0.0,0.0,0.0,0.0,0.0,0.0,0.0,0.0,0.0,0.0,0.0,0.0,0.0,0.0,0.0,0.0,0.0,0.0,0.0,0.0,0.0,0.0,0.0,0.0,0.0,0.0,0.0,0.0,0.0,0.0,0.0,0.0,0.0,0.0,0.0,0.0,0.0,0.0,0.0,0.0,0.0,0.0,0.0,0.0,0.0,0.0,0.0,0.0,0.0,0.0,0.0,0.0,0.0,0.0,0.0,0.0,0.0,0.0,0.0,0.0,0.0,0.0,0.0,0.0,0.0,0.0,0.0,0.0,0.0,0.0,0.0,0.0,0.0,0.0,0.3279,0.3461,0.4405,0.422,0.4148,0.0,0.0,0.0,0.0,0.0,0.0,0.0,0.0,0.0,0.0,0.0,0.1002,0.304,0.0996,0.0686,0.1984,0.466,0.594,0.5791,0.3443,0.1504,0.0,0.0,0.1339,0.3619,0.4219,0.4519,0.4519,0.0,0.0,0.0,0.0,0.1118,0.0,0.0,0.0,0.0,0.0,0.0,0.0,0.0,0.0,0.0,0.0,0.0,0.0,0.0,0.0,0.0,0.4454,0.0,0.0,0.0,0.0,0.0,0.0,0.0,0.0,0.0,0.0,0.0,0.0,0.0,0.0,0.0,0.0,0.0,0.0,0.0,0.0,0.0,0.0,0.0,0.0,0.0,0.0,0.0,0.0,0.0,0.0,0.0,0.0,0.0,0.0,0.0,0.0,0.0,0.0,0.0,0.0,0.0,0.0,0.0,0.0,0.0,0.0,0.0,0.0,0.0,0.0,0.0,0.0,0.0,0.0,0.0,0.0,0.0,0.0,0.0,0.0,0.0,0.3176,0.3509,0.4409,0.4124,0.4028,0.0,0.0,0.0,0.0,0.0,0.0,0.0112,0.0,0.0,0.0,0.1074,0.2936,0.5593,0.2941,0.1665,0.1865,0.3728,0.4703,0.462,0.1462,0.0,0.0,0.0,0.1821,0.4688,0.49,0.4889,0.4749,0.4749,0.4656,0.4144,0.1103,0.0708,0.1601,0.0,0.0,0.0,0.0,0.0,0.0,0.0,0.0,0.0,0.0,0.0,0.0,0.0,0.0,0.4892,0.5199,0.5541,0.5705,0.0,0.0,0.0,0.0,0.0,0.0,0.0,0.0,0.0,0.0,0.0,0.0,0.0,0.0,0.0,0.0,0.0,0.0,0.0,0.0,0.0,0.0,0.0,0.0,0.0,0.0,0.0,0.0,0.0,0.0,0.0,0.0,0.0,0.0,0.0,0.0,0.0,0.0,0.0,0.0,0.0,0.0,0.0,0.0,0.0,0.0,0.0,0.0,0.0,0.0,0.0,0.0,0.0,0.0,0.0,0.0,0.0,0.0,0.0,0.0,0.0,0.4512,0.4491,0.0,0.0,0.0,0.0,0.046,0.0208,0.0168,0.0,0.0,0.0,0.0,0.387,0.606,0.6213,0.6086,0.6212,0.6653,0.2401,0.0357,0.0268,0.0089,0.0,0.0,0.0,0.009,0.0621,0.4579,0.5906,0.538,0.538,0.5027,0.4132,0.1088,0.2546,0.597,0.0,0.0,0.0,0.0,0.0,0.0,0.0,0.0,0.0,0.0,0.0,0.0,0.0,0.4578,0.5425,0.6187,0.661,0.6833,0.681,0.0,0.0,0.0,0.0,0.0,0.0,0.0,0.0,0.0,0.0,0.0,0.0,0.0,0.0,0.0,0.0,0.0,0.0,0.0,0.0,0.0,0.0,0.0,0.0,0.0,0.0,0.0,0.0,0.0,0.0,0.0,0.0,0.0,0.0,0.0,0.0,0.0,0.0,0.0,0.0,0.0,0.0,0.0,0.0,0.0,0.0,0.0,0.0,0.0,0.0,0.0,0.0,0.0,0.0,0.0,0.0,0.0,0.0,0.0,0.0,0.5597,0.4996,0.0,0.4519,0.4519,0.4194,0.3533,0.1321,0.0,0.0,0.2548,0.4072,0.4062,0.555,0.6444,0.6824,0.6827,0.6932,0.7051,0.5354,0.4552,0.4552,0.4552,0.4552,0.4552,0.4552,0.2861,0.009,0.1648,0.21,0.1946,0.1905,0.1815,0.1483,0.0368,0.0932,0.2223,0.0,0.0,0.0,0.0,0.0,0.0,0.0,0.0,0.0,0.0,0.0,0.3078,0.4039,0.492,0.5856,0.6947,0.7302,0.7472,0.7477,0.0,0.0,0.0,0.0,0.0,0.0,0.0,0.0,0.0,0.0,0.0,0.0,0.0,0.0,0.0,0.0,0.0,0.0,0.0,0.0,0.0,0.0,0.0,0.8306,0.0,0.0,0.0,0.0,0.0,0.0,0.0,0.0,0.0,0.0,0.0,0.0,0.0,0.0,0.0,0.0,0.0,0.0,0.0,0.0,0.0,0.0,0.0,0.0,0.0,0.0,0.0,0.0,0.0,0.0,0.0,0.0,0.0,0.0,0.0,0.5589,0.619,0.5624,0.5133,0.5133,0.5133,0.5318,0.5915,0.3716,0.2377,0.2377,0.5078,0.6559,0.6559,0.6559,0.6746,0.7136,0.7139,0.7139,0.7139,0.7139,0.7139,0.7139,0.7139,0.7139,0.7139,0.7139,0.5265,0.2416,0.2416,0.2416,0.2395,0.2193,0.1279,0.0,0.0,0.0,0.0,0.0,0.0,0.0,0.0,0.0,0.0,0.0,0.0,0.0,0.0,0.2524,0.3056,0.3944,0.5084,0.6271,0.7466,0.7549,0.754,0.7635,0.6781,0.0,0.0,0.0,0.0,0.0,0.0,0.0,0.0,0.0,0.0,0.0,0.0,0.0,0.0,0.0,0.0,0.0,0.0,0.0,0.0,0.0,0.0,0.848,0.0,0.0,0.0,0.0,0.0,0.0,0.0,0.0,0.0,0.0,0.0,0.0,0.0,0.0,0.0,0.0,0.0,0.0,0.0,0.0,0.0,0.0,0.0,0.0,0.0,0.0,0.0,0.0,0.0,0.0,0.0,0.0,0.0,0.0616,0.4227,0.6926,0.6342,0.6281,0.6281,0.6342,0.6278,0.6525,0.7099,0.7139,0.7139,0.7139,0.7139,0.7139,0.7139,0.7139,0.7139,0.7139,0.7139,0.7139,0.7139,0.7139,0.7139,0.7139,0.716,0.717,0.717,0.717,0.717,0.717,0.717,0.7156,0.7085,0.6512,0.3818,0.018,0.009,0.0,0.0,0.0,0.0,0.0,0.0,0.0,0.0,0.0,0.0,0.0,0.0,0.2968,0.37,0.4833,0.6434,0.7769,0.8644,0.8202,0.8134,0.878,0.0,0.0,0.0,0.0,0.0,0.0,0.0,0.0,0.0,0.0,0.0,0.0,0.0,0.0,0.0,0.0,0.0,0.0,0.0,0.0,0.0,0.0,0.0,0.9387,0.0,0.0,0.0,0.0,0.0,0.0,0.0,0.0,0.0,0.0,0.0,0.0,0.0,0.0,0.0,0.0,0.0,0.0,0.0,0.0,0.0,0.0,0.0,0.0,0.0,0.0,0.0,0.0,0.0,0.0,0.0,0.0,0.2165,0.4771,0.6314,0.7,0.6624,0.677,0.6729,0.6302,0.6647,0.6966,0.7129,0.7139,0.7139,0.7139,0.7139,0.7139,0.7139,0.7139,0.7139,0.7139,0.7139,0.7139,0.7139,0.7139,0.7139,0.7153,0.7594,0.7794,0.7794,0.7794,0.7794,0.7794,0.7794,0.7536,0.7126,0.6963,0.621,0.473,0.1255,0.0,0.0,0.0,0.0,0.0,0.0,0.0,0.0,0.0,0.0,0.0,0.0,0.3123,0.4096,0.5489,0.699,0.8155,0.8792,0.844,0.8216,0.8222,0.0,0.0,0.0,0.0,0.0,0.0,0.0,0.0,0.0,0.0,0.0,0.0,0.0,0.0,0.0,0.0,0.0,0.0,0.0,0.0,0.0,0.0,0.0,1.1296,1.0305,0.988,0.9649,0.828,0.7965,0.834,0.8843,0.0,0.0,0.0,0.0,0.0,0.0,0.0,0.0,0.0,0.0,0.0,0.0,0.0,0.0,0.0,0.0,0.0,0.0,0.0,0.0,0.0,0.0,0.0,0.0,0.2611,0.3743,0.691,0.7333,0.7221,0.6919,0.7037,0.7004,0.6661,0.6939,0.7244,0.7499,0.7516,0.7407,0.7153,0.7139,0.7258,0.7509,0.7516,0.7516,0.7516,0.7516,0.7516,0.7516,0.7516,0.7516,0.7529,0.7879,0.8038,0.8038,0.8038,0.8038,0.8038,0.8038,0.7834,0.0,0.0,0.0,0.0,0.0,0.0,0.0,0.0,0.0,0.0,0.0,0.0,0.0,0.0,0.0,0.0,0.0,0.0,0.4346,0.5833,0.6996,0.7837,0.8326,0.8422,0.7932,0.0,0.0,0.0,0.0,0.0,0.0,0.0,0.0,0.0,0.0,0.0,0.0,0.0,0.0,0.0,0.0,0.0,0.0,0.0,0.0,0.0,0.0,0.0,0.0,1.3543,1.1751,1.1194,1.1247,1.0004,0.9822,1.0369,1.13,0.0,0.0,0.0,0.0,0.0,0.0,0.0,0.0,0.0,0.0,0.0,0.0,0.0,0.0,0.0,0.0,0.0,0.0,0.0,0.0,0.0,0.0,0.0,0.0,0.393,0.6661,0.7526,0.7648,0.7536,0.7227,0.716,0.7166,0.7234,0.7241,0.7434,0.7902,0.7936,0.7733,0.7268,0.0,0.0,0.0,0.0,0.8038,0.8038,0.8038,0.8038,0.8038,0.8038,0.8038,0.8038,0.8038,0.8038,0.8038,0.8038,0.8038,0.8038,0.8038,0.8038,0.7987,0.7451,0.7241,0.669,0.2424,0.0449,0.0,0.0,0.0,0.0,0.0,0.0,0.0,0.0,0.0,0.0,0.2632,0.3565,0.4548,0.5305,0.6866,0.8113,0.8798,0.8436,0.7667,0.0,0.0,0.0,0.0,0.0,0.0,0.0,0.0,0.0,0.0,0.0,0.0,0.0,0.0,0.0,0.0,0.0,0.0,0.0,0.0,0.0,0.0,0.0,0.0,1.448,1.3126,1.3147,1.3921,1.4091,1.3072,1.1547,1.0772,1.134,1.2129,1.0723,0.0,0.0,0.0,0.0,0.0,0.0,0.0,0.0,0.0,0.0,0.0,0.0,0.0,0.0,0.0,0.0,0.0,0.0,0.0,0.0,0.5101,0.6099,0.72,0.7862,0.7953,0.7845,0.7546,0.7292,0.7329,0.7818,0.7865,0.7712,0.7343,0.7316,0.7475,0.7845,0.7865,0.7919,0.8035,0.8038,0.8038,0.8038,0.8038,0.8038,0.8038,0.0,0.0,0.8038,0.8038,0.8038,0.8038,0.8038,0.8038,0.8038,0.8038,0.8038,0.8028,0.7909,0.7865,0.7611,0.6221,0.3306,0.0,0.0,0.0,0.0,0.0,0.0,0.0,0.0,0.0,0.0,0.0,0.393,0.4945,0.5718,0.7129,0.8046,0.8197,0.746,0.0,0.0,0.0,0.0,0.0,0.0,0.0,0.0,0.0,0.0,0.0,0.0,0.0,0.0,0.0,0.0,0.0,0.0,0.0,0.0,0.0,0.0,0.0,0.0,0.0,1.6318,1.5378,1.5004,1.4972,1.4779,1.4144,1.3204,1.2023,1.1956,1.2292,1.2234,1.0976,0.9565,0.0,0.0,0.0,0.0,0.0,0.0,0.0,0.0,0.0,0.0,0.0,0.0,0.0,0.0,0.4611,0.0,0.0,0.6006,0.6603,0.72,0.7695,0.7997,0.8038,0.7984,0.7838,0.7682,0.7709,0.8011,0.7767,0.759,0.759,0.759,0.7723,0.8024,0.8038,0.8038,0.8038,0.8038,0.8038,0.8038,0.8038,0.8038,0.8038,0.8038,0.8038,0.8038,0.8038,0.8038,0.8038,0.8038,0.8038,0.8038,0.8038,0.8038,0.8038,0.8038,0.8038,0.7967,0.7363,0.4107,0.0,0.0,0.0,0.0,0.0,0.0,0.0,0.0,0.0,0.0,0.0,0.0,0.5196,0.6057,0.7057,0.7519,0.0,0.0,0.0,0.0,0.0,0.0,0.0,0.0,0.0,0.0,0.0,0.0,0.0,0.0,0.0,0.0,0.0,0.0,0.0,0.0,0.0,0.0,0.0,0.0,0.0,0.0,0.0,1.7949,1.7393,1.6553,1.5507,1.4523,1.4448,1.4557,1.3433,1.277,1.256,1.3193,1.1446,0.9105,0.8871,0.8864,0.0,0.0,0.0,0.0,0.0,0.0,0.0,0.0,0.0,0.5319,0.5555,0.5212,0.5058,0.5596,0.62,0.6763,0.7238,0.7723,0.8038,0.8038,0.8038,0.8038,0.8038,0.8038,0.8038,0.8038,0.76,0.7516,0.8001,0.8038,0.8038,0.8038,0.8038,0.8038,0.8038,0.8038,0.8038,0.8038,0.8038,0.8038,0.8038,0.8038,0.8038,0.8038,0.8038,0.8038,0.8038,0.8038,0.8038,0.8038,0.8038,0.8038,0.8038,0.8038,0.8038,0.7967,0.7363,0.406,0.0,0.0,0.0,0.0,0.0,0.0,0.0,0.0,0.0,0.0,0.0,0.0,0.0,0.0,0.0,0.0,0.0,0.0,0.0,0.0,0.0,0.0,0.0,0.0,0.0,0.0,0.0,0.0,0.0,0.0,0.0,0.0,0.0,0.0,0.0,0.0,0.0,0.0,0.0,0.0,0.0,0.0,0.0,1.7959,1.7529,1.7031,1.6354,1.5003,1.4885,1.5061,1.3546,1.3862,1.4548,1.1851,1.0719,1.0221,0.9112,0.0,0.9145,0.8317,0.6723,0.5451,0.5804,0.5699,0.5349,0.0,0.0,0.4927,0.6012,0.6184,0.624,0.6831,0.7434,0.7862,0.7929,0.7994,0.8038,0.8038,0.8038,0.8038,0.8038,0.8038,0.8038,0.8038,0.7977,0.7967,0.8035,0.8038,0.8038,0.8038,0.8038,0.8038,0.8038,0.8038,0.8038,0.8038,0.8038,0.8038,0.8038,0.8038,0.8038,0.8038,0.8038,0.8038,0.8038,0.8038,0.8038,0.8038,0.8038,0.8038,0.8038,0.8038,0.8038,0.7967,0.7363,0.4113,0.0,0.0,0.0,0.0,0.0,0.0,0.0,0.0,0.0,0.0,0.0,0.0,0.0,0.0,0.0,0.0,0.0,0.0,0.0,0.8202,0.0,0.0,0.0,0.0,0.0,0.0,0.0,0.0,0.0,0.0,0.0,0.0,0.0,0.0,0.0,0.0,0.0,0.0,0.0,0.0,0.0,0.0,0.0,1.7568,1.6875,1.6553,1.6387,1.5781,1.5019,0.0,0.0,1.2464,1.2685,1.1752,1.061,0.9446,0.8951,0.8925,0.0,0.7824,0.6898,0.6077,0.0,0.5559,0.6,0.6444,0.6271,0.6264,0.7119,0.7295,0.7373,0.7617,0.7868,0.8038,0.0,0.8038,0.8038,0.8038,0.8038,0.8038,0.8038,0.8038,0.8038,0.8038,0.8038,0.8038,0.8038,0.8038,0.8038,0.8038,0.8038,0.8038,0.8038,0.8038,0.8038,0.8038,0.8038,0.8038,0.8038,0.8038,0.8038,0.8038,0.8038,0.8038,0.8038,0.8038,0.8038,0.8038,0.8038,0.8038,0.8038,0.8038,0.8038,0.8011,0.7756,0.4399,0.0,0.0,0.0,0.0,0.0,0.0,0.0,0.0,0.0,0.0,0.0,0.0,0.0,0.0,0.0,0.0,0.0,0.0,0.0,0.0,0.8474,0.9688,0.0,0.0,0.0,0.0,0.0,0.0,0.0,0.0,0.0,0.0,0.0,0.0,0.0,0.0,0.0,0.0,0.0,0.0,0.0,0.0,0.0,1.71,1.6094,1.5625,1.5527,1.5566,1.4609,0.0,0.0,1.0791,1.0454,1.0879,1.0087,0.8965,0.8931,0.8925,0.8728,0.7886,0.7307,0.0,0.5126,0.5559,0.6573,0.7767,0.7448,0.7115,0.7882,0.8038,0.8038,0.8038,0.8038,0.8038,0.8038,0.8038,0.8038,0.8038,0.8038,0.7977,0.7811,0.7648,0.7614,0.7773,0.779,0.7858,0.8028,0.8038,0.8038,0.8038,0.8038,0.8038,0.8038,0.8038,0.8038,0.8038,0.8038,0.8038,0.8038,0.8038,0.8038,0.8038,0.8038,0.8038,0.8038,0.8038,0.8038,0.8038,0.8038,0.8038,0.8041,0.7962,0.7972,0.7865,0.6334,0.3318,0.0,0.0,0.0,0.0,0.0,0.0,0.0,0.0,0.0,0.0,0.0,0.0,0.0,0.0,0.0,0.0,0.0,0.0,0.0,0.0,0.8303,0.9675,1.1136,1.3106,0.0,0.0,0.0,0.0,0.0,0.0,0.0,0.0,0.0,0.0,0.0,0.0,0.0,0.0,0.0,0.0,0.0,0.0,0.0,1.6548,1.5322,1.4307,1.3613,1.376,0.0,0.0,0.0,0.9471,0.881,0.8434,0.883,0.0,0.9203,0.917,0.9177,0.9017,0.0,0.7037,0.5698,0.5871,0.6573,0.7767,0.7129,0.662,0.7797,0.8038,0.8038,0.8038,0.8038,0.8038,0.8038,0.8038,0.8038,0.8038,0.8038,0.7821,0.7238,0.6664,0.6539,0.0,0.7166,0.7411,0.7994,0.8038,0.8038,0.8038,0.8038,0.8038,0.8038,0.8038,0.8038,0.8038,0.8038,0.8038,0.8038,0.8038,0.8038,0.8038,0.8038,0.8038,0.8038,0.8038,0.8038,0.8038,0.8038,0.8038,0.8048,0.8026,0.7955,0.733,0.2122,0.0101,0.0,0.0,0.0,0.0,0.0,0.0,0.0,0.0,0.0,0.0,0.0,0.0,0.0,0.0,0.0,0.0,0.0,0.0,0.0,0.0,0.8466,0.9605,1.0837,1.2521,1.3719,1.4315,1.5393,1.6145,1.6522,0.0,0.0,0.0,0.0,0.0,0.0,0.0,0.0,0.0,0.0,0.0,0.0,1.6963,1.6504,1.6162,1.5059,1.375,1.2568,0.0,0.0,0.0,0.0,0.8915,0.8663,0.8167,0.0,0.8544,0.9158,0.8971,0.856,0.8616,0.9327,0.9211,0.5692,0.6775,0.8621,0.8077,0.7729,0.7556,0.7957,0.8038,0.7919,0.7516,0.7444,0.7444,0.7444,0.7777,0.8038,0.8038,0.7695,0.7221,0.6627,0.6383,0.0,0.0,0.0,0.0,0.7428,0.7814,0.8038,0.8038,0.8038,0.8038,0.8038,0.8038,0.8038,0.8038,0.8038,0.8038,0.8038,0.8038,0.8038,0.7839,0.432,0.2716,0.2716,0.2716,0.2716,0.2716,0.2716,0.2716,0.2717,0.2726,0.2731,0.2427,0.0707,0.0,0.0,0.0,0.0,0.0,0.0,0.0,0.0,0.0,0.0,0.0,0.0,0.0,0.0,0.0,0.0,0.0,0.0,0.0,0.0,0.0,0.0,0.9326,0.9821,1.1534,1.2723,1.3298,1.3976,1.4764,1.5672,1.5896,1.5978,1.588,1.6138,1.6236,1.62,1.581,1.5989,1.6597,1.6174,1.5957,1.5742,1.542,1.5146,1.489,1.3975,1.29,0.0,0.0,0.0,0.0,0.0,0.8372,0.855,0.7826,0.7848,0.837,0.8998,0.9025,0.8921,0.9439,0.9977,1.0066,0.8359,1.0037,1.1838,1.0979,1.0769,1.0769,1.0769,1.0446,0.9655,0.8,0.769,0.8013,0.8799,0.8215,0.7794,0.8011,0.7522,0.7,0.662,0.639,0.6342,0.0,0.0,0.0,0.7139,0.7699,0.8038,0.8038,0.8038,0.8038,0.8038,0.8038,0.8038,0.8038,0.8038,0.8038,0.8038,0.8038,0.7033,0.5022,0.1612,0.0,0.0,0.0,0.0,0.0,0.0,0.0,0.0,0.0,0.0,0.0,0.0,0.0,0.0,0.0,0.0,0.0,0.0,0.0,0.0,0.0,0.0,0.0,0.0,0.0,0.0,0.0,0.0,0.0,0.0,0.0,0.0,0.0,0.0,0.0,0.8343,1.0192,1.1479,1.2026,1.1933,1.2594,1.41,1.3651,1.3622,1.4029,1.4697,1.4914,1.4688,1.4725,1.5245,1.6078,1.4586,1.3555,1.291,1.3213,0.0,1.2861,1.2275,0.0,0.0,0.0,0.0,0.0,0.0,0.0,0.8479,0.7607,0.8036,0.8831,0.8951,0.9426,1.0134,1.1116,1.0301,0.9973,1.3333,1.501,1.5832,1.5832,1.5832,1.5812,1.5752,1.4763,1.2859,0.0,0.0,0.9475,1.1545,0.9124,0.7214,0.7818,0.7489,0.7177,0.0,0.0,0.0,0.0,0.0,0.0,0.7187,0.0,0.8007,0.8038,0.8038,0.8038,0.8038,0.8038,0.8038,0.8038,0.8038,0.8038,0.8038,0.7736,0.4922,0.0,0.0,0.0,0.0,0.0,0.0,0.0,0.0,0.0,0.0,0.0,0.0,0.0,0.0,0.0,0.0,0.0,0.0,0.0,0.0,0.0,0.0,0.0,0.0,0.0,0.0,0.0,0.0,0.0,0.0,0.0,0.0,0.0,0.0,0.0,0.0,0.0,0.0,0.0,0.0,0.0,0.0,0.0,0.0,0.0,1.257,1.304,1.2639,1.2808,0.0,1.2329,1.2333,1.3166,1.2262,1.2275,1.2773,0.0,1.207,1.3457,0.0,0.0,0.0,0.0,0.0,0.0,0.0,0.0,0.0,1.1236,1.0688,0.9152,1.0902,1.0314,0.9352,1.0474,1.2378,1.4255,1.5157,1.5611,1.5832,1.5832,1.5832,1.5585,1.471,1.2893,1.0915,0.0,0.0,0.0,0.6757,0.572,0.0,0.5959,0.7065,0.0,0.7193,0.0,0.7645,0.7797,0.7811,0.0,0.0,0.7536,0.7567,0.8014,0.8038,0.8038,0.8038,0.8038,0.8038,0.8038,0.8038,0.8038,0.7939,0.3919,0.131,0.0,0.0,0.0,0.0,0.0,0.0,0.0,0.0,0.0,0.0,0.0,0.0,0.0,0.0,0.0,0.0,0.0,0.0,0.0,0.0,0.0,0.0,0.0,0.0,0.0,0.0,0.0,0.0,0.0,0.0,0.0,0.0,0.0,0.0,0.0,0.0,0.0,0.0,0.0,0.0,0.0,0.0,0.0,0.0,0.0,0.0,0.0,1.0587,1.0803,1.147,1.0698,1.0609,1.0971,0.0,0.0,0.0,0.0,0.0,0.0,0.0,0.0,0.0,0.0,0.0,0.0,0.0,0.0,0.7607,0.9954,0.9887,0.9545,1.2309,0.0,1.006,1.2271,1.4322,1.5832,1.5832,1.5832,1.5832,1.5832,1.5431,1.4436,1.2225,1.0715,0.0,0.8925,0.8804,0.0,0.0,0.0,0.0,0.6095,0.7238,0.7913,0.0,0.7834,0.0,0.8038,0.8038,0.8038,0.0,0.7726,0.7682,0.8021,0.8038,0.8038,0.8038,0.8038,0.8038,0.8038,0.8038,0.8038,0.7939,0.2516,0.0,0.0,0.0,0.0,0.0,0.0,0.0,0.0,0.0,0.0,0.0,0.0,0.0,0.0,0.0,0.0,0.0,0.0,0.0,0.0,0.0,0.0,0.0,0.0,0.0,0.0,0.0,0.0,0.0,0.0,0.0,0.0,0.0,0.0,0.0,0.0,0.0,0.0,0.0,0.0,0.0,0.0,0.0,0.0,0.0,0.0,0.0,0.0,0.0,0.0,0.0,0.0,0.0,0.0,0.0,0.0,0.0,0.0,0.0,0.0,0.0,0.0,0.0,0.0,0.0,0.0,0.0,0.6437,0.73,0.6957,0.8371,1.0684,1.329,1.2746,1.1964,1.5184,1.5952,1.5832,1.5832,1.5832,1.5792,1.5631,1.4449,1.2512,0.9439,0.0,0.8804,0.8804,0.8804,0.8236,0.6467,0.0,0.7051,0.7129,0.759,0.795,0.8031,0.8038,0.8038,0.8038,0.8038,0.8038,0.8038,0.8038,0.8038,0.8038,0.8038,0.8038,0.8038,0.8038,0.8038,0.8038,0.8038,0.8038,0.7939,0.2516,0.0,0.0,0.0,0.0,0.0,0.0,0.0,0.0,0.0,0.0,0.0,0.0,0.0,0.0,0.0,0.0,0.0,0.0,0.0,0.0,0.0,0.0,0.0,0.0,0.0,0.0,0.0,0.0,0.0,0.0,0.0,0.0,0.0,0.0,0.0,0.0,0.0,0.0,0.0,0.0,0.0,0.0,0.0,0.0,0.0,0.0,0.0,0.0,0.0,0.0,0.0,0.0,0.0,0.0,0.0,0.0,0.0,0.0,0.0,0.0,0.0,0.0,0.0,0.0,0.0,0.0,0.0,0.5912,0.6891,0.9137,1.2098,1.4636,1.4249,1.4476,1.5257,1.6847,1.6573,1.5832,1.5832,1.5832,1.5578,1.4609,1.1971,0.0,0.0,0.8804,0.8804,0.8804,0.8804,0.8061,0.5929,0.602,0.6583,0.7071,0.7231,0.7482,0.0,0.8038,0.8038,0.8038,0.8038,0.0,0.0,0.8038,0.8038,0.8038,0.8038,0.8038,0.8038,0.8038,0.8038,0.8038,0.8038,0.8038,0.7939,0.2516,0.0,0.0,0.0,0.0,0.0,0.0,0.0,0.0,0.0,0.0,0.0,0.0,0.0,0.0,0.0,0.0,0.0,0.0,0.0,0.0,0.0,0.0,0.0,0.0,0.0,0.0,0.0,0.0,0.0,0.0,0.0,0.0,0.0,0.0,0.0,0.0,0.0,0.0,0.0,0.0,0.0,0.0,0.0,0.0,0.0,0.0,0.0,0.0,0.0,0.0,0.0,0.0,0.0,0.0,0.0,0.0,0.0,0.0,0.0,0.0,0.0,0.0,0.0,0.0,0.0,0.0,0.0,0.6299,0.6226,0.8545,1.0364,1.1661,1.1057,1.321,1.5364,1.3164,1.2159,1.242,1.5146,1.5832,1.5357,1.3567,0.0,0.0,0.0,0.8804,0.8804,0.8804,0.8804,0.0,0.7321,0.67,0.6359,0.6641,0.6946,0.0,0.7967,0.8038,0.8038,0.0,0.8038,0.8038,0.8038,0.8038,0.8038,0.8038,0.8038,0.8038,0.8038,0.8038,0.8038,0.8038,0.8038,0.8038,0.7939,0.5425,0.2716,0.0,0.0,0.0,0.0,0.0,0.0,0.0,0.0,0.0,0.0,0.0,0.0,0.0,0.0,0.0,0.0,0.0,0.0,0.0,0.0,0.0,0.0,0.0,0.0,0.2627,0.2907,0.2778,0.309,0.4192,0.4729,0.0,0.0,0.0,0.0,0.0,0.0,0.0,0.0,0.0,0.0,0.0,0.0,0.0,0.0,0.0,0.0,0.0,0.0,0.0,0.0,0.0,0.0,0.0,0.0,0.0,0.0,0.0,0.0,0.0,0.0,0.0,0.0,0.0,0.0,0.0,0.0,0.6844,0.61,0.7951,0.8292,0.8038,0.8038,1.1741,1.4657,0.9406,0.8038,0.9015,1.3102,1.4172,1.3744,1.2293,1.0314,0.0,0.8804,0.9263,0.9524,0.891,0.0,0.8804,0.0,0.7688,0.6592,0.6019,0.6603,0.7363,0.0,0.8038,0.0,0.8038,0.8038,0.0,0.8038,0.8038,0.8038,0.8038,0.8038,0.8038,0.8038,0.8163,0.817,0.8041,0.8038,0.8038,0.8038,0.8038,0.5225,0.0,0.0,0.0,0.0,0.0,0.0,0.0,0.0,0.0,0.0,0.0,0.0,0.0,0.0,0.0,0.0,0.0,0.0,0.0,0.0,0.0,0.0,0.0,0.0,0.131,0.1156,0.1583,0.2194,0.2977,0.4079,0.0,0.0,0.0,0.0,0.0,0.0,0.0,0.0,0.0,0.0,0.0,0.0,0.0,0.0,0.0,0.0,0.0,0.0,0.0,0.0,0.0,0.0,0.0,0.0,0.0,0.0,0.0,0.0,0.0,0.0,0.0,0.0,0.0,0.0,0.0,0.0,0.0,0.7254,0.9631,0.9255,0.8038,0.8038,0.0,0.0,0.9406,0.8038,0.8137,0.8627,0.8722,0.9056,1.0439,0.0,0.8804,0.8804,1.0795,1.176,0.9271,0.8804,0.0,0.0,0.0,0.7666,0.5023,0.6078,0.7363,0.7967,0.0,0.0,0.8038,0.8038,0.8038,0.8038,0.8038,0.8038,0.8038,0.8038,0.8038,0.8038,0.857,0.8594,0.8045,0.8038,0.8038,0.8038,0.8038,0.5225,0.0,0.0,0.0,0.0,0.0,0.0,0.0,0.0,0.0,0.0,0.0,0.0,0.0,0.0,0.0,0.0,0.0,0.0,0.0,0.0,0.0,0.0,0.0,0.0816,0.0441,0.0378,0.0575,0.1248,0.2635,0.3508,0.0,0.0,0.0,0.0,0.0,0.0,0.0,0.0,0.0,0.0,0.0,0.0,0.0,0.0,0.0,0.0,0.0,0.0,0.0,0.0,0.0,0.0,0.0,0.0,0.0,0.0,0.0,0.0,0.0,0.0,0.0,0.0,0.0,0.0,0.0,0.0,0.0,0.0,0.8136,0.7949,0.0,0.0,1.1427,1.0672,0.8528,0.8038,0.8038,0.8038,0.8038,0.8489,1.0173,0.0,0.8804,0.8804,0.9673,1.0079,0.9015,0.8804,0.8804,0.0,0.0,0.0,0.4897,0.5705,0.6966,0.7926,0.8038,0.0,0.0,0.0,0.8038,0.8038,0.8038,0.8038,0.8038,0.8038,0.8204,0.8567,0.8815,0.8648,0.8045,0.8038,0.8038,0.7939,0.4722,0.2115,0.0,0.0,0.0,0.0,0.0,0.0,0.0,0.0,0.0,0.0,0.0,0.0,0.0,0.0,0.0,0.0,0.0,0.0,0.0,0.0,0.0,0.0,0.0999,0.0377,0.0245,0.0935,0.0532,0.088,0.2725,0.3347,0.3956,0.4797,0.0,0.0,0.0,0.0,0.0,0.0,0.0,0.0,0.0,0.0,0.0,0.0,0.0,0.0,0.0,0.0,0.4395,0.4778,0.0,0.0,0.0,0.0,0.0,0.0,0.0,0.0,0.0,0.0,0.0,0.0,0.0,0.0,0.0,0.0,0.0,0.0,0.0,0.0,0.0,0.0,0.9586,0.7811,0.7991,0.8038,0.8038,0.8038,0.7906,0.8102,0.0,0.0,0.8704,0.835,0.8277,0.839,0.8744,0.8804,0.8804,0.0,0.0,0.7771,0.4897,0.5415,0.6305,0.0,0.0,0.8038,0.0,0.8038,0.8038,0.8038,0.8038,0.8116,0.8296,0.8306,0.8499,0.8923,0.8767,0.8554,0.8306,0.8306,0.8214,0.7939,0.2516,0.0,0.0,0.0,0.0,0.0,0.0,0.0,0.0,0.0,0.0,0.0,0.0,0.0,0.0,0.0,0.0,0.0,0.0,0.0,0.0,0.0,0.0,0.0,0.0,0.0379,0.0824,0.3161,0.1792,0.1332,0.3285,0.3744,0.4004,0.4285,0.0,0.0,0.0,0.0,0.0,0.0,0.0,0.0,0.0,0.0,0.0,0.0,0.0,0.0,0.0,0.0,0.0,0.0,0.0,0.0,0.0,0.0,0.0,0.0,0.0,0.0,0.0,0.0,0.0,0.0,0.0,0.0,0.0,0.0,0.0,0.0,0.0,0.0,0.0,0.0,0.5823,0.7278,0.7879,0.8038,0.8038,0.8038,0.759,0.7413,0.0,0.8818,0.847,0.7281,0.7041,0.7402,0.8591,0.8804,0.8804,0.8804,0.0,0.0,0.4897,0.5047,0.5442,0.0,0.0,0.8038,0.8038,0.8038,0.8038,0.8038,0.8038,0.0,0.8899,0.893,0.893,0.894,0.836,0.8333,0.8923,0.893,0.8632,0.7939,0.2516,0.0,0.0,0.0,0.0,0.0,0.0,0.0,0.0,0.0,0.0,0.0,0.0,0.0,0.0,0.0,0.0,0.0,0.0,0.0,0.0,0.0,0.0,0.0,0.0,0.0,0.1062,0.176,0.1797,0.2389,0.4073,0.4532,0.4677,0.4587,0.0,0.0,0.0,0.0,0.0,0.0,0.0,0.0,0.0,0.0,0.0,0.0,0.0,0.0,0.0,0.0,0.0,0.0,0.0,0.0,0.0,0.0,0.0,0.0,0.0,0.0,0.0,0.0,0.0,0.0,0.0,0.0,0.0,0.0,0.0,0.0,0.0,0.0,0.0,0.0,0.0,0.0,0.6929,0.7726,0.794,0.7529,0.698,0.6289,0.5466,0.6476,0.7482,0.7101,0.7675,0.8357,0.8738,0.8804,0.8804,0.8804,0.8804,0.0,0.0,0.0,0.0,0.5377,0.6227,0.7146,0.0,0.0,0.8038,0.8038,0.8038,0.8303,0.8906,0.894,0.894,0.894,0.8353,0.813,0.8323,0.8323,0.8228,0.7939,0.2516,0.0,0.0,0.0,0.0,0.0,0.0,0.0,0.0,0.0,0.0,0.0,0.0,0.0,0.0,0.0,0.0,0.0,0.0,0.0,0.0,0.0,0.0,0.0,0.0,0.0,0.1927,0.2194,0.2772,0.3461,0.4252,0.4613,0.4686,0.4426,0.0,0.0,0.0,0.0,0.0,0.0,0.0,0.0,0.0,0.0,0.0,0.0,0.0,0.0,0.0,0.0,0.0,0.0,0.0,0.0,0.0,0.0,0.0,0.0,0.0,0.0,0.2191,0.0,0.0,0.0,0.0,0.0,0.0,0.0,0.0,0.0,0.0,0.0,0.0,0.0,0.4272,0.3904,0.0,0.6071,0.6268,0.5891,0.5521,0.0,0.3836,0.5346,0.6979,0.6979,0.7976,0.8804,0.8804,0.8804,0.8804,0.8804,0.8804,0.0,0.0,0.0,0.0,0.6247,0.0,0.0,0.0,0.683,0.8038,0.8038,0.6126,0.6047,0.8471,0.8601,0.8601,0.8601,0.8455,0.8269,0.8041,0.8038,0.8038,0.7939,0.2516,0.0,0.0,0.0,0.0,0.0,0.0,0.0,0.0,0.0,0.0,0.0,0.0,0.0,0.0,0.0,0.0,0.0,0.0,0.0,0.0,0.0,0.0,0.0,0.0,0.0,0.0,0.0,0.0,0.4443,0.4027,0.4191,0.0,0.0,0.0,0.0,0.0,0.0,0.0,0.0,0.0,0.0,0.0,0.0,0.0,0.4171,0.364,0.3132,0.2632,0.0,0.0,0.0,0.0,0.0,0.0,0.0,0.0,0.0,0.0,0.0,0.0,0.0,0.0,0.0,0.0,0.0,0.0,0.0,0.0,0.0,0.0,0.0,0.0,0.0,0.0,0.0,0.0,0.3711,0.3581,0.3581,0.0,0.0,0.3796,0.5475,0.0,0.6979,0.7976,0.8804,0.8804,0.8804,0.8804,0.8804,0.8804,0.913,0.0,0.7489,0.0,0.0,0.3017,0.0,0.0,0.4522,0.7434,0.7434,0.2816,0.2214,0.7132,0.7842,0.8045,0.8038,0.8584,0.8604,0.8045,0.8038,0.8038,0.7939,0.2917,0.0605,0.0605,0.0202,0.0,0.0,0.0,0.0,0.0,0.0,0.0,0.0,0.0,0.0,0.0,0.0,0.0,0.0,0.0,0.0,0.0,0.0,0.0,0.0,0.0,0.0,0.0,0.0,0.0,0.4715,0.4814,0.4686,0.0,0.0,0.0,0.0,0.0,0.0,0.0,0.0,0.0,0.0,0.0,0.0,0.0,0.4873,0.3075,0.2132,0.2022,0.2762,0.0,0.0,0.0,0.0,0.0,0.0,0.0,0.0,0.0,0.0,0.0,0.0,0.0,0.0,0.2712,0.2712,0.0,0.0,0.0,0.0,0.0,0.0,0.0,0.0,0.3648,0.3972,0.5733,0.0,0.3581,0.3581,0.3581,0.4056,0.0,0.6634,0.6979,0.0,0.0,0.8804,0.8804,0.8804,0.8804,0.8804,0.8804,0.8129,0.6181,0.0,0.0,0.23,0.0807,0.0,0.0,0.1109,0.1913,0.1913,0.0706,0.0504,0.1813,0.5768,0.8002,0.8041,0.8177,0.818,0.8041,0.8038,0.8038,0.7939,0.6731,0.6126,0.6027,0.1913,0.0,0.0,0.0,0.0,0.0,0.0,0.0,0.0,0.0,0.0,0.0,0.0,0.0,0.0,0.0,0.0,0.0,0.0,0.0,0.0,0.0,0.0,0.0,0.0,0.0,0.0,0.0,0.0,0.0,0.0,0.0,0.0,0.0,0.0,0.0,0.0,0.0,0.0,0.0,0.0,0.0,0.0,0.0,0.1803,0.0,0.0,0.0,0.0,0.0,0.0,0.0,0.0,0.0,0.0,0.1803,0.0,0.0,0.0,0.0,0.0,0.2712,0.2712,0.0,0.3626,0.4532,0.5309,0.0,0.0,0.0,0.0,0.4884,0.5221,0.5389,0.453,0.3581,0.3581,0.3581,0.3928,0.5178,0.0,0.0,0.0,0.0,0.7989,0.7989,0.8437,0.8804,0.8804,0.8804,0.0,0.0,0.0,0.6568,0.4004,0.3213,0.2141,0.0,0.0,0.0,0.0,0.0,0.0,0.0,0.2731,0.5466,0.7892,0.7995,0.7975,0.8038,0.8038,0.8038,0.8038,0.8038,0.8038,0.7839,0.2415,0.0,0.0,0.0,0.0,0.0,0.0,0.0,0.0,0.0,0.0,0.0,0.0,0.0,0.0,0.0,0.0,0.0,0.0,0.0,0.0,0.0,0.0,0.0,0.0,0.0,0.0,0.0,0.0,0.0,0.0,0.0,0.0,0.0,0.0,0.0,0.0,0.0,0.0,0.0,0.0,0.0,0.0,0.0,0.0,0.0,0.0,0.4068,0.0,0.0,0.0,0.0,0.0,0.0,0.0,0.1803,0.0,0.0,0.0,0.0,0.0,0.0,0.0,0.0,0.4788,0.5309,0.5309,0.5309,0.0,0.0,0.0,0.0,0.0,0.4156,0.3581,0.3602,0.3693,0.3714,0.369,0.0,0.0,0.0,0.0,0.0,0.0,0.0,0.8123,0.0,0.0,0.0,0.0,0.6345,0.6634,0.7193,0.7706,0.7037,0.0,0.1592,0.0505,0.0,0.0,0.0,0.0,0.0,0.0,0.2123,0.6611,0.6816,0.7199,0.7959,0.8045,0.8038,0.8038,0.8038,0.8038,0.7839,0.3318,0.0807,0.0,0.0,0.0,0.0,0.0,0.0,0.0,0.0,0.0,0.0,0.0,0.0,0.0,0.0,0.0,0.0,0.0,0.0,0.0,0.0,0.0,0.0,0.0,0.0,0.0,0.0,0.0,0.0,0.0,0.0,0.0,0.0,0.0,0.0,0.0,0.0,0.0,0.0,0.0,0.0,0.0,0.0,0.0,0.4737,0.3892,0.4068,0.0,0.0,0.0,0.3506,0.3506,0.2848,0.1803,0.1803,0.0,0.0,0.0,0.0,0.0,0.0,0.0,0.0,0.5214,0.5309,0.5309,0.5309,0.0,0.0,0.0,0.0,0.0,0.3945,0.3581,0.3746,0.4254,0.4381,0.4247,0.0,0.0,0.0,0.0,0.0,0.0,0.0,0.0,0.799,0.0,0.0,0.5803,0.0,0.0,0.643,0.6522,0.0,0.7446,0.6816,0.2616,0.0,0.0,0.0,0.0,0.0,0.0,0.0404,0.1212,0.1212,0.3438,0.7938,0.7972,0.8038,0.8038,0.8038,0.8038,0.7939,0.7132,0.432,0.0,0.0,0.0,0.0,0.0,0.0,0.0,0.0,0.0,0.0,0.0,0.0,0.0,0.0,0.0,0.0,0.0,0.0,0.0,0.0,0.0,0.0,0.0,0.0,0.0,0.0,0.0,0.0,0.0,0.0,0.0,0.0,0.0,0.0,0.0,0.0,0.0,0.0,0.0,0.0,0.0,0.0,0.3715,0.4322,0.4363,0.4626,0.5049,0.0,0.0,0.3464,0.2848,0.228,0.1741,0.0,0.0,0.0,0.0,0.0,0.0,0.0,0.0,0.0,0.0,0.5309,0.5309,0.5309,0.0,0.0,0.0,0.0,0.0,0.5571,0.453,0.3767,0.4367,0.4275,0.3962,0.3643,0.0,0.0,0.0,0.0,0.0,0.0,0.0,0.6128,0.5136,0.0,0.6322,0.6322,0.6841,0.7221,0.0,0.0,0.8038,0.8038,0.3118,0.0,0.0,0.0,0.0,0.0,0.0,0.0,0.0,0.0,0.2622,0.7992,0.7959,0.8038,0.8038,0.8038,0.8038,0.8038,0.8038,0.5022,0.0,0.0,0.0,0.0,0.0,0.0,0.0,0.0,0.0,0.0,0.0,0.0,0.0,0.0,0.0,0.0,0.0,0.0,0.0,0.0,0.0,0.0,0.0,0.0,0.0,0.0,0.0,0.0,0.0,0.0,0.0,0.0,0.0,0.0,0.0,0.0,0.0,0.0,0.0,0.3602,0.1803,0.2066,0.2773,0.389,0.4706,0.5108,0.0,0.0,0.0,0.3421,0.228,0.1885,0.1893,0.0,0.0,0.0,0.0,0.0,0.0,0.0,0.0,0.0,0.0,0.0,0.0,0.0,0.0,0.0,0.5605,0.6319,0.6979,0.6979,0.5235,0.3554,0.4158,0.0,0.3832,0.3832,0.0,0.0,0.0,0.0,0.0,0.0,0.4752,0.0,0.5681,0.6546,0.719,0.7329,0.775,0.8038,0.8038,0.8038,0.8038,0.8038,0.4321,0.1913,0.1913,0.0706,0.0,0.0,0.0,0.0,0.0,0.0,0.262,0.7965,0.8048,0.8038,0.8038,0.8038,0.8038,0.8038,0.8038,0.5724,0.1813,0.0504,0.0,0.0,0.0,0.0,0.0,0.0,0.0,0.0,0.0,0.0,0.0,0.0,0.0,0.0,0.0,0.0,0.0,0.0,0.0,0.0,0.0,0.0,0.0,0.0,0.0,0.0,0.0,0.0,0.0,0.0,0.0,0.0,0.0,0.0,0.0,0.0,0.256,0.1956,0.1803,0.2848,0.3924,0.4991,0.5069,0.5108,0.5088,0.0,0.0,0.3421,0.228,0.2129,0.2475,0.0721,0.0,0.0,0.0,0.0,0.0,0.0,0.0,0.0,0.0,0.0,0.0,0.0,0.0,0.5491,0.658,0.6954,0.6979,0.6979,0.4925,0.2925,0.3493,0.0,0.0,0.4453,0.0,0.0,0.0,0.0,0.0,0.0,0.5446,0.6325,0.6915,0.7085,0.7336,0.7896,0.0,0.8038,0.8038,0.8038,0.8038,0.8038,0.7637,0.7434,0.7434,0.2816,0.0,0.0,0.0,0.0,0.0,0.0,0.2527,0.7948,0.7975,0.8038,0.8038,0.8038,0.8038,0.8038,0.8038,0.7839,0.7132,0.2114,0.0,0.0,0.0,0.0,0.0,0.0,0.0,0.0,0.0,0.0,0.0,0.0,0.0,0.0,0.0,0.0,0.0,0.0,0.0,0.0,0.0,0.0,0.0,0.0,0.0,0.0,0.0,0.0,0.0,0.0,0.0,0.0,0.0,0.0,0.2,0.2433,0.2022,0.1803,0.1803,0.2934,0.4048,0.5108,0.5108,0.0,0.0,0.0,0.0,0.3421,0.228,0.2156,0.2527,0.0731,0.0,0.0,0.0,0.0,0.0,0.0,0.0,0.0,0.0,0.5309,0.5484,0.0,0.0,0.5511,0.668,0.6979,0.6979,0.6979,0.5184,0.3293,0.3524,0.0,0.0,0.0,0.0,0.0,0.0,0.0,0.0,0.0,0.0,0.546,0.6434,0.6902,0.7221,0.7448,0.7804,0.8038,0.8038,0.8038,0.7892,0.7516,0.7482,0.7634,0.8011,0.5764,0.3088,0.0188,0.0,0.0,0.0,0.0,0.0963,0.3034,0.6381,0.8038,0.8045,0.7986,0.8038,0.8038,0.8038,0.8038,0.7736,0.2315,0.0,0.0,0.0,0.0,0.0,0.0,0.0,0.0,0.0,0.0,0.0,0.0,0.0,0.0,0.0,0.0,0.0,0.0,0.0,0.0,0.0,0.0,0.0,0.0,0.0,0.0,0.0,0.0,0.0,0.0,0.0,0.0,0.0,0.0,0.1803,0.1803,0.1803,0.1803,0.1803,0.2934,0.3869,0.4606,0.0,0.0,0.0,0.0,0.0,0.0,0.2493,0.2001,0.175,0.0489,0.0,0.0,0.0,0.0,0.0,0.0,0.0,0.0,0.0,0.0,0.0,0.0,0.0,0.0,0.0,0.6979,0.6852,0.6118,0.4787,0.3626,0.0,0.0,0.0,0.0,0.0,0.0,0.0,0.0,0.0,0.0,0.0,0.0,0.0,0.66,0.6926,0.7112,0.7495,0.7756,0.7756,0.7756,0.7594,0.718,0.7139,0.7312,0.7723,0.7373,0.4999,0.0269,0.0,0.0,0.0,0.0,0.0,0.0,0.3613,0.5515,0.5517,0.5501,0.5498,0.5525,0.5525,0.5525,0.5222,0.1612,0.0,0.0,0.0,0.0,0.0,0.0,0.0,0.0,0.0,0.0,0.0,0.0,0.0,0.0,0.0,0.0,0.0,0.0,0.0,0.0,0.0,0.0,0.0,0.0,0.0,0.0,0.0,0.0,0.0,0.0,0.0,0.0,0.0,0.0,0.1806,0.1813,0.1806,0.1825,0.1825,0.2955,0.3506,0.3527,0.4587,0.0,0.0,0.0,0.0,0.0,0.0,0.1664,0.0,0.0,0.0,0.0,0.0,0.0,0.0,0.0,0.0,0.0,0.0,0.5322,0.0,0.0,0.0,0.0,0.0,0.6979,0.6507,0.4232,0.3581,0.3721,0.0,0.0,0.0,0.0,0.0,0.0,0.0,0.0,0.0,0.0,0.0,0.0,0.6239,0.6268,0.6474,0.7058,0.7139,0.7139,0.7139,0.7139,0.7139,0.7139,0.7139,0.7139,0.7132,0.7136,0.4999,0.0269,0.0,0.0,0.0,0.0,0.0,0.0,0.0,0.0,0.0,0.0,0.0,0.0,0.0,0.0,0.0,0.0,0.0,0.0,0.0,0.0,0.0,0.0,0.0,0.0,0.0,0.0,0.0,0.0,0.0,0.0,0.0,0.0,0.0,0.0,0.0,0.0,0.0,0.0,0.0,0.0,0.0,0.0,0.0,0.0,0.0,0.0,0.0,0.0,0.0,0.0,0.0,0.0,0.0,0.3004,0.3004,0.333,0.3506,0.0,0.0,0.0,0.4763,0.0,0.0,0.0,0.0,0.1642,0.0,0.0,0.0,0.0,0.0,0.0,0.0,0.0,0.0,0.0,0.0,0.0,0.0,0.0,0.0,0.0,0.6921,0.6979,0.6507,0.4232,0.3581,0.0,0.0,0.0,0.0,0.0,0.0,0.0,0.0,0.0,0.0,0.0,0.0,0.0,0.6234,0.661,0.6939,0.7115,0.7139,0.7139,0.7139,0.7139,0.7139,0.7139,0.7139,0.6966,0.6552,0.6905,0.4999,0.0269,0.0,0.0,0.0,0.0,0.0,0.0,0.0,0.0,0.0,0.0,0.0,0.0,0.0,0.0,0.0,0.0,0.0,0.0,0.0,0.0,0.0,0.0,0.0,0.0,0.0,0.0,0.0,0.0,0.0,0.0,0.0,0.0,0.0,0.0,0.0,0.0,0.0,0.0,0.0,0.0,0.0,0.0,0.0,0.0,0.0,0.0,0.0,0.0,0.0,0.0,0.0,0.0,0.3005,0.3185,0.0,0.0,0.0,0.0,0.0,0.0,0.5277,0.0,0.3691,0.0,0.0,0.164,0.0,0.0,0.0,0.0,0.0,0.0,0.0,0.0,0.0,0.0,0.0,0.0,0.0,0.0,0.0,0.0,0.6979,0.6979,0.6507,0.4232,0.0,0.0,0.0,0.0,0.0,0.0,0.0,0.0,0.0,0.0,0.0,0.5377,0.584,0.0,0.6338,0.6559,0.6871,0.7105,0.7139,0.7139,0.7139,0.6932,0.679,0.679,0.679,0.6644,0.6288,0.659,0.4838,0.0256,0.0,0.0,0.0,0.0,0.0,0.0,0.0,0.0,0.0,0.0,0.0,0.0,0.0,0.0,0.0,0.0,0.0,0.0,0.0,0.0,0.0,0.0,0.0,0.0,0.0,0.0,0.0,0.0,0.0,0.0,0.0,0.0,0.0,0.0,0.0,0.0,0.0,0.0,0.0,0.0,0.0,0.0,0.0,0.0,0.0,0.0,0.0,0.0,0.0,0.0,0.0,0.0,0.0,0.0,0.0,0.0,0.0,0.0,0.0,0.5214,0.4985,0.0,0.2712,0.0,0.2712,0.164,0.0,0.0,0.0,0.0,0.0,0.0,0.0,0.0,0.0,0.0,0.0,0.0,0.0,0.0,0.0,0.6979,0.6979,0.6852,0.6246,0.414,0.0,0.0,0.0,0.0,0.0,0.0,0.0,0.0,0.0,0.0,0.6338,0.6338,0.6338,0.6338,0.6338,0.6338,0.6447,0.6987,0.6705,0.6618,0.697,0.6586,0.6338,0.6338,0.6338,0.6103,0.5786,0.5712,0.4066,0.0235,0.0,0.0,0.0,0.0,0.0,0.0,0.0,0.0,0.0,0.0,0.0,0.0,0.0,0.0,0.0,0.0,0.0,0.0,0.0,0.0,0.0,0.0,0.0,0.0,0.0,0.0,0.0,0.0,0.0,0.0,0.0,0.0,0.0,0.0,0.0,0.0,0.0,0.0,0.0,0.0,0.0,0.0,0.0,0.0,0.0,0.0,0.0,0.0,0.0,0.0,0.0,0.0,0.0,0.0,0.0,0.0,0.0,0.0,0.0,0.0,0.3233,0.0,0.2712,0.2712,0.2712,0.164,0.0,0.0,0.0,0.0,0.0,0.1138,0.0,0.0,0.0,0.0,0.0,0.0,0.0,0.6979,0.6979,0.6979,0.6979,0.5733,0.4232,0.0,0.3966,0.0,0.0,0.0,0.0,0.0,0.0,0.0,0.0,0.6338,0.6338,0.6338,0.6338,0.6338,0.6338,0.6338,0.6305,0.643,0.3624,0.274,0.6045,0.6339,0.6338,0.6338,0.6338,0.4927,0.1566,0.1332,0.0941,0.0079,0.0,0.0,0.0,0.0,0.0,0.0,0.0,0.0,0.0,0.0,0.0,0.0,0.0,0.0,0.0,0.0,0.0,0.0,0.0,0.0,0.0,0.0,0.0,0.0,0.0,0.0,0.0,0.0,0.0,0.0,0.0,0.0,0.0,0.0,0.0,0.0,0.0,0.0,0.0,0.0,0.0,0.0,0.0,0.0,0.0,0.0,0.0,0.0,0.0,0.0,0.0,0.0,0.0,0.0,0.0,0.0,0.0,0.0,0.0,0.0,0.2712,0.0,0.2712,0.2712,0.2712,0.164,0.0,0.0,0.0,0.0,0.0,0.1286,0.3149,0.3149,0.0,0.0,0.0,0.0,0.0,0.0,0.0,0.6803,0.569,0.453,0.3581,0.0,0.0,0.0,0.0,0.0,0.0,0.0,0.0,0.0,0.0,0.6136,0.6249,0.5957,0.5902,0.5902,0.5902,0.6146,0.6338,0.6338,0.2631,0.1459,0.5391,0.5902,0.6016,0.6311,0.4457,0.3069,0.2631,0.0949,0.0,0.0,0.0,0.0,0.0,0.0,0.0,0.0,0.0,0.0,0.0,0.0,0.0,0.0,0.0,0.0,0.0,0.0,0.0,0.0,0.0,0.0,0.0,0.0,0.0,0.0,0.0,0.0,0.0,0.0,0.0,0.0,0.0,0.0,0.0,0.0,0.0,0.0,0.0,0.0,0.0,0.0,0.0,0.0,0.0,0.0,0.0,0.0,0.0,0.0,0.0,0.0,0.0,0.0,0.0,0.0,0.0,0.0,0.0,0.0,0.0,0.0,0.2712,0.0,0.0,0.2712,0.2712,0.184,0.0469,0.0469,0.0514,0.0639,0.0639,0.1845,0.3581,0.3581,0.5048,0.6937,0.655,0.0,0.0,0.0,0.0,0.6033,0.4144,0.3581,0.3581,0.0,0.0,0.0,0.0,0.0,0.0,0.0,0.0,0.0,0.4619,0.5758,0.6029,0.5521,0.5428,0.5428,0.5428,0.5851,0.618,0.618,0.3122,0.1812,0.4154,0.4489,0.4651,0.5147,0.2062,0.1255,0.425,0.1678,0.0,0.0,0.0,0.0,0.0,0.0,0.0,0.0,0.0,0.0,0.0,0.0,0.0,0.0,0.0,0.0,0.0,0.0,0.0,0.0,0.0,0.0,0.0,0.0,0.0,0.0,0.0,0.0,0.0,0.0,0.0,0.0,0.0,0.0,0.0,0.0,0.0,0.0,0.0,0.0,0.0,0.0,0.0,0.0,0.0,0.0,0.0,0.0247,0.0,0.0,0.0,0.0,0.0,0.0,0.0,0.0,0.0,0.0,0.0,0.0,0.0,0.0,0.2712,0.0,0.0,0.0,0.2712,0.2547,0.2344,0.2344,0.2655,0.3113,0.3113,0.3333,0.3581,0.3581,0.5048,0.6677,0.4705,0.4056,0.0,0.0,0.0,0.4012,0.3711,0.3581,0.3581,0.0,0.0,0.0,0.0,0.0,0.0,0.0,0.0,0.4008,0.0,0.5123,0.5525,0.5442,0.5428,0.5428,0.5428,0.5497,0.5549,0.5549,0.5004,0.3685,0.1008,0.074,0.0744,0.0824,0.0344,0.0205,0.0674,0.0269,0.0,0.0,0.0,0.0,0.0,0.0,0.0,0.0,0.0,0.0,0.0,0.0,0.0,0.0,0.0,0.0,0.0,0.0,0.0,0.0,0.0,0.0,0.0,0.0,0.0,0.0,0.0,0.0,0.0,0.0,0.0,0.0,0.0,0.0,0.0,0.0,0.0,0.0,0.0,0.0,0.0,0.0,0.0,0.0,0.0,0.0,0.0,0.0,0.0,0.0,0.0,0.0,0.0,0.0,0.0,0.0,0.0,0.0,0.0,0.0,0.2959,0.297,0.0,0.0,0.0,0.0,0.0,0.3185,0.3185,0.3185,0.3344,0.3581,0.3581,0.3581,0.3581,0.3581,0.4481,0.5453,0.4418,0.39,0.3581,0.3581,0.0,0.0,0.0,0.3581,0.0,0.0,0.0,0.0,0.0,0.0,0.0,0.0,0.0,0.4519,0.4519,0.4731,0.4917,0.4917,0.4917,0.503,0.5373,0.514,0.4917,0.4917,0.4917,0.3701,0.0366,0.0,0.0,0.0,0.0,0.0,0.0,0.0,0.0,0.0,0.0,0.0,0.0,0.0,0.0,0.0,0.0,0.0,0.0,0.0,0.0,0.0,0.0,0.0,0.0,0.0,0.0,0.0,0.0,0.0,-0.025,-0.2579,-0.2082,0.0,0.0,0.0,0.0,0.0,0.0,0.0,0.0,0.0,0.0,0.0,0.0,0.0,0.0,0.0,0.0,0.0,0.0,0.0,0.0,0.0,0.0,0.0,0.0,0.0,0.0,0.0,0.0,0.0,0.0,0.0,0.0,0.0,0.0,0.2024,0.2467,0.2769,0.0,0.2946,0.0,0.0,0.0,0.0,0.0,0.3581,0.3581,0.3581,0.3581,0.3673,0.3832,0.3636,0.4007,0.4519,0.4519,0.412,0.3581,0.3581,0.3581,0.0,0.0,0.0,0.0,0.0,0.0,0.0,0.0,0.0,0.0,0.0,0.0,0.3569,0.0,0.4525,0.4519,0.4519,0.4519,0.4666,0.5123,0.4814,0.4519,0.4519,0.4519,0.34,0.0336,0.0,0.0,0.0,0.0,0.0,0.0,0.0,0.0,0.0,0.0,0.0,0.0,0.0,0.0,0.0,0.0,0.0,0.0,0.0,-0.0471,-0.1344,-0.1344,-0.1404,-0.1359,-0.0378,0.0,-0.0076,-0.1164,-0.1566,-0.1879,-0.5082,-0.3752,0.0,0.0,0.0,0.0,0.0,0.0,0.0,0.0,0.0,0.0,0.0,0.0,0.0,0.0,0.0,0.0,0.0,0.0,0.0,0.0,0.0,0.0,0.0,0.0,0.0,0.0,0.0,0.0,0.0,0.0,0.0,0.0,0.0,0.0,0.018,0.1875,0.3023,0.3534,0.3534,0.3551,0.3581,0.0,0.0,0.0,0.0,0.0,0.0,0.0,0.3976,0.0,0.0,0.4007,0.4519,0.4519,0.412,0.3581,0.3581,0.3581,0.369,0.0,0.0,0.0,0.0,0.0,0.0,0.0,0.0,0.0,0.0,0.0,0.0,0.3896,0.4494,0.4519,0.4519,0.4519,0.4529,0.456,0.4539,0.4519,0.4519,0.4519,0.34,0.0336,0.0,0.0,0.0,0.0,0.0,0.0,0.0,0.0,0.0,0.0,0.0,0.0,0.0,0.0,0.0,0.0,0.0,0.0,0.0,-0.1812,-0.5093,-0.5093,-0.5106,-0.4931,-0.1491,0.0,-0.0342,-0.429,-0.5948,-0.6022,-0.6183,-0.3752,0.0,0.0,0.0,0.0,0.0,0.0,0.0,0.0,0.0,0.0,0.0,0.0,0.0,0.0,0.0,0.0,0.0,0.0,0.0,0.0,0.0,0.0,0.0,0.0,0.0,0.0,0.0,-0.0536,-0.1707,0.0,0.0,0.0,0.0,-0.1522,0.0,0.0683,0.1889,0.3612,0.3592,0.3581,0.3581,0.3581,0.0,0.0,0.0,0.0,0.0,0.0,0.0,0.0,0.0,0.0,0.4519,0.4519,0.4374,0.4199,0.4199,0.4199,0.4165,0.3993,0.0,0.0,0.0,0.0,0.0,0.0,0.0,0.0,0.0,0.0,0.028,0.1403,0.3147,0.4507,0.4507,0.4484,0.4519,0.4519,0.4519,0.4519,0.4519,0.2843,0.1229,0.0112,0.0,0.0,0.0,0.0,0.0,0.0,0.0,0.0,0.0,0.0,0.0,0.0,0.0,0.0,0.0,0.0,-0.1186,-0.3485,-0.3485,-0.4154,-0.5428,-0.5428,-0.5428,-0.5362,-0.402,-0.3485,-0.356,-0.5101,-0.5985,-0.63,-0.5906,-0.3401,0.0,0.0,0.0,0.0,0.0,0.0,0.0,0.0,0.0,0.0,0.0,0.0,0.0,0.0,0.0,0.0,0.0,0.0,0.0,0.0,0.0,0.0,0.0,0.0,0.0,0.0,0.0,-0.0556,-0.1786,0.0,0.0,0.0,0.0,0.0,0.0,0.0,0.0855,0.2391,0.2377,0.2862,0.0,0.0,0.0,0.3581,0.0,0.0,0.2449,0.0,0.0,0.0,0.0,0.0,0.0,0.4519,0.4519,0.4519,0.4519,0.4519,0.4398,0.0,0.0,0.0,0.3925,0.0,0.0,0.0,0.0,0.0,0.0,0.0,0.0,0.0,0.1572,0.2986,0.2986,0.2968,0.301,0.301,0.301,0.301,0.301,0.1285,0.0,0.0,0.0,0.0,0.0,0.0,0.0,0.0,0.0,0.0,0.0,0.0,0.0,0.0,0.0,0.0,0.0,0.0,-0.1788,-0.5428,-0.5428,-0.5428,-0.5428,-0.5428,-0.5428,-0.5428,-0.5428,-0.5428,-0.5428,-0.5428,-0.5669,-0.6012,-0.5813,-0.4206,-0.2113,-0.2113,-0.2113,-0.2113,0.0,0.0,0.0,0.0,0.0,0.0,0.0,0.0,0.0,0.0,0.0,0.0,0.0,0.0,0.0,0.0,0.0,0.0,0.0,0.0,0.0,0.0,0.0,0.0,0.0,-0.009,0.0,0.0,0.0,0.0,0.0,0.0,0.0045,0.0,0.0045,0.1298,0.349,0.0,0.3581,0.3581,0.0,0.2113,0.0,0.0,0.0,0.0,0.3289,0.4349,0.0,0.4349,0.0,0.0,0.0,0.0,0.0,0.0,0.0,0.0,0.0,0.0,0.0,0.0,0.0,0.0,0.0,0.0,0.0,0.0,0.0,0.0,0.0,0.0,0.0,0.0,0.0,0.0,0.0,0.0,0.0,0.0,0.0,0.0,0.0,0.0,0.0,0.0,0.0,0.0,0.0,0.0,0.0,0.0,0.0,0.0,0.0,0.0,-0.1785,-0.5401,-0.5401,-0.5401,-0.5401,-0.5401,-0.5401,-0.5401,-0.5401,-0.5411,-0.5428,-0.5428,-0.5428,-0.5487,-0.6081,-0.6311,-0.6314,-0.6331,-0.6328,-0.6314,0.0,0.0,0.0,0.0,0.0,0.0,0.0,0.0,0.0,0.0,0.0,0.0,0.0,0.0,0.0,0.0,0.0,0.0,0.0,0.0,0.0,0.0,0.0,0.0,0.0,-0.17,0.0,0.0,0.0,0.0,0.0,0.0,0.0,0.0,0.0762,0.0359,0.112,0.2862,0.0,0.0,0.17,0.0592,0.0,0.0,0.0,0.0,0.0,0.1229,0.1229,0.0,0.1229,0.1619,0.0,0.0,0.0,0.0,0.0,0.0,0.4519,0.0,0.0,0.0,0.0,0.0,0.0,0.0,0.0,0.0,0.0,0.0,0.0,0.0,0.0,0.0,0.0,0.0,0.0,0.0,0.0,0.0,0.0,0.0,0.0,0.0,0.0,0.0,0.0,0.0,0.0,0.0,0.0,0.0,0.0,0.0,0.0,0.0,-0.1593,-0.4769,-0.4769,-0.4769,-0.4769,-0.4769,-0.4769,-0.4769,-0.4769,-0.502,-0.5428,-0.5428,-0.5428,-0.5446,-0.5614,-0.5679,-0.5734,-0.6177,-0.6057,-0.5741,0.0,0.0,0.0,0.0,0.0,0.0,0.0,0.0,0.0,0.0,0.0,0.0,0.0,0.0,0.0,0.0,0.0,0.0,0.0,0.0,0.0,0.0,0.0,0.0,0.0,-0.2368,-0.3581,0.0,0.0,0.0,0.0,0.0,0.0,0.0,0.0,0.0,0.0,0.0,0.0,0.0,0.0579,0.0,0.0,0.0,0.0,0.0,0.0,0.0,0.0,0.0,0.0,0.0,0.0,0.0,0.0,0.0,0.0,0.0,0.0,0.0,0.0,0.0,0.0,0.0,0.2287,0.0895,0.0,0.0,0.0,0.0,0.0,0.0,0.0,0.0,0.0,0.0,0.0,0.0,0.0,0.0,0.0,0.0,0.0,0.0,0.0,0.0,0.0,0.0,0.0,0.0,0.0,0.0,0.0,0.0,0.0,-0.1229,-0.2788,-0.4519,-0.4519,-0.4519,-0.4519,-0.4519,-0.4519,-0.4519,-0.4519,-0.4718,-0.5068,-0.5322,-0.5428,-0.5428,-0.5428,-0.5428,-0.547,-0.5827,-0.5734,-0.5514,0.0,0.0,0.0,0.0,0.0,0.0,0.0,0.0,0.0,0.0,0.0,0.0,0.0,0.0,0.0,0.0,0.0,0.0,0.0,0.0,0.0,0.0,0.0,0.0,0.0,-0.2368,-0.3581,-0.3581,0.0,0.0,0.0,0.0,0.0,0.0,0.0,0.0,0.0,0.0,0.0,0.0,0.0,0.0,0.0,0.0,0.0,0.0,0.0,0.0,0.0,0.0,0.0,0.0,0.0,0.0,0.0,0.0,0.4236,0.0,0.0,0.0,0.0,0.0,0.0,0.0,0.4012,0.1898,0.0,0.0,0.0,0.0,0.0,0.0,0.0,0.0,0.0,0.0,0.0,0.0,0.0,0.0,0.0,0.0,0.0,0.0,0.0,0.0,0.0,0.0,0.0,0.0,0.0,0.0,0.0,0.0,0.0,-0.301,-0.4519,-0.4519,-0.4519,-0.4519,-0.4519,-0.4519,-0.4519,-0.4519,-0.4519,-0.4519,-0.456,-0.5102,-0.5367,-0.5428,-0.5428,-0.5428,-0.5428,-0.5428,-0.5428,-0.5504,-0.236,0.0,0.0,0.0,0.0,0.0,0.0,0.0,0.0,0.0,0.0,0.0,0.0,0.0,0.0,0.0,0.0,0.0,0.0,0.0,0.0,0.0,0.0,0.0,0.0,-0.2368,-0.3581,-0.3581,0.0,0.0,0.0,0.0,0.0,0.0,0.0,0.0,0.0,0.0,0.0,0.0,0.0,0.0,0.0,0.0,0.0,0.0,0.0,0.0,0.0,0.0,0.0,0.0112,0.0,0.0,0.0,0.0895,0.0,0.0,0.0,0.0,0.0,0.0,0.0,0.0,0.0895,0.0448,0.0,0.0,0.0,0.0,0.0,0.0,0.0,0.0,0.0,0.0,0.0,0.0,0.0,0.0,0.0,0.0,0.0,0.0,0.0,0.0,0.0,0.0,0.0,0.0,0.0,0.0,0.0,0.0,0.0,-0.301,-0.4519,-0.4519,-0.4519,-0.4519,-0.4519,-0.4519,-0.4519,-0.4519,-0.4519,-0.4519,-0.4525,-0.4646,-0.4985,-0.5428,-0.5428,-0.5428,-0.5428,-0.5428,-0.5428,-0.5446,-0.2524,0.0,0.0,0.0,0.0,0.0,0.0,0.0,0.0,0.0,0.0,0.0,0.0,0.0,0.0,0.0,0.0,0.0,0.0,0.0,0.0,0.0,0.0,-0.0583,-0.1789,-0.2996,-0.3581,-0.3581,0.0,0.0,0.0,0.0,0.0,0.0,0.0,0.0,0.0,0.0,0.1107,0.0,0.0,0.0,0.0,0.0,0.0,0.0,0.0,0.0,-0.0224,-0.173,-0.1229,0.0,0.0,0.0,0.0,0.0,0.1062,0.2232,0.0,0.0,0.0,0.0,0.0,0.0,0.0,0.0,0.0,0.0,0.0,0.0,0.0,0.0,0.0,0.0,0.0,0.0,0.0,0.0,0.0,0.0,0.0,0.0,0.0,0.0,0.0,0.0,0.0,0.0,0.0,0.0,0.0,0.0,-0.1452,-0.2232,-0.2232,-0.3735,-0.4519,-0.4519,-0.4519,-0.4519,-0.4519,-0.4519,-0.4519,-0.4519,-0.4519,-0.4519,-0.4519,-0.4519,-0.4697,-0.4975,-0.4975,-0.5161,-0.5428,-0.5428,-0.5428,-0.5428,-0.2245,0.0,0.0,0.0,0.0,0.0,0.0,0.0,0.0,0.0,0.0,0.0,0.0,0.0,0.0,0.0,0.0,0.0,0.0,0.0,0.0,0.0,0.0,-0.091,-0.2856,-0.3466,-0.3797,-0.3797,0.0,0.0,0.0,0.0,0.0,0.0,0.0,0.0,0.0,0.0,0.0,0.0,0.0,0.0,0.0,0.0,0.0,0.0,0.0,-0.0392,-0.1229,-0.368,-0.2899,-0.0783,-0.0168,0.0,0.0,0.0,0.0,0.0,0.0,0.0,0.0,0.0,0.0,0.0,0.0,0.0,0.0,0.0,0.0,0.0,0.0,0.0,0.0,0.0,0.0,0.0,0.0,0.0,0.0,0.0,0.0,0.0,0.0,0.0,0.0,0.0,0.0,-0.028,-0.0841,-0.0841,-0.0728,-0.0448,-0.3067,-0.4519,-0.4519,-0.4519,-0.4519,-0.4519,-0.4519,-0.4519,-0.4519,-0.4519,-0.4519,-0.4519,-0.4519,-0.4519,-0.4519,-0.4519,-0.4519,-0.4519,-0.4519,-0.4821,-0.5253,-0.5253,-0.5253,-0.527,-0.0638,-0.0302,0.0,0.0,0.0,0.0,0.0,0.0,0.0,0.0,0.0,0.0,0.0,0.0,0.0,0.0,0.0,0.0,0.0,0.0,0.0,0.0,0.0,-0.0144,-0.0382,-0.3051,-0.4415,-0.4415,0.0,0.0,0.0,0.0,0.0,0.0,0.0,0.0,0.0,0.0,0.0,0.0,0.0,0.0,0.0,0.0,0.0,0.0,0.0,-0.173,-0.4015,0.0,-0.4294,-0.3511,0.0,0.0,0.0,0.0,0.0,0.0,0.0,0.0,0.0,0.0,0.0,0.0,0.0,0.0,0.0,0.0,0.0,0.0,0.0,0.0,0.0,0.0,0.0,0.0,0.0,0.0,0.0,0.0,0.0,0.0,0.0,0.0,0.0,0.0,0.0,-0.1177,-0.3828,-0.3999,-0.337,-0.2015,-0.3627,-0.4519,-0.4519,-0.4519,-0.4519,-0.4519,-0.4519,-0.4519,-0.4519,-0.4519,-0.4519,-0.4519,-0.4519,-0.4519,-0.4519,-0.4519,-0.4519,-0.4519,-0.4519,-0.456,-0.4622,-0.4622,-0.4622,-0.4697,-0.0134,0.0,0.0,0.0,0.0,0.0,0.0,0.0,0.0,0.0,0.0,0.0,0.0,0.0,0.0,0.0,0.0,-0.1842,0.0,0.0,0.0,0.0,0.0,0.0,0.0,-0.2954,-0.4519,-0.4519,-0.4519,0.0,0.0,0.0,0.0,0.0,0.0,0.0,0.1812,0.0,0.0,0.0,0.0,0.0,0.0,0.0,0.0,-0.0224,-0.2009,-0.34,-0.4519,0.0,-0.4519,0.0,0.0,0.0,0.0,-0.0504,0.0,0.0,0.0,0.0,0.0,0.0,0.0,0.0,0.0,0.0,0.0,0.0,0.0,0.0,0.0,0.0,0.0,0.0,0.0,0.0,0.0,0.0,0.0,0.0,0.0,0.0,0.0,0.0,0.0,0.0,-0.1625,-0.3147,-0.4455,-0.4507,-0.4216,-0.3532,-0.4147,-0.4477,-0.4519,-0.4519,-0.4519,-0.4519,-0.4519,-0.4519,-0.4519,-0.4519,-0.4519,-0.4519,-0.4519,-0.4519,-0.4519,-0.4519,-0.4519,-0.4519,-0.4519,-0.4519,-0.4519,-0.4519,-0.4742,-0.5082,0.0,0.0,0.0,0.0,0.0,0.0,0.0,0.0,0.0,0.0,0.0,0.0,-0.4519,-0.4519,0.0,0.0,-0.4519,-0.3566,0.0,0.0,0.0,0.0,0.0,0.0,0.0,-0.212,-0.3677,-0.4519,0.0,0.0,0.0,0.0,0.0,0.0,0.0,0.0,0.0,0.0,0.0,-0.0056,-0.0898,-0.1232,-0.1229,-0.1229,-0.0727,-0.0392,-0.34,-0.4519,-0.4519,-0.4519,-0.4519,0.0,-0.504,-0.4876,-0.3901,0.0,0.0,0.0,0.0,0.0,0.0,0.0,0.0,0.0,0.0,0.0,0.0,0.0,0.0,0.0,0.0,0.0,0.0,0.0,0.0,0.0,0.0,-0.0728,0.0,0.0,0.0,0.0,0.0,0.0,0.0,0.0,-0.2809,-0.4511,-0.4507,-0.4497,-0.449,-0.4487,-0.4487,-0.448,-0.4519,-0.4519,-0.4519,-0.4519,-0.4519,-0.4519,-0.4519,-0.4525,-0.4522,-0.4467,-0.3637,-0.3288,-0.3289,-0.3289,-0.3764,-0.449,-0.449,-0.4601,-0.4766,-0.4766,-0.5047,-0.5428,0.0,-0.1862,0.0,0.0,0.0,0.0,0.0,0.0,0.0,0.0,0.0,0.0,0.0,0.0,0.0,0.0,0.0,-0.446,-0.4349,0.0,0.0,0.0,0.0,0.0,0.0,-0.0112,-0.1563,-0.4519,0.0,0.0,0.0,0.0,0.0,0.0,0.0,0.0,0.0,0.0,0.0,-0.028,-0.3156,-0.4333,-0.4349,0.0,-0.2565,-0.0392,-0.34,0.0,0.0,-0.4519,-0.4519,0.0,0.0,0.0,0.0,0.0,0.0,0.0,0.0,0.0,0.0,0.0,0.0,0.0,0.0,0.0,0.0,0.0,0.0,0.0,0.0,0.0,0.0,0.0,0.0,0.0,0.0,0.0,0.0,0.0,0.0,0.0,0.0,0.0,0.0,0.0,-0.2809,-0.4507,-0.4497,-0.4487,-0.4473,-0.4519,-0.4519,-0.4519,-0.4519,-0.4519,-0.4519,-0.4519,-0.4519,-0.4519,-0.4519,-0.4484,-0.4484,-0.4311,-0.1434,-0.0119,-0.0168,-0.0168,-0.1874,-0.4523,-0.4523,-0.4834,-0.5401,-0.5401,-0.5411,-0.5428,0.0,0.0,0.0,0.0,0.0,0.0,0.0,-0.4388,0.0,0.0,-0.4519,0.0,0.0,-0.4519,-0.4519,0.0,0.0,-0.4519,-0.4519,-0.3566,0.0,-0.0112,0.0,0.0,0.0,0.0,0.0,0.0,0.0,0.0,0.0,0.0,0.0,0.0,0.0,0.0,0.0,0.0,0.0,0.0,0.0,-0.4477,-0.4519,0.0,-0.3846,-0.3121,-0.4125,-0.4519,0.0,-0.4519,-0.4519,-0.4519,-0.4519,-0.4519,-0.4386,-0.3748,-0.3285,-0.2956,0.0,0.0,-0.251,-0.0504,0.0,0.0,0.0,0.0,0.0,0.0,0.0,0.0,0.0,0.0,0.0,0.0,0.0,0.0,0.0,0.0,0.0,0.0,0.0,0.0,0.0,0.0,-0.2132,-0.0168,-0.2798,-0.4494,-0.4497,-0.4477,-0.4522,-0.4519,-0.4519,-0.4519,-0.4519,-0.4519,-0.4519,-0.4519,-0.4519,-0.4525,-0.4484,-0.4477,-0.3405,-0.1462,-0.0439,0.0,0.0,0.0,-0.0586,-0.1552,-0.1552,-0.3105,-0.5413,-0.5376,-0.5428,-0.5557,0.0,0.0,0.0,0.0,0.0,0.0,0.0,0.0,0.0,0.0,-0.5386,0.0,-0.6606,0.0,-0.6177,0.0,-0.4642,-0.4519,-0.4519,-0.4519,0.0,-0.0112,-0.1006,-0.1118,0.0,0.0,0.0,0.0,0.0,-0.2954,0.0,0.0,0.0,0.0,0.0,0.0,0.0,0.0,0.0,0.0,0.0,-0.4519,0.0,0.0,-0.4519,-0.4519,0.0,-0.4519,-0.4519,-0.4519,-0.4519,-0.4519,-0.4519,-0.4519,-0.4556,-0.494,-0.4794,-0.4522,-0.449,-0.448,0.0,-0.2063,-0.0783,0.0,0.0,0.0,0.0,0.0,0.0,0.0,0.0,0.0,0.0,0.0,0.0,0.0,0.0,-0.4511,0.0,0.0,0.0,0.0,0.0,-0.2863,-0.3088,-0.1682,-0.3411,-0.4702,0.0,-0.5022,-0.4838,-0.4838,-0.4838,-0.4732,-0.4519,-0.4519,-0.4519,-0.4525,-0.4525,-0.4477,-0.4497,-0.4487,-0.3463,-0.1517,-0.0497,0.0,0.0,0.0,0.0,0.0,0.0,-0.2228,-0.5373,-0.5382,-0.5428,-0.5624,-0.0182,0.0,0.0,0.0,-0.4137,0.0,0.0,0.0,-0.4574,0.0,-0.7122,-0.9232,-1.0416,-1.0537,-0.918,-0.5836,-0.4911,-0.4519,-0.4519,-0.4519,0.0,0.0,-0.2954,-0.3178,-0.028,0.0,0.0,0.0,0.0,0.0,0.0,0.0,0.0,0.0,0.0,0.0,0.0,0.0,-0.0112,-0.0448,-0.3345,-0.4519,-0.4519,-0.4519,-0.4519,-0.4519,-0.4519,-0.4519,-0.4519,-0.4519,-0.4519,-0.4519,-0.4519,-0.4519,-0.4519,-0.4519,-0.4519,-0.4522,-0.449,-0.4366,-0.4294,-0.4294,-0.2232,0.0,0.0,0.0,0.0,0.0,0.0,0.0,0.0,0.0,0.0,0.0,0.0,0.0,0.0,0.0,-0.4412,0.0,-0.3135,-0.2796,-0.434,-0.32,-0.2916,-0.4399,-0.448,-0.5077,0.0,-0.5891,-0.5538,-0.5542,-0.5542,-0.5218,-0.457,-0.4519,-0.4522,-0.448,-0.4425,-0.4428,-0.4497,-0.4507,-0.4442,-0.4092,-0.1235,0.0,0.0,0.0,0.0,0.0,0.0,-0.2228,-0.5373,-0.5382,-0.5428,-0.5557,-0.2665,-0.3514,-0.4246,0.0,-0.4415,-0.4519,0.0,0.0,0.0,0.0,-0.8315,-0.8918,-0.9225,-0.9259,-0.8912,-0.8004,-0.5827,0.0,0.0,0.0,0.0,-0.34,-0.407,-0.4125,-0.3345,-0.3345,-0.3735,-0.4519,0.0,0.0,-0.3289,0.0,0.0,0.0,0.0,0.0,0.0,0.0,-0.1284,-0.34,-0.4184,-0.4519,-0.4519,0.0,-0.4519,-0.4519,-0.4519,-0.4519,-0.4519,-0.4519,-0.4519,-0.4519,-0.4519,-0.4519,-0.4519,-0.4519,-0.4519,-0.4519,-0.4525,-0.2845,-0.1174,-0.1174,-0.2232,-0.3463,0.0,0.0,0.0,0.0,0.0,0.0,0.0,0.0,0.0,0.0,0.0,0.0,0.0,0.0,0.0,-0.4343,-0.3142,-0.28,-0.433,-0.4163,-0.4051,-0.4445,-0.4477,0.0,0.0,0.0,-0.577,-0.6312,-0.576,-0.5433,-0.5218,-0.4732,-0.4522,-0.448,-0.3357,-0.3365,-0.4507,-0.4504,-0.3295,-0.1107,-0.0316,0.0,0.0,0.0,0.0,0.0,0.0,-0.2228,-0.5373,-0.5382,-0.5428,-0.5557,-0.3751,0.0,0.0,-0.4519,0.0,0.0,-0.4519,-0.4519,0.0,-0.915,-0.9573,0.0,-0.9573,-0.9573,-0.9365,-0.8851,-0.7337,0.0,-0.457,0.0,0.0,-0.4519,-0.4519,-0.4519,-0.4519,-0.4519,0.0,-0.4519,0.0,0.0,-0.4408,0.0,0.0,0.0,0.0,0.0,-0.0112,-0.1396,-0.2954,-0.4519,-0.4519,-0.4519,0.0,-0.4519,-0.4519,-0.4519,-0.4519,-0.4519,-0.4519,-0.4519,-0.4519,-0.4519,-0.4519,-0.4519,-0.4236,-0.2899,-0.2559,-0.2558,-0.2508,-0.2232,-0.1955,-0.1964,-0.3445,-0.4984,-0.5325,-0.2572,0.0,0.0,0.0,0.0,0.0,0.0,0.0,0.0,0.0,0.0,0.0,0.0,0.0,0.0,-0.3716,-0.3256,-0.3482,-0.4101,-0.4494,-0.4484,-0.4525,0.0,0.0,0.0,-0.6152,-0.6588,-0.6524,-0.6303,-0.5982,-0.5273,-0.4783,-0.4457,-0.2956,-0.2296,-0.2527,-0.2516,-0.158,0.0,0.0,0.0,0.0,0.0,0.0,-0.0135,-0.1745,-0.3632,-0.5202,-0.3625,-0.402,-0.5557,-0.3411,0.0,0.0,0.0,0.0,0.0,0.0,-0.5305,0.0,-0.9901,0.0,-1.045,-1.0604,-1.0624,-1.0208,-0.9125,0.0,-0.7717,-0.5222,-0.5062,-0.4897,-0.4519,-0.4519,-0.4519,-0.4519,-0.4519,-0.4519,0.0,0.0,0.0,0.0,0.0,0.0,0.0,0.0,0.0,0.0,-0.2788,-0.4125,-0.4519,-0.4519,-0.4519,-0.4519,-0.4519,-0.4736,-0.5007,-0.4625,-0.4519,-0.4519,-0.4519,-0.4519,-0.4519,-0.4519,-0.4519,-0.3959,-0.1341,-0.0335,-0.0111,-0.0503,-0.251,-0.4546,-0.4609,-0.5003,-0.5428,-0.5428,-0.295,-0.0606,-0.0067,0.0,0.0,0.0,0.0,0.0,0.0,0.0,0.0,0.0,0.0,0.0,0.0,0.0,0.0,-0.2585,-0.3699,-0.4477,-0.4519,-0.4519,0.0,0.0,0.0,-0.6661,-0.675,-0.745,-0.7503,-0.675,-0.5977,-0.5202,-0.4481,-0.2724,-0.1228,0.0,0.0,0.0,0.0,0.0,0.0,0.0,0.0,-0.027,-0.1008,-0.4088,-0.536,-0.5027,-0.1879,-0.2681,-0.5557,-0.0707,0.0,0.0,0.0,0.0,-0.5644,-0.904,-0.955,-0.9421,-0.9157,-0.9112,-0.9486,-1.0517,-1.0624,-1.0537,-1.0274,-0.9365,0.0,0.0,0.0,0.0,-0.4625,-0.4519,-0.4519,-0.4519,-0.4519,-0.4519,0.0,0.0,0.0,0.0,0.0,0.0,0.0,0.0,0.0,-0.0056,-0.056,0.0,-0.4519,-0.4519,-0.4519,-0.4519,-0.4519,-0.5982,-0.7717,-0.5332,-0.4519,-0.4519,-0.4519,-0.4519,-0.4519,-0.4519,-0.4519,-0.4405,-0.3846,-0.1952,-0.0559,-0.301,-0.407,-0.4642,-0.5091,-0.5353,-0.5428,-0.5428,-0.4891,-0.3618,-0.0605,0.0,0.0,0.0,0.0,0.0,0.0,0.0,0.0,0.0,0.0,0.0,0.0,0.0,-0.3021,-0.3987,-0.4324,-0.4484,-0.4519,0.0,0.0,0.0,0.0,-0.6876,0.0,-0.8171,0.0,0.0,0.0,-0.5366,-0.4481,-0.1719,-0.0223,0.0,0.0,0.0,0.0,0.0,0.0,0.0,0.0,-0.1751,-0.448,-0.4584,-0.4985,-0.5296,-0.4688,-0.4824,-0.5624,0.0,0.0,0.0,0.0,0.0,0.0,0.0,-1.0624,-1.0416,-0.9793,-0.9719,-0.9933,-1.0564,-1.0624,-1.0376,-0.9706,-0.9132,-0.8804,-0.8804,-0.8804,-0.8209,-0.6794,-0.5277,-0.4519,-0.4519,-0.4519,-0.4519,-0.4519,0.0,0.0,0.0,0.0,0.0,0.0,0.0,0.0,0.0,0.0,0.0,-0.4519,-0.4519,-0.4519,-0.4519,-0.4519,-0.5386,-0.6578,-0.6686,-0.674,-0.674,-0.674,-0.674,-0.647,-0.4952,-0.4735,-0.4989,-0.4989,-0.3941,-0.314,-0.4559,-0.494,-0.5019,-0.5342,-0.5428,-0.5428,-0.5428,-0.5369,-0.4903,-0.3151,-0.1328,0.0,0.0,0.0,0.0,0.0,0.0,0.0,0.0,0.0,-0.3467,0.0,0.0,0.0,-0.4363,-0.448,0.0,0.0,0.0,0.0,0.0,0.0,-0.7079,0.0,0.0,0.0,-0.9325,0.0,-0.6656,-0.5198,-0.2426,-0.0721,0.0,0.0,0.0,0.0,0.0,0.0,0.0,0.0,-0.2154,-0.5355,-0.4884,-0.4972,-0.5428,-0.5428,-0.5428,-0.5491,0.0,-0.4519,0.0,0.0,-0.5621,-0.6856,-1.0095,-1.0624,-1.0624,-1.0624,-1.0624,-1.0624,-1.0624,-1.0403,-0.9813,-0.8884,-0.8804,-0.8804,-0.8804,-0.8804,-0.8804,-0.8804,-0.6632,-0.5386,-0.5386,-0.4791,-0.4519,0.0,0.0,0.0,0.0,0.0,0.0,0.0,0.0,0.0,0.0,0.0,-0.4519,-0.4519,-0.4519,-0.4846,-0.5332,-0.4736,-0.4897,-0.5732,-0.83,-0.9178,-0.9145,-0.8891,-0.8804,-0.8306,-0.5567,-0.504,-0.5428,-0.5428,-0.5428,-0.5428,-0.5428,-0.5399,-0.5376,-0.5377,-0.5428,-0.5428,-0.5428,-0.5376,-0.4973,-0.3398,-0.1136,0.0466,0.0064,-0.0316,0.0,0.0,0.0,0.0,0.0,0.0,-0.5153,0.0,0.0,0.0,-0.4359,0.0,0.0,0.0,0.0,0.0,-0.5257,0.0,0.0,0.0,0.0,-1.0458,-1.1007,0.0,-0.8246,-0.646,-0.3908,-0.1763,0.0,0.0,0.0,0.0,0.0,0.0,0.0,0.0,-0.1681,-0.4284,-0.4788,-0.5155,-0.5422,-0.538,-0.5693,-0.6175,0.0,0.0,0.0,0.0,0.0,-1.0171,-1.0541,-1.0624,-1.0624,-1.0624,-1.0624,-1.0624,-1.0624,-0.9613,-0.8925,-0.8818,-0.8804,-0.8804,-0.8804,-0.8804,-0.8804,-0.8804,-0.8533,-0.8421,-0.8421,-0.5819,-0.4519,0.0,0.0,-0.1278,0.0,0.0,0.0,0.0,0.0,0.0,0.0,-0.4405,-0.4519,-0.4519,-0.4519,-0.6091,-0.8103,-0.5496,-0.6145,-0.8562,-0.9953,-1.0456,-1.0234,-0.9165,-0.8804,-0.8384,-0.6037,-0.538,-0.5428,-0.5428,-0.5428,-0.5428,-0.5428,-0.5387,-0.5425,-0.5415,-0.5428,-0.5428,-0.5428,-0.5428,-0.3533,0.306,0.3343,0.192,0.0319,-0.1365,-0.2441,0.0,0.0,0.0,0.0,0.0,-0.5182,-0.5289,0.0,0.0,-0.4337,-0.2839,0.0,0.0,-0.4494,0.0,0.0,0.0,0.0,-0.7712,-1.0257,-1.1598,-1.1612,-1.0948,-0.9908,-0.848,-0.5647,-0.2758,0.0,0.0,0.0,0.0,0.0,0.0,0.0,0.0,-0.0202,-0.0803,-0.4056,-0.5404,-0.5404,-0.5222,-0.6552,-0.8636,0.0,0.0,0.0,0.0,0.0,0.0,0.0,-1.0624,-1.0369,-0.9599,-1.012,-1.0287,-0.9586,-0.9092,-0.8804,-0.8804,-0.8804,-0.8804,-0.8804,-0.8804,-0.8804,-0.8804,-0.8804,-0.8804,-0.8804,-0.7664,-0.6253,0.0,0.0,0.0,0.0,0.0,0.0,0.0,0.0,-0.3719,-0.4519,-0.4519,-0.4519,-0.4519,-0.4519,-0.6199,-0.8699,-0.7503,-0.7771,-0.8958,-1.0201,-1.0624,-1.0551,-1.0013,-0.986,-0.9329,-0.6379,-0.5428,-0.5428,-0.5428,-0.5428,-0.5428,-0.5428,-0.5428,-0.5885,-0.8027,-0.6924,-0.5428,-0.5428,-0.04,0.5554,1.0422,0.8476,0.4342,-0.0659,-0.3008,-0.4702,-0.5932,0.0,0.0,0.0,0.0,0.0,-0.4755,0.0,0.0223,-0.0444,-0.0553,0.0,0.0,0.0,0.0,0.0,0.0,0.0,-0.8854,0.0,-1.1747,-1.2956,-1.2308,-1.1495,-1.0487,-0.8199,-0.5622,-0.293,-0.3151,-0.2053,0.0,0.0,0.0,0.0,0.0,0.0,-0.0267,-0.2805,-0.4466,-0.5362,-0.5339,-0.6501,-0.826,-0.6276,0.0,-1.0624,0.0,-1.0624,-1.0624,-1.0624,-1.0329,-0.9746,-0.8918,-0.9532,-0.9726,-0.8898,-0.8804,-0.8804,-0.8804,-0.8804,-0.8804,-0.8804,-0.8804,-0.8804,-0.8804,-0.8804,0.0,-0.8804,-0.8804,-0.7391,-0.4519,-0.3624,0.0,0.0,0.0,0.0,0.0,-0.4287,-0.5188,-0.4773,-0.4594,-0.4519,-0.4588,-0.5787,-0.7316,-0.8804,-0.8804,-0.9025,-0.9432,-1.0261,-1.0624,-1.0624,-1.0624,-1.0624,-1.0168,-0.7702,-0.621,-0.5446,-0.5464,-0.543,-0.5491,-0.5818,-0.6404,-0.7507,-0.9977,-0.7962,-0.4815,-0.246,0.567,1.3204,1.4785,1.1767,0.6817,-0.0067,-0.2842,-0.514,-0.8207,0.0,0.0,0.0,-0.4193,0.0,-0.1901,0.0973,0.2854,0.2885,0.1935,0.0,0.0,0.0,0.0,0.0,0.0,0.0,0.0,0.0,0.0,-1.405,-1.3416,-1.283,-1.2272,-1.0569,-0.8539,-0.6177,-0.5681,-0.3455,-0.0067,-0.1145,-0.1616,-0.1482,-0.0472,0.0,-0.0201,-0.2016,-0.3798,-0.5386,-0.5416,-0.6551,-0.8132,-1.0541,-1.0548,-1.0624,-1.0624,-1.0624,-1.0624,-1.0624,-0.9573,-0.8824,-0.8811,-0.8818,-0.8824,-0.8804,-0.8804,-0.8804,-0.8804,-0.8804,-0.8804,-0.8804,-0.8804,-0.8804,0.0,0.0,-0.8804,-0.8804,-0.8804,-0.7391,-0.4519,0.0,0.0,0.0,0.0,-0.1877,-0.5362,-0.5362,-0.5425,-0.5377,-0.4773,-0.4519,-0.4845,-0.8888,-0.9846,-0.8804,-0.8804,-0.9526,-1.0604,-1.0618,-1.0624,-1.0624,-1.0624,-1.0624,-1.0561,-1.0555,-0.8156,-0.542,-0.5708,-0.5589,-0.5624,-0.6789,-0.8796,-1.0555,-1.0561,-0.7962,-0.3396,0.4408,1.2277,1.7243,1.4887,1.2625,0.9179,0.287,0.0125,-0.2869,-0.772,0.0,0.0,0.0,-0.3643,0.0,0.3832,0.4445,0.4487,0.4463,0.446,0.0,0.0,0.0,0.0,0.0,0.0,0.0,-0.8664,-1.0705,0.0,-1.4652,-1.4097,-1.3747,-1.3648,-1.2586,-1.1114,-0.9243,-0.6608,-0.3447,-0.0202,-0.3777,-0.5343,-0.5071,-0.1482,0.0,-0.0202,-0.2009,-0.3823,-0.5413,-0.5542,-0.6921,-0.8915,-1.0624,-1.0624,-1.0624,-1.0624,-1.0624,-1.0287,-0.9486,-0.9045,-0.8804,-0.8804,-0.8804,-0.8804,-0.8804,-0.8804,-0.8804,0.0,-0.8804,-0.8804,0.0,-0.8804,-0.8804,-0.8804,-0.8804,-0.8804,-0.8804,-0.8804,-0.7391,-0.4519,0.0,0.0,0.0,-0.2549,-0.2948,-0.1745,-0.1745,-0.3082,-0.5415,-0.5222,-0.514,-0.5465,-0.9127,-1.0403,-1.0,-1.0,-0.974,-0.9742,-1.2814,-1.3897,-1.3897,-1.3897,-1.4675,-1.5441,-1.4232,-0.9982,-0.5603,-0.6594,-0.632,-0.5878,-0.6848,-0.7926,-0.8805,-0.8805,-0.7078,-0.3385,0.4442,1.1957,1.6845,1.5107,1.4754,1.2134,0.3728,-0.0504,-0.4145,-0.8342,-0.8471,0.0,-0.7099,0.0,-0.0766,0.4495,0.4925,0.4772,0.4735,0.4667,0.0,0.0,0.0,0.0,0.0,0.0,0.0,0.0,-0.9482,0.0,-1.3396,-1.3917,-1.422,-1.416,-1.309,-1.1152,-0.8539,-0.6365,-0.4743,-0.3751,-0.49,-0.5386,-0.5333,-0.4175,-0.2956,-0.2011,-0.382,-0.4909,-0.5416,-0.5579,-0.6124,-0.704,-0.9987,-0.99,-0.99,-0.99,-0.99,-0.9653,-0.8918,-0.8804,-0.8804,-0.8804,-0.8804,-0.8804,-0.8804,-0.8804,0.0,-0.8804,-0.8804,-0.8804,-0.8804,-0.8804,-0.8804,-0.8804,-0.8804,-0.8804,-0.8804,-0.8804,0.0,-0.6091,-0.2023,0.0,-0.0067,-0.2281,-0.2147,-0.0067,-0.1411,-0.3284,-0.5428,-0.5428,-0.5428,-0.569,-0.9192,-1.0624,-1.0624,-1.0624,-1.0107,-1.0002,-1.3959,-1.541,-1.5575,-1.6676,-1.7802,-1.8526,-1.7653,-1.34,-0.8743,-0.887,-0.813,-0.7495,-0.8144,-0.8539,-0.8719,-0.8388,-0.6448,-0.2293,0.6979,1.3085,1.6476,1.5336,1.5989,1.3773,0.4121,-0.0586,-0.4259,-0.8285,-0.8619,-0.8291,-0.8017,0.0,-0.0195,0.0,0.0,0.0,0.0,0.478,0.4689,0.0,0.0,0.0,0.0,0.0,-0.5277,-0.6986,-0.8652,-1.0701,-1.3132,-1.3821,-1.4338,-1.4633,-1.3267,-1.1411,-0.9013,-0.7237,-0.6013,-0.5428,-0.5428,-0.5369,-0.5382,-0.5386,-0.4703,-0.382,-0.4973,-0.5389,-0.5423,-0.5637,-0.5752,-0.6201,-0.9025,-0.8804,-0.8804,0.0,-0.8804,-0.8804,-0.8804,-0.8804,-0.8804,-0.8804,-0.8804,-0.8857,-0.9061,-0.9061,-0.9008,-0.8804,0.0,0.0,-0.8804,-0.8804,-0.8804,-0.8804,-0.8804,-0.8804,-0.8804,-0.8804,-0.858,-0.819,-0.268,0.0,0.0,0.0,0.0,-0.0135,-0.3551,-0.5024,-0.5024,-0.5292,-0.5428,-0.569,-0.9192,-1.0624,-1.0624,-1.0624,-1.0624,-1.1052,-1.4255,-1.5517,-1.613,-1.8862,-1.9798,-1.9911,-2.058,-1.8049,-1.4354,-1.2185,-1.0827,-1.0204,-1.044,-1.0271,-0.9852,-0.8974,-0.5886,-0.0067,1.1128,1.503,1.6142,1.5452,1.6244,1.4047,0.4193,-0.0206,-0.374,-0.7751,-0.8541,-0.8334,-0.7548,-0.3177,0.0733,0.0,0.0,0.0,0.4955,0.4924,0.4813,0.0,0.0,0.0,0.0,0.0,-0.5072,-0.6543,-0.8219,-1.0623,-1.3641,-1.3733,-1.4165,-1.4911,-1.3256,-1.173,-1.0364,-0.8672,-0.6985,-0.5428,-0.5428,-0.5428,-0.5428,-0.5372,-0.5376,-0.5379,-0.5389,-0.5406,-0.5454,-0.5684,-0.5796,-0.623,0.0,0.0,-0.8804,-0.8804,-0.8804,-0.8804,-0.8804,-0.8804,-0.8804,-0.8804,-0.8804,-0.9621,-1.171,-1.1909,-1.1099,-0.8962,-0.8804,-0.8804,-0.8804,-0.8804,-0.8804,-0.8804,-0.8804,-0.8804,-0.8804,-0.8804,-0.6587,-0.2106,-0.0692,0.0,0.0,0.0,0.0,-0.0067,-0.0875,-0.1276,-0.1478,-0.422,-0.5428,-0.569,-0.9192,-1.0624,-1.0624,-1.0624,-1.0624,-1.1052,-1.4255,-1.6845,-1.8874,-1.9579,-1.9798,-2.0135,-2.194,-2.1206,-1.8902,-1.4899,-1.2657,-1.144,-1.1477,-1.0571,-0.9397,-0.8689,-0.3293,0.3677,1.0721,1.3901,1.4972,1.3847,1.4539,1.285,0.4844,-0.136,-0.6006,-0.8054,-0.6483,-0.4284,-0.2187,-0.0795,0.1196,0.0,0.5087,0.5229,0.5065,0.5031,0.4957,0.0,0.0,0.3691,0.177,-0.1386,-0.4405,-0.716,-0.806,-0.974,-1.2312,-1.3182,-1.3618,-1.3514,-1.3075,-1.1367,-0.8608,-0.7697,-0.6593,-0.5428,-0.5428,-0.5428,-0.5428,-0.5432,-0.5432,-0.5432,-0.5369,-0.5508,-0.5684,-0.5525,-0.5755,-0.654,-0.8804,-0.8804,-0.8804,-0.8804,-0.8804,-0.8804,-0.8804,-0.8804,-0.8804,-0.8804,-0.8804,-0.9821,-1.2627,-1.2881,-1.2314,-1.0787,-0.9517,-0.8804,-0.8804,-0.8804,-0.8804,-0.8804,-0.8804,-0.8804,-0.8804,-0.8804,-0.6597,-0.2065,-0.0671,0.0727,0.2066,0.2314,0.2461,0.248,0.248,0.1545,-0.0135,-0.208,-0.3885,-0.569,-0.9192,-1.1476,-1.2626,-1.117,-1.0624,-1.0807,-1.2565,-1.5187,-1.7993,-1.9359,-1.9798,-2.0436,-2.4041,-2.3804,-2.168,-1.9176,-1.6292,-1.39,-1.3718,-1.2424,-1.0507,-0.7889,-0.1786,0.4873,0.9875,1.2763,1.4008,1.2905,1.3108,1.1416,0.4642,0.0475,-0.2611,-0.4375,-0.3291,-0.1736,-0.0341,0.1344,0.3203,0.5156,0.5428,0.5328,0.5243,0.5237,0.5176,0.5026,0.4968,0.0,0.2323,-0.0633,-0.3935,-0.7583,-0.7907,-0.9439,-1.2398,-1.3374,-1.3584,-1.3009,-1.2634,-1.1003,-0.835,-0.7502,-0.6461,-0.5428,-0.5428,-0.5403,-0.5464,-0.5464,-0.5504,-0.5559,-0.5583,-0.5654,-0.5864,-0.5796,-0.6053,-0.6644,-0.8804,-0.8804,-0.8804,-0.8804,-0.8804,-0.8804,-0.8804,-0.8804,-0.8804,-0.8804,-0.8804,-0.9821,-1.2627,-1.2881,-1.2881,-1.2881,-1.0387,-0.8804,-0.8804,-0.8804,-0.8804,-0.8804,-0.8804,-0.8804,-0.8804,-0.8804,-0.7391,-0.4519,-0.1482,0.1611,0.4666,0.5185,0.5428,0.5428,0.5428,0.3418,0.0067,0.0606,-0.1273,-0.4948,-0.8988,-1.2266,-1.4382,-1.1655,-1.0624,-1.0561,-0.997,-1.2227,-1.5853,-1.8809,-1.9798,-2.0669,-2.5465,-2.5535,-2.3699,-2.3264,-2.0403,-1.7186,-1.6329,-1.459,-1.1859,-0.7109,-0.1484,0.3968,0.8255,1.123,1.2837,1.1808,1.1425,0.9632,0.4554,0.3561,0.3032,0.1267,0.0934,0.084,0.0765,0.0,0.5589,0.5432,0.5428,0.5428,0.5428,0.5428,0.5308,0.5176,0.5298,0.4587,0.2786,0.0,-0.3418,-0.7472,-0.7689,-0.9445,-1.3083,-1.4056,-1.4091,-1.3174,-1.2484,-1.096,-0.8723,-0.7795,-0.6676,-0.543,-0.543,-0.5501,-0.5623,-0.5623,-0.5691,-0.5793,-0.5732,-0.5882,-0.606,-0.6263,-0.6338,-0.6718,-0.8804,-0.8804,-0.8804,-0.8804,-0.8804,-0.8804,-0.8804,-0.8804,-0.8804,-0.8804,-0.8804,-0.9821,-1.2627,-1.2881,-1.2881,-1.2881,-1.0387,-0.8804,-0.8804,-0.8804,-0.8804,-0.8804,-0.8804,-0.8804,-0.8804,-0.8804,-0.7391,-0.4519,-0.1494,0.183,0.5288,0.5384,0.5428,0.5428,0.5428,0.3418,0.0202,0.3284,0.2476,-0.1409,-0.797,-1.0933,-1.1296,-1.0807,-1.0624,-1.0231,-0.7246,-1.0158,-1.5853,-1.8809,-1.9798,-2.0347,-2.331,-2.5456,-2.6439,-2.396,-2.269,-2.1397,-1.8324,-1.4537,-1.0647,-0.7228,-0.3377,0.0614,0.4518,0.8203,1.0477,0.9204,0.7939,0.6885,0.5972,0.5799,0.6064,0.6908,0.656,0.6138,0.5981,0.0,0.6465,0.5498,0.5428,0.5428,0.5428,0.5428,0.5418,0.5328,0.5359,0.5236,0.4954,0.16,-0.1994,-0.5705,-0.7196,-0.9728,-1.3446,-1.5376,-1.5487,-1.3917,-1.3786,-1.1966,-0.8592,-0.8453,-0.7408,-0.5732,-0.5732,-0.5745,-0.5769,-0.5769,-0.5783,-0.581,-0.5884,-0.6005,-0.606,-0.6263,-0.6338,-0.6718,-0.8804,-0.8804,-0.8804,-0.8804,-0.8804,-0.8804,-0.8804,-0.8804,-0.8804,-0.8804,-0.8804,-0.9271,-1.0541,-1.2008,-1.2314,-1.0838,-1.0897,-1.0387,-0.891,-0.8804,-0.8804,-0.8804,-0.8804,-0.8804,-0.8804,-0.8804,-0.7391,-0.4519,0.0177,0.3467,0.5422,0.5092,0.5113,0.5428,0.5428,0.4489,0.2882,0.2614,0.0401,-0.3213,-0.651,-0.8935,-1.0624,-1.0624,-0.9448,-0.7572,-0.5947,-0.8617,-1.3554,-1.8205,-1.9798,-2.0232,-2.2786,-2.4448,-2.5156,-2.3865,-2.275,-2.1195,-1.7899,-1.5195,-1.2583,-0.9511,-0.5914,-0.2146,0.1723,0.4971,0.7777,0.9991,0.8095,0.5948,0.5827,0.6374,0.7049,0.7619,0.779,0.7885,0.8007,0.7458,0.7022,0.6849,0.5977,0.5395,0.5376,0.5428,0.5463,0.5477,0.5413,0.5413,0.5375,0.2562,-0.0533,-0.3875,-0.8062,-1.1482,-1.3834,-1.5304,-1.5395,-1.4082,-1.3627,-1.1784,-0.8624,-0.8624,-0.7571,-0.58,-0.58,-0.5847,-0.5925,-0.5925,-0.5973,-0.6054,-0.6105,-0.6197,-0.6211,-0.6304,-0.6338,-0.6567,-0.891,-0.9316,-0.9777,-0.9777,-0.9777,-0.9777,-0.9777,-0.9218,-0.8905,-0.9178,-0.8978,-0.9061,-0.9673,-1.1049,-1.1351,-0.988,-1.1701,-1.2008,-0.9873,-0.9777,-0.9777,-0.9777,-0.9166,-0.8804,-0.8804,-0.8804,-0.7052,-0.3456,0.1882,0.4755,0.5205,0.4738,0.4766,0.5222,0.5367,0.5428,0.516,0.1545,-0.208,-0.5428,-0.5428,-0.7507,-1.0491,-0.9709,-0.7702,-0.5428,-0.5428,-0.7637,-1.1564,-1.7705,-1.9798,-2.0232,-2.2786,-2.3595,-2.3598,-2.358,-2.3059,-2.1619,-1.7798,-1.6066,-1.4585,-1.1843,-0.8703,-0.5338,-0.1615,0.0917,0.393,0.9135,0.7572,0.5373,0.5407,0.6504,0.7407,0.7353,0.0,0.8647,0.8958,0.8373,0.7853,0.7812,0.6368,0.5421,0.541,0.546,0.5511,0.563,0.5501,0.5406,0.5405,0.326,0.0134,-0.4014,-0.9354,-1.2883,-1.4396,-1.5534,-1.5578,-1.4461,-1.3779,-1.193,-0.9132,-0.8852,-0.7848,-0.6266,-0.6054,-0.5973,-0.6084,-0.6084,-0.6156,-0.6338,-0.6338,-0.6338,-0.6338,-0.6338,-0.6338,-0.6412,-0.9316,-1.0846,-1.2627,-1.2627,-1.2627,-1.2627,-1.2627,-1.0438,-0.9198,-1.0287,-0.9486,-0.9777,-1.2323,-1.049,-1.0028,-1.2363,-1.2774,-1.2832,-1.2618,-1.2627,-1.2627,-1.2627,-1.0182,-0.8804,-0.8804,-0.8804,-0.604,-0.0336,0.2896,0.4539,0.4584,0.4539,0.4539,0.4608,0.5178,0.5428,0.516,0.1545,-0.208,-0.5428,-0.5428,-0.7507,-1.0231,-0.699,-0.5624,-0.5428,-0.5428,-0.7637,-1.1564,-1.7705,-1.9798,-2.0232,-2.2786,-2.3595,-2.361,-2.3611,-2.528,-2.5798,-1.9875,-1.6746,-1.48,-1.3126,-1.178,-0.9995,-0.6547,-0.4444,-0.186,0.2812,0.3919,0.4302,0.521,0.6493,0.754,0.8074,0.0,0.0,0.9626,1.0031,0.9542,0.7433,0.6112,0.5423,0.5596,0.5548,0.5626,0.5786,0.5654,0.5517,0.5408,0.361,-0.0747,-0.8112,-1.0529,-1.2916,-1.5283,-1.6986,-1.7102,-1.564,-1.5246,-1.3482,-1.0582,-0.9691,-0.8647,-0.7588,-0.6681,-0.6234,-0.6244,-0.6244,-0.6251,-0.6338,-0.6338,-0.6338,-0.6338,-0.6338,-0.6338,-0.6412,-1.156,-1.2166,-1.2881,-1.2881,-1.2881,-1.2881,-1.2881,-1.2008,-1.1507,-1.1967,-1.1601,-1.176,-1.2774,-1.1959,-1.176,-1.2832,-1.2881,-1.2881,-1.2881,-1.2881,-1.2881,-1.2881,-1.0285,-0.8804,-0.8804,-0.7069,-0.4097,0.0,0.301,0.4519,0.4519,0.4519,0.4519,0.4529,0.4759,0.382,0.1811,-0.1805,-0.4154,-0.5428,-0.5428,-0.621,-0.7251,-0.5885,-0.5428,-0.5428,-0.5428,-0.7637,-1.1281,-1.5581,-1.8263,-2.0232,-2.2786,-2.448,-2.5886,-2.7753,-2.9014,-2.8602,-2.2874,-1.9045,-1.643,-1.5264,-1.4454,-1.3073,-1.0159,-0.8669,-0.6886,-0.2951,-0.0758,0.1043,0.2822,0.5696,0.7989,0.8723,0.0,1.0639,1.1145,1.1275,1.0867,0.9725,0.795,0.681,0.6726,0.6005,0.5704,0.5932,0.5745,0.5643,0.5676,0.1498,-0.3728,-0.9928,-1.0833,-1.2613,-1.563,-1.6804,-1.7042,-1.628,-1.5576,-1.3704,-1.0941,-1.0489,-0.9579,-0.8342,-0.758,-0.7249,-0.7173,-0.6567,-0.6338,-0.6338,-0.6338,-0.6718,-0.7176,-0.6567,-0.6718,-0.7188,-1.2881,-1.2881,-1.3162,-1.3884,-1.4025,-1.3752,-1.3027,-1.2881,-1.2881,-1.2881,-1.2881,-1.2881,-1.2881,-1.2881,-1.2881,-1.2881,-1.2881,-1.2881,-1.2881,-1.2881,-1.2881,-1.2881,-1.1099,-0.9673,-0.8804,-0.5982,-0.301,0.0,0.301,0.4015,0.3067,0.3067,0.3067,0.3067,0.3067,0.1317,-0.1879,-0.4353,-0.5428,-0.5491,-0.6601,-0.6404,-0.5428,-0.5428,-0.5428,-0.5557,-0.6666,-0.8544,-1.1171,-1.4967,-1.7222,-1.8879,-2.156,-2.5408,-2.9347,-3.1429,-3.162,-3.0236,-2.5709,-2.1977,-1.8771,-1.6591,-1.6138,-1.5595,-1.3203,-1.2123,-1.0804,-0.8123,-0.5027,-0.1959,0.075,0.4821,0.7941,0.8692,1.0043,1.1213,1.1883,1.1418,1.0892,1.0542,0.8488,0.7137,0.6961,0.6223,0.5845,0.6095,0.5905,0.52,0.3774,-0.1353,-0.6335,-1.0818,-1.0852,-1.2285,-1.541,-1.6499,-1.675,-1.6316,-1.5449,-1.3793,-1.1453,-1.09,-1.0239,-0.9348,-0.8623,-0.8237,-0.8161,-0.7173,-0.6945,-0.7176,-0.6872,-0.7403,-0.8169,-0.7157,-0.7219,-0.7654,-1.2929,-1.2929,-1.3705,-1.6064,-1.6522,-1.57,-1.3296,-1.2929,-1.2881,-1.2881,-1.2881,-1.2881,-1.2881,-1.2881,-1.2881,-1.2881,-1.2881,-1.2881,-1.2881,-1.2881,-1.2881,-1.2881,-1.2881,-1.161,-0.8857,-0.5982,-0.3012,0.0,0.3014,0.2959,0.0,0.0,0.0,-0.0,-0.0056,-0.2041,-0.5428,-0.5428,-0.5428,-0.5752,-0.9192,-0.8544,-0.5428,-0.5428,-0.5428,-0.5885,-0.9332,-1.0568,-1.1362,-1.6254,-1.6782,-1.5901,-1.8931,-2.6302,-3.3823,-3.3815,-3.258,-3.0683,-2.8255,-2.5412,-2.1849,-1.6698,-1.6719,-1.7549,-1.5811,-1.4631,-1.3598,-1.2419,-0.8614,-0.4289,-0.0594,0.3881,0.7288,0.7897,0.967,1.1096,1.1321,1.0425,0.9567,0.911,0.7265,0.5988,0.5989,0.6018,0.6103,0.6274,0.6059,0.3918,-0.0678,-0.4594,-0.8053,-1.1105,-1.0664,-1.1793,-1.4802,-1.6269,-1.6593,-1.5821,-1.5027,-1.3831,-1.2285,-1.0961,-1.0542,-1.0783,-0.9744,-0.9296,-0.9221,-0.8237,-0.8389,-0.9221,-0.8237,-0.8389,-0.9175,-0.8369,-0.7935,-0.7658,-1.5433,-1.5433,-1.5656,-1.638,-1.6522,-1.625,-1.5522,-1.3978,-1.2881,-1.2881,-1.2881,-1.2881,-1.2881,-1.2881,-1.2881,-1.2881,-1.2881,-1.2881,-1.2881,-1.2881,-1.2881,-1.2881,-1.2881,-1.161,-0.8857,-0.5982,-0.3033,0.0,0.0894,0.0894,0.0,0.0,0.0,-0.0128,-0.2674,-0.4411,-0.5557,-0.8027,-0.9064,-0.9128,-1.0168,-0.8544,-0.5428,-0.5428,-0.5428,-0.5617,-0.7048,-0.8912,-1.0928,-1.3219,-1.3126,-1.4242,-2.713,-3.2924,-3.5039,-3.5281,-3.4245,-3.2207,-2.8592,-2.5412,-2.1849,-1.6698,-1.6269,-1.6909,-1.6158,-1.6188,-1.5581,-1.2715,-1.014,-0.6994,-0.253,0.1891,0.5636,0.7707,0.8763,0.9575,1.0361,0.9834,0.928,0.8898,0.7777,0.7002,0.6953,0.6329,0.608,0.6268,0.3306,0.0239,-0.2678,-0.5361,-0.7934,-1.0526,-1.0466,-1.1793,-1.4647,-1.508,-1.5311,-1.5392,-1.4466,-1.3479,-1.2534,-1.2011,-1.1655,-1.1493,-1.0496,-0.9976,-0.9976,-0.9674,-0.9216,-0.8609,-0.8765,-0.9442,-1.0293,-0.9461,-0.9111,-0.8871,-1.6522,-1.6522,-1.6522,-1.6522,-1.6522,-1.6522,-1.6522,-1.5242,-1.434,-1.434,-1.3478,-1.2881,-1.2881,-1.2881,-1.2881,-1.2881,-1.2881,-1.2881,-1.2881,-1.3506,-1.3887,-1.3887,-1.3887,-1.2813,-1.0446,-0.6548,-0.3032,0.0,0.0,0.0,0.0,0.0,0.0,-0.0135,-0.3751,-0.6145,-0.7572,-0.9709,-1.0624,-1.0624,-1.0624,-0.932,-0.7312,-0.5951,-0.5428,-0.5476,-0.5847,-0.7047,-0.7797,-0.3006,0.2725,0.2911,-2.5239,-3.4425,-3.4983,-3.5779,-3.5271,-3.3666,-3.0021,-2.6136,-2.1849,-1.6698,-1.6328,-1.7184,-1.6977,-1.7568,-1.7305,-1.4333,-1.1663,-0.8781,-0.4916,0.0262,0.4582,0.6662,0.813,0.9113,0.9357,0.9329,0.9209,0.8985,0.7862,0.7003,0.6902,0.6433,0.5422,0.3793,-0.0489,-0.3601,-0.4925,-0.6851,-0.8709,-1.0403,-1.0911,-1.2129,-1.4151,-1.4102,-1.4244,-1.4593,-1.3897,-1.3204,-1.255,-1.2233,-1.2098,-1.2051,-1.1403,-1.1099,-1.1025,-1.0196,-0.9895,-0.9884,-0.9744,-1.0421,-1.1273,-1.0545,-1.0103,-0.9854,-1.6522,-1.6522,-1.6522,-1.6522,-1.6522,-1.6522,-1.6522,-1.6522,-1.6522,-1.6522,-1.4617,-1.32,-1.32,-1.32,-1.3104,-1.2929,-1.2881,-1.2881,-1.2881,-1.4473,-1.541,-1.541,-1.541,-1.4619,-1.292,-0.7723,-0.354,-0.0471,-0.0471,-0.0471,-0.0471,-0.0471,-0.0471,-0.0605,-0.3954,-0.7312,-1.0624,-1.0624,-1.0744,-1.0989,-1.0744,-1.0624,-1.0231,-0.7055,-0.569,-0.5292,-0.4345,-0.3997,-0.1848,1.2137,2.5164,2.7752,-1.7085,-3.2488,-3.4306,-3.5935,-3.6106,-3.5116,-3.2069,-2.7265,-2.1897,-1.6904,-1.6782,-1.7961,-1.8059,-1.8718,-1.8784,-1.6698,-1.341,-1.0078,-0.7526,-0.1464,0.3586,0.4879,0.7199,0.8558,0.7738,0.8094,0.8481,0.8481,0.6828,0.5811,0.5892,0.5827,0.3889,-0.0324,-0.4671,-0.7076,-0.7059,-0.8582,-0.9868,-1.0661,-1.1775,-1.2841,-1.3642,-1.3466,-1.3439,-1.3659,-1.3327,-1.2899,-1.2291,-1.2031,-1.2051,-1.2305,-1.2305,-1.2305,-1.215,-0.997,-1.0196,-1.1929,-1.0875,-1.1248,-1.219,-1.1496,-1.1047,-1.0587,-1.6522,-1.6522,-1.6522,-1.6522,-1.6522,-1.6522,-1.6522,-1.6522,-1.6522,-1.6522,-1.6064,-1.57,-1.57,-1.57,-1.4971,-1.3065,-1.2881,-1.2881,-1.2881,-1.4473,-1.541,-1.541,-1.541,-1.4619,-1.292,-1.0508,-0.7623,-0.422,-0.422,-0.422,-0.422,-0.422,-0.422,-0.4287,-0.5024,-0.7312,-1.0624,-1.0624,-1.2081,-1.4136,-1.1593,-1.0624,-1.0491,-0.9779,-0.7767,-0.4276,0.411,0.71,0.924,2.3111,2.9772,2.4829,-1.7788,-3.318,-3.6059,-3.8749,-3.8804,-3.7033,-3.2627,-2.7371,-2.2189,-1.8352,-1.7544,-1.7893,-1.8559,-1.9243,-1.9354,-1.7901,-1.5918,-1.3139,-0.8882,-0.4715,-0.0901,0.2282,0.2273,0.1877,0.1839,0.1929,0.2013,0.2013,0.1628,0.1785,0.2876,0.1828,-0.0082,-0.2722,-0.5523,-0.7097,-0.7119,-0.8364,-0.9756,-1.1305,-1.2478,-1.3414,-1.4081,-1.4318,-1.3961,-1.3078,-1.2681,-1.2458,-1.2298,-1.2238,-1.2245,-1.2305,-1.2305,-1.2305,-1.2003,-0.8456,-0.8161,-1.0051,-1.1323,-1.2077,-1.2365,-1.2589,-1.1961,-1.0672,-1.9905,-1.8893,-1.7706,-1.668,-1.6522,-1.6522,-1.6522,-1.6522,-1.6522,-1.6522,-1.6522,-1.6522,-1.6522,-1.6522,-1.5976,-1.4744,-1.4617,-1.4107,-1.2978,-1.4473,-1.541,-1.541,-1.6733,-1.6073,-1.2969,-1.2885,-1.0448,-0.5428,-0.5428,-0.5428,-0.5428,-0.5428,-0.5428,-0.5491,-0.7116,-0.8871,-1.0624,-1.0624,-1.2443,-1.5225,-1.3597,-1.1958,-1.0624,-1.0624,-0.8415,-0.4207,0.4846,1.1761,1.7882,2.6576,2.8529,2.2602,-0.4734,-2.1911,-3.281,-3.6932,-3.8721,-3.8225,-3.2913,-2.7398,-2.2298,-1.8844,-1.8511,-1.9097,-1.9309,-1.9715,-1.9775,-1.8819,-1.6789,-1.3984,-1.0187,-0.6312,-0.2977,-0.0733,-0.0225,-0.0842,-0.2722,-0.3037,-0.3036,-0.3036,-0.3036,-0.2735,-0.2134,-0.4012,-0.5577,-0.6386,-0.8044,-0.8956,-0.8595,-0.9606,-1.0803,-1.219,-1.334,-1.4216,-1.4789,-1.4782,-1.4318,-1.3467,-1.2679,-1.2305,-1.2298,-1.1768,-1.1323,-1.0875,-1.0875,-1.034,-0.9286,-0.7173,-0.6945,-0.8161,-1.1174,-1.2425,-1.2625,-1.2893,-1.2258,-1.1044,-2.2936,-2.1186,-1.9132,-1.7353,-1.7034,-1.7034,-1.7034,-1.7034,-1.6909,-1.6552,-1.6522,-1.6522,-1.6522,-1.6522,-1.6522,-1.6522,-1.6522,-1.5656,-1.3658,-1.519,-1.613,-1.613,-1.8489,-1.8008,-1.4156,-1.5427,-1.2895,-0.6272,-0.569,-0.5428,-0.5428,-0.5428,-0.5686,-0.6404,-0.9326,-1.0624,-1.0624,-1.117,-1.2992,-1.541,-1.541,-1.3468,-1.0624,-1.0624,-0.7316,-0.1864,0.4117,1.3132,2.2628,2.5122,2.4292,2.0355,0.9659,-0.8512,-2.7141,-3.3145,-3.6987,-3.8175,-3.2936,-2.6973,-2.1542,-1.8721,-1.9299,-2.0542,-2.0251,-2.0317,-2.0323,-1.9681,-1.7143,-1.4241,-1.156,-0.7541,-0.4408,-0.3725,-0.2215,-0.2414,-0.623,-0.6461,-0.6461,-0.6902,-0.6812,-0.6863,-0.7181,-0.9373,-1.0479,-0.9734,-1.0593,-1.0831,-1.0258,-1.1308,-1.2376,-1.3259,-1.4543,-1.5389,-1.5646,-1.5487,-1.4872,-1.3928,-1.3033,-1.2319,-1.184,-1.1121,-1.0019,-0.877,-0.877,-0.7859,-0.6338,-0.6338,-0.6338,-0.6718,-1.072,-1.2559,-1.2906,-1.2786,-1.2376,-1.1688,-2.0213,-1.9929,-1.9603,-1.9332,-1.9281,-1.9281,-1.9281,-1.9281,-1.8612,-1.6752,-1.6522,-1.6522,-1.6522,-1.6522,-1.6522,-1.6522,-1.6522,-1.638,-1.602,-1.8019,-1.919,-1.919,-1.9579,-1.9494,-1.889,-1.9108,-1.615,-0.9907,-0.6859,-0.5428,-0.5428,-0.5428,-0.699,-0.9907,-1.0364,-1.0624,-1.0807,-1.3597,-1.4982,-1.541,-1.541,-1.3468,-1.0624,-1.0624,-0.2669,0.858,0.9538,1.368,1.8777,1.917,1.9058,1.7241,0.892,-0.5453,-2.0963,-2.9523,-3.3968,-3.5429,-3.236,-2.5249,-1.8586,-1.8144,-1.9299,-2.0696,-2.1123,-2.1451,-2.1416,-2.0579,-1.8406,-1.5798,-1.3157,-0.9696,-0.6844,-0.58,-0.5532,-0.6149,-0.8282,-0.7215,-0.7137,-0.9431,-0.9039,-0.8782,-0.9409,-1.0747,-1.1284,-1.0489,-1.058,-1.0666,-1.0565,-1.2548,-1.3981,-1.4656,-1.6752,-1.7488,-1.6759,-1.7327,-1.6161,-1.3333,-1.3681,-1.2486,-1.0093,-1.0442,-0.9223,-0.6718,-0.6718,-0.6567,-0.6338,-0.6338,-0.6338,-0.6718,-1.072,-1.2559,-1.2906,-1.2786,-1.2862,-1.2719,-1.9889,-1.969,-2.0015,-2.0991,-2.1166,-2.1166,-2.1166,-2.1166,-2.0469,-1.8545,-1.8302,-1.8302,-1.8302,-1.7229,-1.6993,-1.8185,-1.8302,-1.8302,-1.8302,-1.9225,-1.9723,-1.9723,-2.1115,-2.1932,-2.1932,-2.0521,-1.846,-1.5756,-1.0767,-0.7312,-0.5428,-0.7377,-0.9128,-1.0624,-1.0624,-1.0624,-1.0807,-1.4016,-1.541,-1.5235,-1.3416,-1.1903,-1.0364,-0.8415,-0.1321,0.801,1.0617,1.2965,1.4799,1.4799,1.5258,1.4279,0.551,-0.5804,-1.7769,-2.7685,-3.2911,-3.4921,-3.2258,-2.4911,-1.751,-1.5367,-1.7023,-1.9552,-2.1089,-2.1678,-2.1596,-2.0421,-1.8728,-1.6572,-1.3553,-1.1355,-0.9532,-0.8079,-0.7895,-0.8282,-0.8995,-0.8554,-0.8663,-0.9999,-0.9917,-0.9891,-1.0115,-1.1348,-1.2093,-1.2099,-1.2535,-1.3095,-1.3716,-1.5101,-1.6114,-1.6588,-1.8106,-1.875,-1.8517,-1.7668,-1.6453,-1.4889,-1.3503,-1.2469,-1.1798,-1.0729,-0.9463,-0.8166,-0.6984,-0.66,-0.6888,-0.8874,-0.9664,-0.9814,-1.162,-1.2559,-1.2939,-1.3106,-1.308,-1.2751]}]]